TEXAS PACIFIC LAND TRUST

Pages

TEXAS PACIFIC LAND TRUST

$TPL

Search Table
Pages

Trade Date Insider Title Buy or Sell Quantity Security Type Price Proceeds Transaction Conviction Position Quantity Position Value Positon Conviction SEC Link Nature of Ownership
2020-07-02Horizon Kinetics Asset Management Llc-Buy236Common Stock$577.39-$136,264.04  0.30     [ Average ]280,849$162,159,404.11  362.11   [Very High]Form 4-
2020-07-06Horizon Kinetics Asset Management Llc-Buy236Common Stock$569.99-$134,517.64  0.30     [ Average ]281,085$160,215,639.15  362.41   [Very High]Form 4-
2020-07-07Horizon Kinetics Asset Management Llc-Buy172Common Stock$549.76-$94,558.72  0.22     [ Low ]281,257$154,623,848.32  362.63   [Very High]Form 4-
2020-07-15Horizon Kinetics Asset Management Llc-Buy172Common Stock$596.73-$102,637.56  0.22     [ Low ]282,295$168,453,895.35  363.97   [Very High]Form 4-
2020-07-08Horizon Kinetics Asset Management Llc-Buy172Common Stock$561.01-$96,493.72  0.22     [ Low ]281,429$157,884,483.29  362.85   [Very High]Form 4-
2020-06-30Horizon Kinetics Asset Management Llc-Buy236Common Stock$594.69-$140,346.84  0.30     [ Average ]280,377$166,737,398.13  361.50   [Very High]Form 4-
2020-07-09Horizon Kinetics Asset Management Llc-Buy178Common Stock$542.59-$96,581.02  0.23     [ Low ]281,607$152,797,142.13  363.08   [Very High]Form 4-
2020-04-03Horizon Kinetics Asset Management Llc-Buy3Common Stock$457.87-$1,373.61  -319,638$146,352,651.06  412.12   [Very High]Form 4-
2020-04-06Horizon Kinetics Asset Management Llc-Buy1Common Stock$475.03-$475.03  -319,639$151,838,114.17  412.12   [Very High]Form 4-
2020-04-07Horizon Kinetics Asset Management Llc-Buy1Common Stock$457.04-$457.04  -319,640$146,088,265.60  412.12   [Very High]Form 4-
2020-04-08Horizon Kinetics Asset Management Llc-Buy1Common Stock$471.03-$471.03  -319,641$150,560,500.23  412.12   [Very High]Form 4-
2020-04-09Horizon Kinetics Asset Management Llc-Buy1Common Stock$513.24-$513.24  -319,642$164,053,060.08  412.12   [Very High]Form 4-
2020-04-13Horizon Kinetics Asset Management Llc-Buy1Common Stock$515.10-$515.10  -319,643$164,648,109.30  412.12   [Very High]Form 4-
2020-04-14Horizon Kinetics Asset Management Llc-Buy1Common Stock$535.53-$535.53  -319,644$171,178,951.32  412.12   [Very High]Form 4-
2020-05-14Horizon Kinetics Asset Management Llc-Buy414Common Stock$519.97-$215,267.58  0.53     [ Average ]321,407$167,121,997.79  414.40   [Very High]Form 4-
2020-05-15Horizon Kinetics Asset Management Llc-Buy5Common Stock$524.35-$2,621.75  -321,412$168,532,382.20  414.40   [Very High]Form 4-
2020-07-10Horizon Kinetics Asset Management Llc-Buy172Common Stock$547.00-$94,084.00  0.22     [ Low ]281,779$154,133,113.00  363.30   [Very High]Form 4-
2020-05-07Horizon Kinetics Asset Management Llc-Buy8Common Stock$493.03-$3,944.24  -319,652$157,598,025.56  412.14   [Very High]Form 4-
2020-05-08Horizon Kinetics Asset Management Llc-Buy176Common Stock$521.55-$91,792.80  0.23     [ Low ]319,828$166,806,293.40  412.36   [Very High]Form 4-
2020-05-11Horizon Kinetics Asset Management Llc-Buy288Common Stock$520.19-$149,814.72  0.37     [ Average ]320,116$166,521,142.04  412.73   [Very High]Form 4-
2020-05-12Horizon Kinetics Asset Management Llc-Buy463Common Stock$524.01-$242,616.63  0.60     [ Average ]320,579$167,986,601.79  413.33   [Very High]Form 4-
2020-05-13Horizon Kinetics Asset Management Llc-Buy414Common Stock$511.71-$211,847.94  0.53     [ Average ]320,993$164,255,328.03  413.86   [Very High]Form 4-
2020-07-13Horizon Kinetics Asset Management Llc-Buy172Common Stock$537.02-$92,367.44  0.22     [ Low ]281,951$151,413,326.02  363.53   [Very High]Form 4-
2020-06-12Horizon Kinetics Asset Management Llc-Buy238Common Stock$627.00-$149,226.00  0.31     [ Average ]276,840$173,578,680.00  356.94   [Very High]Form 4-
2020-06-15Horizon Kinetics Asset Management Llc-Buy236Common Stock$625.57-$147,634.52  0.30     [ Average ]277,085$173,336,063.45  357.25   [Very High]Form 4-
2020-07-14Horizon Kinetics Asset Management Llc-Buy172Common Stock$585.18-$100,650.96  0.22     [ Low ]282,123$165,092,737.14  363.75   [Very High]Form 4-
2020-06-16Horizon Kinetics Asset Management Llc-Buy236Common Stock$641.35-$151,358.60  -277,321$177,859,823.35  -Form 4-
2020-06-17Horizon Kinetics Asset Management Llc-Buy236Common Stock$625.12-$147,528.32  -277,557$173,506,431.84  -Form 4-
2020-06-18Horizon Kinetics Asset Management Llc-Buy236Common Stock$614.90-$145,116.40  -277,793$170,814,915.70  -Form 4-
2020-06-19Horizon Kinetics Asset Management Llc-Buy936Common Stock$624.04-$584,101.44  1.21     [ High ]278,729$173,938,045.16  359.37   [Very High]Form 4-
2020-06-22Horizon Kinetics Asset Management Llc-Buy236Common Stock$614.11-$144,929.96  -278,965$171,315,196.15  -Form 4-
2020-06-23Horizon Kinetics Asset Management Llc-Buy236Common Stock$599.95-$141,588.20  -279,201$167,506,639.95  -Form 4-
2020-06-24Horizon Kinetics Asset Management Llc-Buy236Common Stock$572.00-$134,992.00  -279,437$159,837,964.00  -Form 4-
2020-06-25Horizon Kinetics Asset Management Llc-Buy232Common Stock$584.27-$135,550.64  -279,669$163,402,206.63  -Form 4-
2020-06-29Horizon Kinetics Asset Management Llc-Buy236Common Stock$570.01-$134,522.36  -280,141$159,683,171.41  -Form 4-
2020-07-01Horizon Kinetics Asset Management Llc-Buy236Common Stock$578.40-$136,502.40  0.30     [ Average ]280,613$162,306,559.20  361.80   [Very High]Form 4-
2020-07-15Horizon Kinetics Asset Management Llc-Buy172Common Stock$596.73-$102,637.56  0.22     [ Low ]282,295$168,453,895.35  363.97   [Very High]Form 4-
2020-07-16Horizon Kinetics Asset Management Llc-Buy172Common Stock$582.43-$100,177.96  0.22     [ Low ]282,467$164,517,254.81  364.19   [Very High]Form 4-
2020-07-17Horizon Kinetics Asset Management Llc-Buy172Common Stock$585.71-$100,742.12  0.22     [ Low ]282,639$165,544,488.69  364.41   [Very High]Form 4-
2020-07-20Horizon Kinetics Asset Management Llc-Buy172Common Stock$575.01-$98,901.72  0.22     [ Low ]282,811$162,619,153.11  364.64   [Very High]Form 4-
2020-07-21Horizon Kinetics Asset Management Llc-Buy12Common Stock$582.00-$6,984.00  0.02     [ Very Low ]282,823$164,602,986.00  364.65   [Very High]Form 4-
2020-07-22Horizon Kinetics Asset Management Llc-Buy12Common Stock$573.82-$6,885.84  0.02     [ Very Low ]282,835$162,296,379.70  364.67   [Very High]Form 4-
2020-07-23Horizon Kinetics Asset Management Llc-Buy14Common Stock$568.80-$7,963.20  0.02     [ Very Low ]282,849$160,884,511.20  364.68   [Very High]Form 4-
2020-07-24Horizon Kinetics Asset Management Llc-Buy12Common Stock$560.02-$6,720.24  0.02     [ Very Low ]276,344$154,758,166.88  356.30   [Very High]Form 4-
2020-07-27Horizon Kinetics Asset Management Llc-Buy12Common Stock$555.00-$6,660.00  0.02     [ Very Low ]276,356$153,377,580.00  356.31   [Very High]Form 4-
2020-07-28Horizon Kinetics Asset Management Llc-Buy12Common Stock$548.99-$6,587.88  0.02     [ Very Low ]276,368$151,723,268.32  356.33   [Very High]Form 4-
2020-07-29Horizon Kinetics Asset Management Llc-Buy12Common Stock$562.00-$6,744.00  0.02     [ Very Low ]276,380$155,325,560.00  356.34   [Very High]Form 4-
2020-07-30Horizon Kinetics Asset Management Llc-Buy12Common Stock$554.57-$6,654.84  0.02     [ Very Low ]276,392$153,278,711.44  356.36   [Very High]Form 4-
2020-07-31Horizon Kinetics Asset Management Llc-Buy16Common Stock$532.99-$8,527.84  0.02     [ Very Low ]276,408$147,322,699.92  356.38   [Very High]Form 4-
2020-08-03Horizon Kinetics Asset Management Llc-Buy12Common Stock$539.99-$6,479.88  0.02     [ Very Low ]276,420$149,264,035.80  356.40   [Very High]Form 4-
2020-08-04Horizon Kinetics Asset Management Llc-Buy12Common Stock$564.40-$6,772.80  0.02     [ Very Low ]276,432$156,018,220.80  356.41   [Very High]Form 4-
2020-08-05Horizon Kinetics Asset Management Llc-Buy16Common Stock$602.00-$9,632.00  0.02     [ Very Low ]276,448$166,421,696.00  356.43   [Very High]Form 4-
2020-08-06Horizon Kinetics Asset Management Llc-Buy14Common Stock$576.90-$8,076.60  0.02     [ Very Low ]276,462$159,490,927.80  356.45   [Very High]Form 4-
2020-08-07Horizon Kinetics Asset Management Llc-Buy8Common Stock$584.00-$4,672.00  -276,470$161,458,480.00  356.46   [Very High]Form 4-
2020-08-10Horizon Kinetics Asset Management Llc-Buy16Common Stock$599.00-$9,584.00  0.02     [ Very Low ]276,486$165,615,114.00  356.48   [Very High]Form 4-
2020-08-11Horizon Kinetics Asset Management Llc-Buy30Common Stock$588.20-$17,646.00  0.04     [ Very Low ]276,516$162,646,711.20  356.52   [Very High]Form 4-
2020-08-12Horizon Kinetics Asset Management Llc-Buy48Common Stock$590.01-$28,320.48  0.06     [ Very Low ]276,564$163,175,525.64  356.58   [Very High]Form 4-
2020-08-13Horizon Kinetics Asset Management Llc-Buy26Common Stock$588.99-$15,313.74  0.03     [ Very Low ]276,590$162,908,744.10  356.61   [Very High]Form 4-
2020-08-14Horizon Kinetics Asset Management Llc-Buy12Common Stock$600.00-$7,200.00  0.02     [ Very Low ]276,602$165,961,200.00  356.63   [Very High]Form 4-
2020-08-17Horizon Kinetics Asset Management Llc-Buy12Common Stock$596.74-$7,160.88  0.02     [ Very Low ]276,614$165,066,638.36  356.65   [Very High]Form 4-
2020-08-18Horizon Kinetics Asset Management Llc-Buy12Common Stock$587.35-$7,048.20  0.02     [ Very Low ]276,626$162,476,281.10  356.66   [Very High]Form 4-
2020-08-19Horizon Kinetics Asset Management Llc-Buy12Common Stock$572.11-$6,865.32  -276,638$158,267,366.18  -Form 4-
2020-08-20Horizon Kinetics Asset Management Llc-Buy12Common Stock$559.47-$6,713.64  0.02     [ Very Low ]276,650$154,777,375.50  356.69   [Very High]Form 4-
2020-08-21Horizon Kinetics Asset Management Llc-Buy12Common Stock$552.51-$6,630.12  0.02     [ Very Low ]276,662$152,858,521.62  356.71   [Very High]Form 4-
2020-08-24Horizon Kinetics Asset Management Llc-Buy12Common Stock$543.08-$6,516.96  0.02     [ Very Low ]276,674$150,256,115.92  356.72   [Very High]Form 4-
2020-08-25Horizon Kinetics Asset Management Llc-Buy44Common Stock$545.14-$23,986.16  0.06     [ Very Low ]276,718$150,850,050.52  356.78   [Very High]Form 4-
2020-08-26Horizon Kinetics Asset Management Llc-Buy12Common Stock$542.78-$6,513.36  0.02     [ Very Low ]276,730$150,203,509.40  356.79   [Very High]Form 4-
2020-08-27Horizon Kinetics Asset Management Llc-Buy12Common Stock$537.74-$6,452.88  0.02     [ Very Low ]276,742$148,815,243.08  356.81   [Very High]Form 4-
2020-08-31Horizon Kinetics Asset Management Llc-Buy12Common Stock$526.72-$6,320.64  0.02     [ Very Low ]276,766$145,778,187.52  356.84   [Very High]Form 4-
2020-09-01Horizon Kinetics Asset Management Llc-Buy14Common Stock$536.72-$7,514.08  0.02     [ Very Low ]276,780$148,553,361.60  356.86   [Very High]Form 4-
2020-09-02Horizon Kinetics Asset Management Llc-Buy14Common Stock$537.80-$7,529.20  0.02     [ Very Low ]276,794$148,859,813.20  356.88   [Very High]Form 4-
2020-09-03Horizon Kinetics Asset Management Llc-Buy14Common Stock$527.32-$7,382.48  0.02     [ Very Low ]276,808$145,966,394.56  356.90   [Very High]Form 4-
2020-09-04Horizon Kinetics Asset Management Llc-Buy14Common Stock$510.69-$7,149.66  0.02     [ Very Low ]276,822$141,370,227.18  356.91   [Very High]Form 4-
2020-09-08Horizon Kinetics Asset Management Llc-Buy14Common Stock$494.03-$6,916.42  0.02     [ Very Low ]276,836$136,765,289.08  356.93   [Very High]Form 4-
2020-09-10Horizon Kinetics Asset Management Llc-Buy5Common Stock$481.00-$2,405.00  -276,841$133,160,521.00  356.94   [Very High]Form 4-
2020-09-16Horizon Kinetics Asset Management Llc-Buy4Common Stock$458.56-$1,834.24  -276,845$126,950,043.20  356.94   [Very High]Form 4-
2020-09-17Horizon Kinetics Asset Management Llc-Buy14Common Stock$459.42-$6,431.88  0.02     [ Very Low ]276,859$127,194,561.78  356.96   [Very High]Form 4-
2020-09-18Horizon Kinetics Asset Management Llc-Buy14Common Stock$457.99-$6,411.86  0.02     [ Very Low ]276,873$126,805,065.27  356.98   [Very High]Form 4-
2020-09-21Horizon Kinetics Asset Management Llc-Buy14Common Stock$459.56-$6,433.84  0.02     [ Very Low ]276,887$127,246,189.72  357.00   [Very High]Form 4-
2020-09-22Horizon Kinetics Asset Management Llc-Buy14Common Stock$461.00-$6,454.00  0.02     [ Very Low ]276,901$127,651,361.00  357.02   [Very High]Form 4-
2020-09-23Horizon Kinetics Asset Management Llc-Buy14Common Stock$441.70-$6,183.80  0.02     [ Very Low ]276,915$122,313,355.50  357.03   [Very High]Form 4-
2020-09-24Horizon Kinetics Asset Management Llc-Buy14Common Stock$457.02-$6,398.28  0.02     [ Very Low ]276,929$126,562,091.58  357.05   [Very High]Form 4-
2020-09-25Horizon Kinetics Asset Management Llc-Buy14Common Stock$451.00-$6,314.00  0.02     [ Very Low ]276,943$124,901,293.00  357.07   [Very High]Form 4-
2020-09-28Horizon Kinetics Asset Management Llc-Buy14Common Stock$461.48-$6,460.72  0.02     [ Very Low ]276,957$127,810,116.36  357.09   [Very High]Form 4-
2020-09-28Murray StahlPresident & CEOBuy75Common Stock$1.31-$98.25  0.10     [ Low ]39,309$51,494.79  50.68    [High]Form 4By Fromex Equity Corp
2020-09-28Murray StahlPresident & CEOBuy300Common Stock$1.31-$393.00  0.39     [ Average ]39,609$51,887.79  51.07    [High]Form 4By FRMO Corp
2020-09-28Murray StahlPresident & CEOBuy300Common Stock$1.31-$393.00  0.39     [ Average ]39,909$52,280.79  51.46    [High]Form 4By Horizon Common Inc
2020-09-29Horizon Kinetics Asset Management Llc-Buy14Common Stock$452.06-$6,328.84  0.02     [ Very Low ]276,971$125,207,510.26  357.11   [Very High]Form 4-
2020-09-30Horizon Kinetics Asset Management Llc-Buy14Common Stock$451.56-$6,321.84  0.02     [ Very Low ]276,985$125,075,346.60  357.12   [Very High]Form 4-
2020-10-01Horizon Kinetics Asset Management Llc-Buy14Common Stock$450.20-$6,302.80  0.02     [ Very Low ]276,999$124,704,949.80  357.14   [Very High]Form 4-
2020-10-02Horizon Kinetics Asset Management Llc-Buy14Common Stock$448.10-$6,273.40  0.02     [ Very Low ]277,013$124,129,525.30  357.16   [Very High]Form 4-
2020-10-05Horizon Kinetics Asset Management Llc-Buy14Common Stock$455.11-$6,371.54  0.02     [ Very Low ]277,027$126,077,757.97  357.18   [Very High]Form 4-
2020-10-06Horizon Kinetics Asset Management Llc-Buy14Common Stock$460.22-$6,443.08  0.02     [ Very Low ]277,041$127,499,809.02  357.20   [Very High]Form 4-
2020-10-07Horizon Kinetics Asset Management Llc-Buy14Common Stock$472.98-$6,621.72  0.02     [ Very Low ]277,055$131,041,473.90  357.21   [Very High]Form 4-
2020-10-08Horizon Kinetics Asset Management Llc-Buy14Common Stock$484.73-$6,786.22  0.02     [ Very Low ]277,069$134,303,656.37  357.23   [Very High]Form 4-
2020-10-09Horizon Kinetics Asset Management Llc-Buy14Common Stock$466.60-$6,532.40  0.02     [ Very Low ]277,083$129,286,927.80  357.25   [Very High]Form 4-
2020-10-12Horizon Kinetics Asset Management Llc-Buy14Common Stock$471.99-$6,607.86  0.02     [ Very Low ]277,097$130,787,013.03  357.27   [Very High]Form 4-
2020-10-13Horizon Kinetics Asset Management Llc-Buy14Common Stock$459.65-$6,435.10  0.02     [ Very Low ]277,111$127,374,071.15  357.29   [Very High]Form 4-
2020-10-14Horizon Kinetics Asset Management Llc-Buy15Common Stock$465.01-$6,975.15  0.02     [ Very Low ]277,126$128,866,361.26  357.31   [Very High]Form 4-
2020-10-15Horizon Kinetics Asset Management Llc-Buy14Common Stock$481.42-$6,739.88  0.02     [ Very Low ]277,140$133,420,738.80  357.32   [Very High]Form 4-
2020-10-16Horizon Kinetics Asset Management Llc-Buy14Common Stock$469.42-$6,571.88  0.02     [ Very Low ]277,154$130,101,630.68  357.34   [Very High]Form 4-
2020-10-19Horizon Kinetics Asset Management Llc-Buy14Common Stock$472.00-$6,608.00  0.02     [ Very Low ]277,168$130,823,296.00  357.36   [Very High]Form 4-
2020-10-20Horizon Kinetics Asset Management Llc-Buy14Common Stock$469.98-$6,579.72  0.02     [ Very Low ]277,182$130,269,996.36  357.38   [Very High]Form 4-
2020-10-21Horizon Kinetics Asset Management Llc-Buy14Common Stock$463.05-$6,482.70  0.02     [ Very Low ]277,196$128,355,607.80  357.40   [Very High]Form 4-
2020-10-22Horizon Kinetics Asset Management Llc-Buy14Common Stock$479.17-$6,708.38  0.02     [ Very Low ]277,210$132,830,715.70  357.41   [Very High]Form 4-
2020-10-23Horizon Kinetics Asset Management Llc-Buy14Common Stock$477.98-$6,691.72  0.02     [ Very Low ]277,224$132,507,527.52  357.43   [Very High]Form 4-
2020-10-26Horizon Kinetics Asset Management Llc-Buy14Common Stock$472.98-$6,621.72  0.02     [ Very Low ]277,238$131,128,029.24  357.45   [Very High]Form 4-
2020-10-27Horizon Kinetics Asset Management Llc-Buy14Common Stock$463.20-$6,484.80  0.02     [ Very Low ]277,252$128,423,126.40  357.47   [Very High]Form 4-
2020-10-28Horizon Kinetics Asset Management Llc-Buy14Common Stock$449.49-$6,292.86  0.02     [ Very Low ]277,266$124,628,294.34  357.49   [Very High]Form 4-
2020-10-29Horizon Kinetics Asset Management Llc-Buy14Common Stock$464.62-$6,504.68  0.02     [ Very Low ]277,280$128,829,833.60  357.50   [Very High]Form 4-
2020-10-30Horizon Kinetics Asset Management Llc-Buy14Common Stock$450.41-$6,305.74  0.02     [ Very Low ]277,294$124,895,990.54  357.52   [Very High]Form 4-
2020-11-02Horizon Kinetics Asset Management Llc-Buy14Common Stock$465.44-$6,516.16  0.02     [ Very Low ]277,308$129,070,235.52  357.54   [Very High]Form 4-
2020-11-03Horizon Kinetics Asset Management Llc-Buy19Common Stock$483.99-$9,195.81  0.02     [ Very Low ]277,327$134,223,494.73  357.56   [Very High]Form 4-
2020-11-04Horizon Kinetics Asset Management Llc-Buy18Common Stock$474.51-$8,541.18  0.02     [ Very Low ]277,345$131,602,975.95  357.59   [Very High]Form 4-
2020-11-05Horizon Kinetics Asset Management Llc-Buy14Common Stock$506.83-$7,095.62  0.02     [ Very Low ]277,359$140,573,861.97  357.61   [Very High]Form 4-
2020-11-06Horizon Kinetics Asset Management Llc-Buy14Common Stock$497.58-$6,966.12  0.02     [ Very Low ]277,373$138,015,257.34  357.62   [Very High]Form 4-
2020-11-09Horizon Kinetics Asset Management Llc-Buy19Common Stock$574.98-$10,924.62  0.02     [ Very Low ]277,392$159,494,852.16  357.65   [Very High]Form 4-
2020-11-10Horizon Kinetics Asset Management Llc-Buy19Common Stock$556.02-$10,564.38  0.02     [ Very Low ]277,411$154,246,064.22  357.67   [Very High]Form 4-
2020-11-11Horizon Kinetics Asset Management Llc-Buy19Common Stock$540.25-$10,264.75  0.02     [ Very Low ]277,430$149,881,557.50  357.70   [Very High]Form 4-
2020-11-10Murray StahlPresident & CEOBuy75Common Stock$1.46-$109.50  0.10     [ Low ]60,234$87,941.64  77.66    [High]Form 4By Fromex Equity Corp
2020-11-10Murray StahlPresident & CEOBuy300Common Stock$1.46-$438.00  0.39     [ Average ]60,534$88,379.64  78.05    [High]Form 4By FRMO Corp
2020-11-10Murray StahlPresident & CEOBuy300Common Stock$1.46-$438.00  0.39     [ Average ]60,834$88,817.64  78.43    [High]Form 4By Horizon Common Inc
2020-11-11Murray StahlPresident & CEOBuy75Common Stock$1.47-$110.25  0.10     [ Low ]60,909$89,536.23  78.53    [High]Form 4By Fromex Equity Corp
2020-11-11Murray StahlPresident & CEOBuy300Common Stock$1.47-$441.00  0.39     [ Average ]61,209$89,977.23  78.92    [High]Form 4By FRMO Corp
2020-11-11Murray StahlPresident & CEOBuy300Common Stock$1.47-$441.00  0.39     [ Average ]61,509$90,418.23  79.31    [High]Form 4By Horizon Common Inc
2020-11-12Horizon Kinetics Asset Management Llc-Buy14Common Stock$537.22-$7,521.08  0.02     [ Very Low ]277,444$149,048,465.68  357.72   [Very High]Form 4-
2020-11-13Horizon Kinetics Asset Management Llc-Buy14Common Stock$549.85-$7,697.90  0.02     [ Very Low ]277,482$152,573,477.70  357.76   [Very High]Form 4-
2020-11-16Horizon Kinetics Asset Management Llc-Buy18Common Stock$579.99-$10,439.82  0.02     [ Very Low ]277,500$160,947,225.00  357.79   [Very High]Form 4-
2020-11-17Horizon Kinetics Asset Management Llc-Buy14Common Stock$584.87-$8,188.18  0.02     [ Very Low ]277,514$162,309,613.18  357.81   [Very High]Form 4-
2020-11-25Horizon Kinetics Asset Management Llc-Buy19Common Stock$623.19-$11,840.61  0.02     [ Very Low ]277,551$172,967,007.69  357.85   [Very High]Form 4-
2020-11-27Horizon Kinetics Asset Management Llc-Buy23Common Stock$589.00-$13,547.00  0.03     [ Very Low ]277,574$163,491,086.00  357.88   [Very High]Form 4-
2020-11-27Murray StahlPresident & CEOBuy75Common Stock$1.57-$117.75  0.10     [ Low ]68,334$107,284.38  88.10    [Very High]Form 4By Fromex Equity Corp
2020-11-27Murray StahlPresident & CEOBuy300Common Stock$1.56-$468.00  0.39     [ Average ]68,634$107,069.04  88.49    [Very High]Form 4By FRMO Corp
2020-11-27Murray StahlPresident & CEOBuy300Common Stock$1.56-$468.00  0.39     [ Average ]68,934$107,537.04  88.88    [Very High]Form 4By Horizon Common Inc
2020-11-30Horizon Kinetics Asset Management Llc-Buy19Common Stock$609.92-$11,588.48  0.02     [ Very Low ]277,593$169,309,522.56  357.91   [Very High]Form 4-
2020-12-01Horizon Kinetics Asset Management Llc-Buy26Common Stock$614.01-$15,964.26  0.03     [ Very Low ]277,619$170,460,842.19  357.94   [Very High]Form 4-
2020-12-02Horizon Kinetics Asset Management Llc-Buy26Common Stock$620.20-$16,125.20  0.03     [ Very Low ]277,645$172,195,429.00  357.97   [Very High]Form 4-
2020-12-14Horizon Kinetics Asset Management Llc-Buy14Common Stock$684.00-$9,576.00  0.02     [ Very Low ]277,659$189,918,756.00  357.99   [Very High]Form 4-
2020-12-15Horizon Kinetics Asset Management Llc-Buy14Common Stock$700.00-$9,800.00  0.02     [ Very Low ]277,673$194,371,100.00  358.01   [Very High]Form 4-
2020-12-16Horizon Kinetics Asset Management Llc-Buy14Common Stock$719.90-$10,078.60  0.02     [ Very Low ]277,687$199,906,871.30  358.03   [Very High]Form 4-
2020-12-17Horizon Kinetics Asset Management Llc-Buy21Common Stock$723.53-$15,194.13  0.03     [ Very Low ]277,708$200,930,069.24  358.06   [Very High]Form 4-
2020-12-18Horizon Kinetics Asset Management Llc-Buy21Common Stock$740.62-$15,553.02  0.03     [ Very Low ]277,729$205,691,651.98  358.08   [Very High]Form 4-
2020-12-21Horizon Kinetics Asset Management Llc-Buy19Common Stock$724.50-$13,765.50  0.02     [ Very Low ]277,748$201,228,426.00  358.11   [Very High]Form 4-
2020-12-22Horizon Kinetics Asset Management Llc-Buy20Common Stock$700.00-$14,000.00  0.03     [ Very Low ]277,768$194,437,600.00  358.13   [Very High]Form 4-
2020-12-23Horizon Kinetics Asset Management Llc-Buy20Common Stock$698.84-$13,976.80  0.03     [ Very Low ]277,788$194,129,365.92  358.16   [Very High]Form 4-
2020-12-24Horizon Kinetics Asset Management Llc-Buy20Common Stock$692.00-$13,840.00  0.03     [ Very Low ]277,808$192,243,136.00  358.18   [Very High]Form 4-
2020-12-28Horizon Kinetics Asset Management Llc-Buy20Common Stock$694.00-$13,880.00  0.03     [ Very Low ]277,828$192,812,632.00  358.21   [Very High]Form 4-
2020-12-29Horizon Kinetics Asset Management Llc-Buy20Common Stock$686.06-$13,721.20  0.03     [ Very Low ]277,848$190,620,398.88  358.24   [Very High]Form 4-
2020-12-30Horizon Kinetics Asset Management Llc-Buy20Common Stock$723.49-$14,469.80  0.03     [ Very Low ]277,868$201,034,719.32  358.26   [Very High]Form 4-
2020-12-31Horizon Kinetics Asset Management Llc-Buy20Common Stock$727.00-$14,540.00  0.03     [ Very Low ]277,888$202,024,576.00  358.29   [Very High]Form 4-
2021-01-04Horizon Kinetics Asset Management Llc-Buy44Common Stock$756.56-$33,288.64  0.06     [ Very Low ]281,534$212,997,363.04  362.99   [Very High]Form 4-
2021-01-05Horizon Kinetics Asset Management Llc-Buy44Common Stock$795.00-$34,980.00  0.06     [ Very Low ]281,578$223,854,510.00  363.05   [Very High]Form 4-
2021-01-06Horizon Kinetics Asset Management Llc-Buy44Common Stock$793.02-$34,892.88  0.06     [ Very Low ]281,622$223,331,878.44  363.10   [Very High]Form 4-
2021-01-07Horizon Kinetics Asset Management Llc-Buy44Common Stock$778.68-$34,261.92  0.06     [ Very Low ]281,666$219,327,680.88  363.16   [Very High]Form 4-
2021-01-08Horizon Kinetics Asset Management Llc-Buy44Common Stock$801.00-$35,244.00  0.06     [ Very Low ]281,710$225,649,710.00  363.22   [Very High]Form 4-
2021-01-11Murray Stahl-Buy3Common Stock$869.50-$2,608.50  -1,172$1,019,054.00  0.11     [Very Low]Form 4-
2021-01-11Murray Stahl-Buy2Common Stock$869.50-$1,739.00  -1,174$1,020,793.00  0.11     [Very Low]Form 4-
2021-01-11Murray Stahl-Buy10Common Stock$869.50-$8,695.00  -617$536,481.50  0.06     [Very Low]Form 4By Horizon Common Inc.
2021-01-11Murray Stahl-Buy1Common Stock$869.50-$869.50  -1,435$1,247,732.50  0.14     [Very Low]Form 4By Bermuda Liquidators II LLC
2021-01-11Murray Stahl-Buy2Common Stock$869.50-$1,739.00  -99,827$86,799,576.50  9.51     [Average]Form 4By Horizon Kinetics Hard Assets, LLC
2021-01-11Murray Stahl-Buy1Common Stock$869.50-$869.50  -2,450$2,130,275.00  0.23     [Very Low]Form 4By CDK Partners LP
2021-01-11Murray Stahl-Buy2Common Stock$869.50-$1,739.00  -5,381$4,678,779.50  0.51     [Very Low]Form 4By CDK Fund Ltd.
2021-01-11Murray Stahl-Buy8Common Stock$869.50-$6,956.00  -1,238$1,076,441.00  0.12     [Very Low]Form 4By Horizon Credit Opportunity Fund
2021-01-11Murray Stahl-Buy2Common Stock$869.50-$1,739.00  -42,675$37,105,912.50  4.07     [Low]Form 4By Polestar Offshore Fund
2021-01-11Murray Stahl-Buy30Common Stock$869.50-$26,085.00  -226,680$197,098,260.00  21.60    [High]Form 4By Horizon Kinetics Asset Management LLC
2021-01-12Murray Stahl-Buy10Common Stock$880.89-$8,808.90  -627$552,318.03  0.06     [Very Low]Form 4By Horizon Common Inc.
2021-01-12Murray Stahl-Buy3Common Stock$880.89-$2,642.67  -1,177$1,036,807.53  0.11     [Very Low]Form 4-
2021-01-12Murray Stahl-Buy2Common Stock$880.89-$1,761.78  -1,179$1,038,569.31  0.11     [Very Low]Form 4-
2021-01-12Murray Stahl-Buy2Common Stock$880.89-$1,761.78  -99,829$87,938,367.81  9.51     [Average]Form 4By Horizon Kinetics Hard Assets, LLC
2021-01-12Murray Stahl-Buy1Common Stock$880.89-$880.89  -1,436$1,264,958.04  0.14     [Very Low]Form 4By Bermuda Liquidators II LLC
2021-01-12Murray Stahl-Buy1Common Stock$880.89-$880.89  -2,451$2,159,061.39  0.23     [Very Low]Form 4By CDK Partners LP
2021-01-12Murray Stahl-Buy2Common Stock$880.89-$1,761.78  -5,383$4,741,830.87  0.51     [Very Low]Form 4By CDK Fund Ltd.
2021-01-12Murray Stahl-Buy8Common Stock$880.89-$7,047.12  -1,246$1,097,588.94  0.12     [Very Low]Form 4By Horizon Credit Opportunity Fund
2021-01-12Murray Stahl-Buy2Common Stock$880.89-$1,761.78  -42,677$37,593,742.53  4.07     [Low]Form 4By Polestar Offshore Fund
2021-01-12Murray Stahl-Buy30Common Stock$880.89-$26,426.70  -226,710$199,706,571.90  21.60    [High]Form 4By Horizon Kinetics Asset Management LLC
2021-01-13Murray Stahl-Buy1Common Stock$834.20-$834.20  -1,437$1,198,745.40  1.85     [Low]Form 4By Bermuda Liquidators II LLC
2021-01-13Murray Stahl-Buy2Common Stock$834.20-$1,668.40  -99,851$83,295,704.20  128.74   [Very High]Form 4By Horizon Kinetics Hard Assets, LLC
2021-01-13Murray Stahl-Buy10Common Stock$834.20-$8,342.00  -637$531,385.40  0.82     [Very Low]Form 4By Horizon Common Inc.
2021-01-13Murray Stahl-Buy3Common Stock$834.20-$2,502.60  -1,182$986,024.40  1.52     [Low]Form 4-
2021-01-13Murray Stahl-Buy2Common Stock$834.20-$1,668.40  -1,184$987,692.80  1.53     [Low]Form 4-
2021-01-13Murray Stahl-Buy1Common Stock$834.20-$834.20  -2,452$2,045,458.40  3.16     [Low]Form 4By CDK Partners LP
2021-01-13Murray Stahl-Buy2Common Stock$834.20-$1,668.40  -5,385$4,492,167.00  6.94     [Average]Form 4By CDK Fund Ltd
2021-01-13Murray Stahl-Buy8Common Stock$834.20-$6,673.60  -1,254$1,046,086.80  1.62     [Low]Form 4By Horizon Credit Opportunity Fund
2021-01-13Murray Stahl-Buy2Common Stock$834.20-$1,668.40  -42,679$35,602,821.80  55.03    [High]Form 4By Polestar Offshore Fund
2021-01-13Murray Stahl-Buy30Common Stock$834.20-$25,026.00  0.04     [ Very Low ]226,740$189,146,508.00  292.34   [Very High]Form 4By Horizon Kinetics Asset Management LLC
2021-01-14Murray Stahl-Buy1Common Stock$853.97-$853.97  -1,438$1,228,008.86  1.85     [Low]Form 4By Bermuda Liquidators II LLC
2021-01-14Murray Stahl-Buy2Common Stock$853.97-$1,707.94  -99,853$85,271,466.41  128.74   [Very High]Form 4By Horizon Kinetics Hard Assets, LLC
2021-01-14Murray Stahl-Buy10Common Stock$853.97-$8,539.70  -647$552,518.59  0.83     [Very Low]Form 4By Horizon Common Inc.
2021-01-14Murray Stahl-Buy3Common Stock$853.97-$2,561.91  -1,187$1,013,662.39  1.53     [Low]Form 4-
2021-01-14Murray Stahl-Buy2Common Stock$853.97-$1,707.94  -1,189$1,015,370.33  1.53     [Low]Form 4-
2021-01-14Murray Stahl-Buy1Common Stock$853.97-$853.97  -2,453$2,094,788.41  3.16     [Low]Form 4By CDK Partners LP
2021-01-14Murray Stahl-Buy2Common Stock$853.97-$1,707.94  -5,387$4,600,336.39  6.95     [Average]Form 4By CDK Fund Ltd
2021-01-14Murray Stahl-Buy8Common Stock$853.97-$6,831.76  -1,262$1,077,710.14  1.63     [Low]Form 4By Horizon Credit Opportunity Fund
2021-01-14Murray Stahl-Buy2Common Stock$853.97-$1,707.94  -42,681$36,448,293.57  55.03    [High]Form 4By Polestar Offshore Fund
2021-01-14Murray Stahl-Buy30Common Stock$853.97-$25,619.10  0.04     [ Very Low ]226,770$193,654,776.90  292.38   [Very High]Form 4By Horizon Kinetics Asset Management LLC
2021-01-15Murray Stahl-Buy2Common Stock$840.99-$1,681.98  -99,855$83,977,056.45  128.75   [Very High]Form 4By Horizon Kinetics Hard Assets LLC
2021-01-15Murray Stahl-Buy10Common Stock$840.99-$8,409.90  -657$552,530.43  0.85     [Very Low]Form 4By Horizon Common Inc.
2021-01-15Murray Stahl-Buy3Common Stock$840.99-$2,522.97  -1,192$1,002,460.08  1.54     [Low]Form 4-
2021-01-15Murray Stahl-Buy2Common Stock$840.99-$1,681.98  -1,194$1,004,142.06  1.54     [Low]Form 4-
2021-01-15Murray Stahl-Buy2Common Stock$840.99-$1,681.98  -42,683$35,895,976.17  55.03    [High]Form 4By Polestar Offshore Fund
2021-01-15Murray Stahl-Buy14Common Stock$840.99-$11,773.86  0.02     [ Very Low ]226,784$190,723,076.16  292.40   [Very High]Form 4By Horizon Kinetics Asset Management LLC
2021-01-19Murray Stahl-Buy2Common Stock$848.85-$1,697.70  -42,685$36,233,162.25  55.03    [High]Form 4By Polestar Offshore Fund
2021-01-19Murray Stahl-Buy2Common Stock$848.85-$1,697.70  -99,857$84,763,614.45  128.75   [Very High]Form 4By Horizon Kinetics Hard Assets LLC
2021-01-19Murray Stahl-Buy10Common Stock$848.85-$8,488.50  -667$566,182.95  0.86     [Very Low]Form 4By Horizon Common Inc.
2021-01-19Murray Stahl-Buy3Common Stock$848.85-$2,546.55  -1,197$1,016,073.45  1.54     [Low]Form 4-
2021-01-19Murray Stahl-Buy2Common Stock$848.85-$1,697.70  -1,199$1,017,771.15  1.55     [Low]Form 4-
2021-01-19Murray Stahl-Buy14Common Stock$848.85-$11,883.90  0.02     [ Very Low ]226,798$192,517,482.30  292.42   [Very High]Form 4By Horizon Kinetics Asset Management LLC
2021-01-20Murray Stahl-Buy10Common Stock$844.34-$8,443.40  -677$571,618.18  0.87     [Very Low]Form 4By Horizon Common Inc.
2021-01-20Murray Stahl-Buy2Common Stock$844.34-$1,688.68  -99,859$84,314,948.06  128.75   [Very High]Form 4By Horizon Kinetics Hard Assets LLC
2021-01-20Murray Stahl-Buy3Common Stock$844.34-$2,533.02  -1,202$1,014,896.68  1.55     [Low]Form 4-
2021-01-20Murray Stahl-Buy2Common Stock$844.34-$1,688.68  -1,204$1,016,585.36  1.55     [Low]Form 4-
2021-01-20Murray Stahl-Buy2Common Stock$844.34-$1,688.68  -42,687$36,042,341.58  55.04    [High]Form 4By Polestar Offshore Fund
2021-01-20Murray Stahl-Buy14Common Stock$844.34-$11,820.76  0.02     [ Very Low ]226,812$191,506,444.08  292.43   [Very High]Form 4By Horizon Kinetics Asset Management LLC
2021-01-21Murray Stahl-Buy2Common Stock$810.91-$1,621.82  -42,689$34,616,936.99  55.04    [High]Form 4By Polestar Offshore Fund
2021-01-21Murray Stahl-Buy2Common Stock$810.91-$1,621.82  -99,861$80,978,283.51  128.75   [Very High]Form 4By Horizon Kinetics Hard Assets, LLC
2021-01-21Murray Stahl-Buy10Common Stock$810.91-$8,109.10  -687$557,095.17  0.89     [Very Low]Form 4By Horizon Common Inc.
2021-01-21Murray Stahl-Buy3Common Stock$810.91-$2,432.73  -1,207$978,768.37  1.56     [Low]Form 4-
2021-01-21Murray Stahl-Buy2Common Stock$810.91-$1,621.82  -1,209$980,390.19  1.56     [Low]Form 4-
2021-01-21Murray Stahl-Buy10Common Stock$810.91-$8,109.10  -226,822$183,932,228.02  292.45   [Very High]Form 4By Horizon Kinetics Asset Management LLC
2021-01-22Murray Stahl-Buy2Common Stock$822.30-$1,644.60  -42,691$35,104,809.30  55.04    [High]Form 4By Polestar Offshore Fund
2021-01-22Murray Stahl-Buy2Common Stock$822.30-$1,644.60  -99,863$82,117,344.90  128.76   [Very High]Form 4By Horizon Kinetics Hard Assets, LLC
2021-01-22Murray Stahl-Buy10Common Stock$822.30-$8,223.00  -697$573,143.10  0.90     [Very Low]Form 4By Horizon Common Inc.
2021-01-22Murray Stahl-Buy3Common Stock$822.30-$2,466.90  -1,212$996,627.60  1.56     [Low]Form 4-
2021-01-22Murray Stahl-Buy2Common Stock$822.30-$1,644.60  -1,214$998,272.20  1.57     [Low]Form 4-
2021-01-22Murray Stahl-Buy10Common Stock$822.30-$8,223.00  -226,832$186,523,953.60  292.46   [Very High]Form 4By Horizon Kinetics Asset Management LLC
2021-01-25Murray Stahl-Buy2Common Stock$823.99-$1,647.98  -42,693$35,178,605.07  55.05    [High]Form 4By Polestar Offshore Fund
2021-01-25Murray Stahl-Buy2Common Stock$823.99-$1,647.98  -99,865$82,287,761.35  128.76   [Very High]Form 4By Horizon Kinetics Hard Assets, LLC
2021-01-25Murray Stahl-Buy10Common Stock$823.99-$8,239.90  -707$582,560.93  0.91     [Very Low]Form 4By Horizon Common Inc.
2021-01-25Murray Stahl-Buy3Common Stock$823.99-$2,471.97  -1,217$1,002,795.83  1.57     [Low]Form 4-
2021-01-25Murray Stahl-Buy2Common Stock$823.99-$1,647.98  -1,219$1,004,443.81  1.57     [Low]Form 4-
2021-01-25Murray Stahl-Buy10Common Stock$823.99-$8,239.90  -226,842$186,915,539.58  292.47   [Very High]Form 4By Horizon Kinetics Asset Management LLC
2021-01-26Murray Stahl-Buy2Common Stock$832.93-$1,665.86  -42,695$35,561,946.35  55.05    [High]Form 4By Polestar Offshore Fund
2021-01-26Murray Stahl-Buy2Common Stock$832.93-$1,665.86  -99,867$83,182,220.31  128.76   [Very High]Form 4By Horizon Kinetics Hard Assets, LLC
2021-01-26Murray Stahl-Buy10Common Stock$832.93-$8,329.30  -717$597,210.81  0.92     [Very Low]Form 4By Horizon Common Inc.
2021-01-26Murray Stahl-Buy3Common Stock$832.93-$2,498.79  -1,222$1,017,840.46  1.58     [Low]Form 4-
2021-01-26Murray Stahl-Buy2Common Stock$832.93-$1,665.86  -1,224$1,019,506.32  1.58     [Low]Form 4-
2021-01-26Murray Stahl-Buy1Common Stock$832.93-$832.93  -718$598,043.74  0.93     [Very Low]Form 4By Horizon Common Inc.
2021-01-26Murray Stahl-Buy10Common Stock$832.93-$8,329.30  -226,852$188,951,836.36  292.49   [Very High]Form 4By Horizon Kinetics Asset Management LLC
2021-01-27Murray Stahl-Buy14Common Stock$806.10-$11,285.40  0.02     [ Very Low ]42,709$34,427,724.90  55.07    [High]Form 4By Polestar Offshore Fund
2021-01-27Murray Stahl-Buy2Common Stock$806.10-$1,612.20  -99,869$80,504,400.90  128.76   [Very High]Form 4By Horizon Kinetics Hard Assets LLC
2021-01-27Murray Stahl-Buy10Common Stock$806.10-$8,061.00  -728$586,840.80  0.94     [Very Low]Form 4By Horizon Common Inc.
2021-01-27Murray Stahl-Buy3Common Stock$806.10-$2,418.30  -1,227$989,084.70  1.58     [Low]Form 4-
2021-01-27Murray Stahl-Buy2Common Stock$806.10-$1,612.20  -1,229$990,696.90  1.58     [Low]Form 4-
2021-01-27Murray Stahl-Buy1Common Stock$806.10-$806.10  -729$587,646.90  0.94     [Very Low]Form 4By Horizon Common Inc.
2021-01-27Murray Stahl-Buy40Common Stock$806.10-$32,244.00  0.05     [ Very Low ]226,892$182,897,641.20  292.54   [Very High]Form 4By Horizon Kinetics Asset Management LLC
2021-01-28Murray Stahl-Buy4Common Stock$835.00-$3,340.00  -42,713$35,665,355.00  55.07    [High]Form 4By Polestar Offshore Fund
2021-01-28Murray Stahl-Buy2Common Stock$835.00-$1,670.00  -99,871$83,392,285.00  128.77   [Very High]Form 4By Horizon Kinetics Hard Assets, LLC
2021-01-28Murray Stahl-Buy10Common Stock$835.00-$8,350.00  -739$617,065.00  0.95     [Very Low]Form 4By Horizon Common Inc.
2021-01-28Murray Stahl-Buy3Common Stock$835.00-$2,505.00  -1,232$1,028,720.00  1.59     [Low]Form 4-
2021-01-28Murray Stahl-Buy2Common Stock$835.00-$1,670.00  -1,234$1,030,390.00  1.59     [Low]Form 4-
2021-01-28Murray Stahl-Buy1Common Stock$835.00-$835.00  -740$617,900.00  0.95     [Very Low]Form 4By Horizon Common Inc.
2021-01-28Murray Stahl-Buy18Common Stock$835.00-$15,030.00  0.02     [ Very Low ]226,910$189,469,850.00  292.56   [Very High]Form 4By Horizon Kinetics Asset Management LLC
2021-01-29Murray Stahl-Buy10Common Stock$832.24-$8,322.40  -750$624,180.00  0.97     [Very Low]Form 4By Horizon Common Inc.
2021-01-29Murray Stahl-Buy1Common Stock$832.24-$832.24  -751$625,012.24  0.97     [Very Low]Form 4By Horizon Common Inc.
2021-01-29Murray Stahl-Buy2Common Stock$832.24-$1,664.48  -99,873$83,118,305.52  128.77   [Very High]Form 4By Horizon Kinetics Hard Assets, LLC
2021-01-29Murray Stahl-Buy3Common Stock$832.24-$2,496.72  -1,237$1,029,480.88  1.59     [Low]Form 4-
2021-01-29Murray Stahl-Buy2Common Stock$832.24-$1,664.48  -1,239$1,031,145.36  1.60     [Low]Form 4-
2021-01-29Murray Stahl-Buy4Common Stock$832.24-$3,328.96  -42,717$35,550,796.08  55.08    [High]Form 4By Polestar Offshore Fund
2021-01-29Murray Stahl-Buy18Common Stock$832.24-$14,980.32  0.02     [ Very Low ]226,928$188,858,558.72  292.58   [Very High]Form 4By Horizon Kinetics Asset Management LLC
2021-02-01Murray Stahl-Buy2Common Stock$834.00-$1,668.00  -99,875$83,295,750.00  128.77   [Very High]Form 4By Horizon Kinetics Hard Assets, LLC
2021-02-01Murray Stahl-Buy10Common Stock$834.00-$8,340.00  -761$634,674.00  0.98     [Very Low]Form 4By Horizon Common Inc
2021-02-01Murray Stahl-Buy1Common Stock$834.00-$834.00  -762$635,508.00  0.98     [Very Low]Form 4By Horizon Common Inc
2021-02-01Murray Stahl-Buy3Common Stock$834.00-$2,502.00  -1,242$1,035,828.00  1.60     [Low]Form 4-
2021-02-01Murray Stahl-Buy2Common Stock$834.00-$1,668.00  -1,244$1,037,496.00  1.60     [Low]Form 4-
2021-02-01Murray Stahl-Buy4Common Stock$834.00-$3,336.00  -42,721$35,629,314.00  55.08    [High]Form 4By Polestar Offshore Fund
2021-02-01Murray Stahl-Buy18Common Stock$834.00-$15,012.00  0.02     [ Very Low ]226,946$189,272,964.00  292.61   [Very High]Form 4By Horizon Kinetics Asset Management LLC
2021-02-01Murray Stahl-Sell170Common Stock$832.24$141,480.80  0.22     [ Low ]592$492,686.08  0.76     [Very Low]Form 4By Horizon Common Inc
2021-02-01Murray Stahl-Buy170Common Stock$832.24-$141,480.80  0.22     [ Low ]100,045$83,261,450.80  128.99   [Very High]Form 4By Horizon Kinetics Hard Assets, LLC
2021-02-01Murray Stahl-Sell51Common Stock$832.24$42,444.24  0.07     [ Very Low ]1,193$992,862.32  1.54     [Low]Form 4-
2021-02-01Murray Stahl-Buy51Common Stock$832.24-$42,444.24  0.07     [ Very Low ]100,096$83,303,895.04  129.06   [Very High]Form 4By Horizon Kinetics Hard Assets, LLC
2021-02-01Murray Stahl-Buy196Common Stock$832.24-$163,119.04  0.25     [ Low ]100,292$83,467,014.08  129.31   [Very High]Form 4By Horizon Kinetics Hard Assets, LLC
2021-02-02Murray Stahl-Buy2Common Stock$857.94-$1,715.88  -100,294$86,046,234.36  129.31   [Very High]Form 4By Horizon Kinetics Hard Assets LLC
2021-02-02Murray Stahl-Buy10Common Stock$857.94-$8,579.40  -602$516,479.88  0.78     [Very Low]Form 4By Horizon Common, Inc.
2021-02-02Murray Stahl-Buy1Common Stock$857.94-$857.94  -603$517,337.82  0.78     [Very Low]Form 4By Horizon Common, Inc.
2021-02-02Murray Stahl-Buy3Common Stock$857.94-$2,573.82  -1,196$1,026,096.24  1.54     [Low]Form 4-
2021-02-02Murray Stahl-Buy2Common Stock$857.94-$1,715.88  -1,198$1,027,812.12  1.54     [Low]Form 4-
2021-02-02Murray Stahl-Buy4Common Stock$857.94-$3,431.76  -42,725$36,655,486.50  55.09    [High]Form 4By Polestar Offshore Fund
2021-02-02Murray Stahl-Buy28Common Stock$857.94-$24,022.32  0.04     [ Very Low ]226,974$194,730,073.56  292.64   [Very High]Form 4By Horizon Kinetics Asset Management LLC
2021-02-02Murray Stahl-Sell34Common Stock$832.24$28,296.16  0.04     [ Very Low ]1,164$968,727.36  1.50     [Low]Form 4-
2021-02-02Murray Stahl-Buy34Common Stock$832.24-$28,296.16  0.04     [ Very Low ]100,328$83,496,974.72  129.36   [Very High]Form 4By Horizon Kinetics Hard Assets LLC
2021-02-02Murray Stahl-Buy45Common Stock$832.24-$37,450.80  0.06     [ Very Low ]100,373$83,534,425.52  129.41   [Very High]Form 4By Horizon Kinetics Hard Assets LLC
2021-02-03Murray Stahl-Buy2Common Stock$905.60-$1,811.20  -100,375$90,899,600.00  129.42   [Very High]Form 4By Horizon Kinetics Hard Assets LLC
2021-02-03Murray Stahl-Buy10Common Stock$905.60-$9,056.00  -613$555,132.80  0.79     [Very Low]Form 4By Horizon Common Inc.
2021-02-03Murray Stahl-Buy1Common Stock$905.60-$905.60  -614$556,038.40  0.79     [Very Low]Form 4By Horizon Common Inc.
2021-02-03Murray Stahl-Buy3Common Stock$905.60-$2,716.80  -1,167$1,056,835.20  1.50     [Low]Form 4-
2021-02-03Murray Stahl-Buy2Common Stock$905.60-$1,811.20  -1,169$1,058,646.40  1.51     [Low]Form 4-
2021-02-03Murray Stahl-Buy4Common Stock$905.60-$3,622.40  -42,729$38,695,382.40  55.09    [High]Form 4By Polestar Offshore Fund
2021-02-03Murray Stahl-Buy28Common Stock$905.60-$25,356.80  0.04     [ Very Low ]227,002$205,573,011.20  292.68   [Very High]Form 4By Horizon Kinetics Asset Management LLC
2021-02-04Murray Stahl-Buy2Common Stock$961.49-$1,922.98  -100,377$96,511,481.73  129.42   [Very High]Form 4By Horizon Kinetics Hard Assets LLC
2021-02-04Murray Stahl-Buy10Common Stock$961.49-$9,614.90  -624$599,969.76  0.80     [Very Low]Form 4By Horizon Common Inc.
2021-02-04Murray Stahl-Buy1Common Stock$961.49-$961.49  -625$600,931.25  0.81     [Very Low]Form 4By Horizon Common Inc.
2021-02-04Murray Stahl-Buy3Common Stock$961.49-$2,884.47  -1,172$1,126,866.28  1.51     [Low]Form 4-
2021-02-04Murray Stahl-Buy2Common Stock$961.49-$1,922.98  -1,174$1,128,789.26  1.51     [Low]Form 4-
2021-02-04Murray Stahl-Buy4Common Stock$961.49-$3,845.96  -42,733$41,087,352.17  55.10    [High]Form 4By Polestar Offshore Fund
2021-02-04Murray Stahl-Buy28Common Stock$961.49-$26,921.72  0.04     [ Very Low ]227,030$218,287,074.70  292.72   [Very High]Form 4By Horizon Kinetics Asset Management LLC
2021-02-04Murray Stahl-Sell2Common Stock$832.24$1,664.48  -623$518,485.52  0.80     [Very Low]Form 4By Horizon Common Inc.
2021-02-04Murray Stahl-Buy2Common Stock$832.24-$1,664.48  -100,379$83,539,418.96  129.42   [Very High]Form 4By Horizon Kinetics Hard Assets LLC
2021-02-05Murray Stahl-Buy2Common Stock$992.99-$1,985.98  -100,381$99,677,329.19  129.42   [Very High]Form 4By Horizon Kinetics Hard Assets, LLC
2021-02-05Murray Stahl-Buy10Common Stock$992.99-$9,929.90  -633$628,562.67  0.82     [Very Low]Form 4By Horizon Common Inc
2021-02-05Murray Stahl-Buy1Common Stock$992.99-$992.99  -634$629,555.66  0.82     [Very Low]Form 4By Horizon Common Inc
2021-02-05Murray Stahl-Buy3Common Stock$992.99-$2,978.97  -1,177$1,168,749.23  1.52     [Low]Form 4-
2021-02-05Murray Stahl-Buy2Common Stock$992.99-$1,985.98  -1,179$1,170,735.21  1.52     [Low]Form 4-
2021-02-05Murray Stahl-Buy4Common Stock$992.99-$3,971.96  -42,737$42,437,413.63  55.10    [High]Form 4By Polestar Offshore Fund
2021-02-05Murray Stahl-Buy28Common Stock$992.99-$27,803.72  0.04     [ Very Low ]227,058$225,466,323.42  292.75   [Very High]Form 4By Horizon Kinetics Asset Management LLC
2021-02-08Murray Stahl-Buy2Common Stock$1,020.00-$2,040.00  -100,383$102,390,660.00  129.43   [Very High]Form 4By Horizon Kinetics Hard Assets LLC
2021-02-08Murray Stahl-Buy10Common Stock$1,020.00-$10,200.00  -644$656,880.00  0.83     [Very Low]Form 4By Horizon Common Inc
2021-02-08Murray Stahl-Buy1Common Stock$1,020.00-$1,020.00  -645$657,900.00  0.83     [Very Low]Form 4By Horizon Common Inc
2021-02-08Murray Stahl-Buy3Common Stock$1,020.00-$3,060.00  -1,182$1,205,640.00  1.52     [Low]Form 4-
2021-02-08Murray Stahl-Buy2Common Stock$1,020.00-$2,040.00  -1,184$1,207,680.00  1.53     [Low]Form 4-
2021-02-08Murray Stahl-Buy4Common Stock$1,020.00-$4,080.00  -42,741$43,595,820.00  55.11    [High]Form 4By Polestar Offshore Fund
2021-02-08Murray Stahl-Buy28Common Stock$1,020.00-$28,560.00  0.04     [ Very Low ]227,086$231,627,720.00  292.79   [Very High]Form 4By Horizon Kinetics Asset Management LLC
2021-02-09Murray Stahl-Buy2Common Stock$1,011.68-$2,023.36  -100,385$101,557,496.80  129.43   [Very High]Form 4By Horizon Kinetics Hard Assets LLC
2021-02-09Murray Stahl-Buy10Common Stock$1,011.68-$10,116.80  -655$662,650.40  0.84     [Very Low]Form 4By Horizon Common Inc
2021-02-09Murray Stahl-Buy1Common Stock$1,011.68-$1,011.68  -656$663,662.08  0.85     [Very Low]Form 4By Horizon Common Inc
2021-02-09Murray Stahl-Buy3Common Stock$1,011.68-$3,035.04  -1,187$1,200,864.16  1.53     [Low]Form 4-
2021-02-09Murray Stahl-Buy2Common Stock$1,011.68-$2,023.36  -1,189$1,202,887.52  1.53     [Low]Form 4-
2021-02-09Murray Stahl-Buy4Common Stock$1,011.68-$4,046.72  -42,745$43,244,261.60  55.11    [High]Form 4By Polestar Offshore Fund
2021-02-09Murray Stahl-Buy28Common Stock$1,011.68-$28,327.04  0.04     [ Very Low ]227,114$229,766,691.52  292.82   [Very High]Form 4By Horizon Kinetics Asset Management LLC
2021-02-10Murray Stahl-Buy2Common Stock$1,065.94-$2,131.88  -100,387$107,006,518.78  129.43   [Very High]Form 4By Horizon Kinetics Hard Assets, LLC
2021-02-10Murray Stahl-Buy10Common Stock$1,065.94-$10,659.40  -666$709,916.04  0.86     [Very Low]Form 4By Horizon Common Inc
2021-02-10Murray Stahl-Buy1Common Stock$1,065.94-$1,065.94  -667$710,981.98  0.86     [Very Low]Form 4By Horizon Common Inc
2021-02-10Murray Stahl-Buy3Common Stock$1,065.94-$3,197.82  -1,192$1,270,600.48  1.54     [Low]Form 4-
2021-02-10Murray Stahl-Buy2Common Stock$1,065.94-$2,131.88  -1,194$1,272,732.36  1.54     [Low]Form 4-
2021-02-05Murray Stahl-Buy4Common Stock$1,065.94-$4,263.76  -42,749$45,567,869.06  55.12    [High]Form 4By Polestar Offshore Fund
2021-02-10Murray Stahl-Buy28Common Stock$1,065.94-$29,846.32  0.04     [ Very Low ]227,142$242,119,743.48  292.86   [Very High]Form 4By Horizon Kinetics Asset Management LLC
2021-02-11Murray Stahl-Buy4Common Stock$1,074.98-$4,299.92  -42,753$45,958,619.94  55.12    [High]Form 4By Polestar Offshore Fund
2021-02-11Murray Stahl-Buy2Common Stock$1,074.98-$2,149.96  -100,389$107,916,167.22  129.43   [Very High]Form 4By Horizon Kinetics Hard Assets LLC
2021-02-11Murray Stahl-Buy10Common Stock$1,074.98-$10,749.80  -677$727,761.46  0.87     [Very Low]Form 4By Horizon Common Inc
2021-02-11Murray Stahl-Buy1Common Stock$1,074.98-$1,074.98  -678$728,836.44  0.87     [Very Low]Form 4By Horizon Common Inc
2021-02-11Murray Stahl-Buy3Common Stock$1,074.98-$3,224.94  -1,197$1,286,751.06  1.54     [Low]Form 4-
2021-02-11Murray Stahl-Buy2Common Stock$1,074.98-$2,149.96  -1,199$1,288,901.02  1.55     [Low]Form 4-
2021-02-11Murray Stahl-Buy28Common Stock$1,074.98-$30,099.44  0.04     [ Very Low ]227,170$244,203,206.60  292.90   [Very High]Form 4By Horizon Kinetics Asset Management LLC
2021-02-12Murray Stahl-Buy4Common Stock$1,119.78-$4,479.12  -42,757$47,878,433.46  55.13    [High]Form 4By Polestar Offshore Fund
2021-02-12Murray Stahl-Buy2Common Stock$1,119.78-$2,239.56  -100,391$112,415,833.98  129.44   [Very High]Form 4By Horizon Kinetics Hard Assets LLC
2021-02-12Murray Stahl-Buy10Common Stock$1,119.78-$11,197.80  -688$770,408.64  0.89     [Very Low]Form 4By Horizon Common Inc
2021-02-12Murray Stahl-Buy1Common Stock$1,119.78-$1,119.78  -689$771,528.42  0.89     [Very Low]Form 4By Horizon Common Inc
2021-02-12Murray Stahl-Buy3Common Stock$1,119.78-$3,359.34  -1,202$1,345,975.56  1.55     [Low]Form 4-
2021-02-12Murray Stahl-Buy2Common Stock$1,119.78-$2,239.56  -1,204$1,348,215.12  1.55     [Low]Form 4-
2021-02-12Murray Stahl-Buy28Common Stock$1,119.78-$31,353.84  0.04     [ Very Low ]227,198$254,411,776.44  292.93   [Very High]Form 4By Horizon Kinetics Asset Management LLC
2021-02-16Murray Stahl-Buy4Common Stock$1,164.23-$4,656.92  -42,761$49,783,639.03  55.13    [High]Form 4By Polestar Offshore Fund
2021-02-16Murray Stahl-Buy2Common Stock$1,164.23-$2,328.46  -100,393$116,880,542.39  129.44   [Very High]Form 4By Horizon Kinetics Hard Assets, LLC
2021-02-16Murray Stahl-Buy10Common Stock$1,164.23-$11,642.30  -699$813,796.77  0.90     [Very Low]Form 4By Horizon Common Inc
2021-02-16Murray Stahl-Buy1Common Stock$1,164.23-$1,164.23  -700$814,961.00  0.90     [Very Low]Form 4By Horizon Common Inc
2021-02-16Murray Stahl-Buy3Common Stock$1,164.23-$3,492.69  -1,207$1,405,225.61  1.56     [Low]Form 4-
2021-02-16Murray Stahl-Buy2Common Stock$1,164.23-$2,328.46  -1,209$1,407,554.07  1.56     [Low]Form 4-
2021-02-16Murray Stahl-Buy28Common Stock$1,164.23-$32,598.44  0.04     [ Very Low ]227,226$264,543,325.98  292.97   [Very High]Form 4By Horizon Kinetics Asset Management LLC
2021-02-17Murray Stahl-Buy2Common Stock$1,142.83-$2,285.66  -100,395$114,734,417.85  129.44   [Very High]Form 4By Horizon Kinetics Hard Assets, LLC
2021-02-17Murray Stahl-Buy10Common Stock$1,142.83-$11,428.30  -710$811,409.30  0.92     [Very Low]Form 4By Horizon Common Inc
2021-02-17Murray Stahl-Buy1Common Stock$1,142.83-$1,142.83  -711$812,552.13  0.92     [Very Low]Form 4By Horizon Common Inc
2021-02-17Murray Stahl-Buy3Common Stock$1,142.83-$3,428.49  -1,212$1,385,109.96  1.56     [Low]Form 4-
2021-02-17Murray Stahl-Buy2Common Stock$1,142.83-$2,285.66  -1,214$1,387,395.62  1.57     [Low]Form 4-
2021-02-17Murray Stahl-Buy4Common Stock$1,142.83-$4,571.32  -42,765$48,873,124.95  55.14    [High]Form 4By Polestar Offshore Fund
2021-02-17Murray Stahl-Buy28Common Stock$1,142.83-$31,999.24  0.04     [ Very Low ]227,254$259,712,688.82  293.00   [Very High]Form 4By Horizon Kinetics Asset Management LLC
2021-02-18Murray Stahl-Buy2Common Stock$1,109.83-$2,219.66  -100,397$111,423,602.51  129.44   [Very High]Form 4By Horizon Kinetics Hard Assets LLC
2021-02-18Murray Stahl-Buy10Common Stock$1,109.83-$11,098.30  -721$800,187.43  0.93     [Very Low]Form 4By Horizon Common Inc
2021-02-18Murray Stahl-Buy1Common Stock$1,109.83-$1,109.83  -722$801,297.26  0.93     [Very Low]Form 4By Horizon Common Inc
2021-02-18Murray Stahl-Buy3Common Stock$1,109.83-$3,329.49  -1,217$1,350,663.11  1.57     [Low]Form 4-
2021-02-18Murray Stahl-Buy2Common Stock$1,109.83-$2,219.66  -1,219$1,352,882.77  1.57     [Low]Form 4-
2021-02-18Murray Stahl-Buy4Common Stock$1,109.83-$4,439.32  -42,769$47,466,319.27  55.14    [High]Form 4By Polestar Offshore Fund
2021-02-18Murray Stahl-Buy28Common Stock$1,109.83-$31,075.24  0.04     [ Very Low ]227,282$252,244,382.06  293.04   [Very High]Form 4By Horizon Kinetics Asset Management LLC
2021-02-19Murray Stahl-Buy4Common Stock$1,109.00-$4,436.00  -42,773$47,435,257.00  55.15    [High]Form 4By Polestar Offshore Fund
2021-02-19Murray Stahl-Buy2Common Stock$1,109.00-$2,218.00  -100,399$111,342,491.00  129.45   [Very High]Form 4By Horizon Kinetics Hard Assets LLC
2021-02-19Murray Stahl-Buy10Common Stock$1,109.00-$11,090.00  -732$811,788.00  0.94     [Very Low]Form 4By Horizon Common Inc
2021-02-19Murray Stahl-Buy1Common Stock$1,109.00-$1,109.00  -733$812,897.00  0.95     [Very Low]Form 4By Horizon Common Inc
2021-02-19Murray Stahl-Buy3Common Stock$1,109.00-$3,327.00  -1,222$1,355,198.00  1.58     [Low]Form 4-
2021-02-19Murray Stahl-Buy2Common Stock$1,109.00-$2,218.00  -1,224$1,357,416.00  1.58     [Low]Form 4-
2021-02-19Murray Stahl-Buy28Common Stock$1,109.00-$31,052.00  0.04     [ Very Low ]227,310$252,086,790.00  293.08   [Very High]Form 4By Horizon Kinetics Asset Management LLC
2021-02-22Murray Stahl-Buy1Common Stock$1,100.01-$1,100.01  -42,774$47,051,827.74  55.15    [High]Form 4By Polestar Offshore Fund
2021-02-22Murray Stahl-Buy2Common Stock$1,100.01-$2,200.02  -100,401$110,442,104.01  129.45   [Very High]Form 4By Horizon Kinetics Hard Assets LLC
2021-02-22Murray Stahl-Buy10Common Stock$1,100.01-$11,000.10  -743$817,307.43  0.96     [Very Low]Form 4By Horizon Common Inc
2021-02-22Murray Stahl-Buy1Common Stock$1,100.01-$1,100.01  -744$818,407.44  0.96     [Very Low]Form 4By Horizon Common Inc
2021-02-22Murray Stahl-Buy2Common Stock$1,100.01-$2,200.02  -1,226$1,348,612.26  1.58     [Low]Form 4-
2021-02-22Murray Stahl-Buy1Common Stock$1,100.01-$1,100.01  -1,227$1,349,712.27  1.58     [Low]Form 4-
2021-02-22Murray Stahl-Buy2Common Stock$1,100.01-$2,200.02  -746$820,607.46  0.96     [Very Low]Form 4By Horizon Common Inc
2021-02-22Murray Stahl-Buy20Common Stock$1,100.01-$22,000.20  0.03     [ Very Low ]227,330$250,065,273.30  293.10   [Very High]Form 4By Horizon Kinetics Asset Management LLC
2021-02-23Murray Stahl-Buy2Common Stock$1,114.08-$2,228.16  -100,403$111,856,974.24  129.45   [Very High]Form 4By Horizon Kinetics Hard Assets, LLC
2021-02-23Murray Stahl-Buy10Common Stock$1,114.08-$11,140.80  -756$842,244.48  0.97     [Very Low]Form 4By Horizon Common Inc
2021-02-23Murray Stahl-Buy1Common Stock$1,114.08-$1,114.08  -757$843,358.56  0.98     [Very Low]Form 4By Horizon Common Inc
2021-02-23Murray Stahl-Buy2Common Stock$1,114.08-$2,228.16  -1,229$1,369,204.32  1.58     [Low]Form 4-
2021-02-23Murray Stahl-Buy1Common Stock$1,114.08-$1,114.08  -1,230$1,370,318.40  1.59     [Low]Form 4-
2021-02-23Murray Stahl-Buy1Common Stock$1,114.08-$1,114.08  -1,263$1,407,083.04  1.63     [Low]Form 4By Horizon Credit Opportunity Fund
2021-02-23Murray Stahl-Buy1Common Stock$1,114.08-$1,114.08  -42,775$47,654,772.00  55.15    [High]Form 4By Polestar Offshore Fund
2021-02-23Murray Stahl-Buy12Common Stock$1,114.08-$13,368.96  0.02     [ Very Low ]227,342$253,277,175.36  293.12   [Very High]Form 4By Horizon Kinetics Asset Management LLC
2021-02-24Murray Stahl-Buy2Common Stock$1,143.52-$2,287.04  -100,405$114,815,125.60  129.45   [Very High]Form 4By Horizon Kinetics Hard Assets LLC
2021-02-24Murray Stahl-Buy10Common Stock$1,143.52-$11,435.20  -767$877,079.84  0.99     [Very Low]Form 4By Horizon Common Inc
2021-02-24Murray Stahl-Buy1Common Stock$1,143.52-$1,143.52  -768$878,223.36  0.99     [Very Low]Form 4By Horizon Common Inc
2021-02-24Murray Stahl-Buy2Common Stock$1,143.52-$2,287.04  -1,232$1,408,816.64  1.59     [Low]Form 4-
2021-02-24Murray Stahl-Buy1Common Stock$1,143.52-$1,143.52  -1,233$1,409,960.16  1.59     [Low]Form 4-
2021-02-24Murray Stahl-Buy1Common Stock$1,143.52-$1,143.52  -1,264$1,445,409.28  1.63     [Low]Form 4By Horizon Credit Opportunities Fund
2021-02-24Murray Stahl-Buy1Common Stock$1,143.52-$1,143.52  -42,776$48,915,211.52  55.15    [High]Form 4By Polestar Offshore Fund
2021-02-24Murray Stahl-Buy8Common Stock$1,143.52-$9,148.16  -227,350$259,979,272.00  293.13   [Very High]Form 4By Horizon Kinetics Asset Management LLC
2021-02-25Murray Stahl-Buy2Common Stock$1,111.87-$2,223.74  -100,407$111,639,531.09  129.46   [Very High]Form 4By Horizon Kinetics Hard Assets, LLC
2021-02-25Murray Stahl-Buy10Common Stock$1,111.87-$11,118.70  -778$865,034.86  1.00     [Very Low]Form 4By Horizon Common Inc
2021-02-25Murray Stahl-Buy1Common Stock$1,111.87-$1,111.87  -779$866,146.73  1.00     [Very Low]Form 4By Horizon Common Inc
2021-02-25Murray Stahl-Buy2Common Stock$1,111.87-$2,223.74  -1,235$1,373,159.45  1.59     [Low]Form 4-
2021-02-25Murray Stahl-Buy1Common Stock$1,111.87-$1,111.87  -1,236$1,374,271.32  1.59     [Low]Form 4-
2021-02-25Murray Stahl-Buy1Common Stock$1,111.87-$1,111.87  -1,265$1,406,515.55  1.63     [Low]Form 4By Horizon Credit Opportunities Fund
2021-02-25Murray Stahl-Buy1Common Stock$1,111.87-$1,111.87  -42,777$47,562,462.99  55.15    [High]Form 4By Polestar Offshore Fund
2021-02-25Murray Stahl-Buy12Common Stock$1,111.87-$13,342.44  0.02     [ Very Low ]227,362$252,796,986.94  293.14   [Very High]Form 4By Horizon Kinetics Asset Management LLC
2021-02-26Murray Stahl-Buy2Common Stock$1,104.04-$2,208.08  -100,409$110,855,552.36  129.46   [Very High]Form 4By Horizon Kinetics Hard Assets LLC
2021-02-26Murray Stahl-Buy10Common Stock$1,104.04-$11,040.40  -789$871,087.56  1.02     [Very Low]Form 4By Horizon Common Inc
2021-02-26Murray Stahl-Buy1Common Stock$1,104.04-$1,104.04  -790$872,191.60  1.02     [Very Low]Form 4By Horizon Common Inc
2021-02-26Murray Stahl-Buy2Common Stock$1,104.04-$2,208.08  -1,238$1,366,801.52  1.60     [Low]Form 4-
2021-02-26Murray Stahl-Buy1Common Stock$1,104.04-$1,104.04  -1,239$1,367,905.56  1.60     [Low]Form 4-
2021-02-26Murray Stahl-Buy1Common Stock$1,104.04-$1,104.04  -1,266$1,397,714.64  1.63     [Low]Form 4By Horizon Credit Opportunities Fund
2021-02-26Murray Stahl-Buy1Common Stock$1,104.04-$1,104.04  -42,778$47,228,623.12  55.15    [High]Form 4By Polestar Offshore Fund
2021-02-26Murray Stahl-Buy12Common Stock$1,104.04-$13,248.48  0.02     [ Very Low ]227,374$251,029,990.96  293.16   [Very High]Form 4By Horizon Kinetics Asset Management LLC
2021-03-01Murray Stahl-Buy1Common Stock$1,107.78-$1,107.78  -1,267$1,403,557.26  1.63     [Low]Form 4By Horizon Credit Opportunity Fund
2021-03-01Murray Stahl-Buy1Common Stock$1,107.78-$1,107.78  -42,779$47,389,720.62  55.16    [High]Form 4By Polestar Offshore Fund
2021-03-01Murray Stahl-Buy2Common Stock$1,107.78-$2,215.56  -100,411$111,233,297.58  129.46   [Very High]Form 4By Horizon Kinetics Hard Assets LLC
2021-03-01Murray Stahl-Buy10Common Stock$1,107.78-$11,077.80  -800$886,224.00  1.03     [Very Low]Form 4By Horizon Common Inc
2021-03-01Murray Stahl-Buy1Common Stock$1,107.78-$1,107.78  -801$887,331.78  1.03     [Very Low]Form 4By Horizon Common Inc
2021-03-01Murray Stahl-Buy2Common Stock$1,107.78-$2,215.56  -1,241$1,374,754.98  1.60     [Low]Form 4-
2021-03-01Murray Stahl-Buy1Common Stock$1,107.78-$1,107.78  -1,242$1,375,862.76  1.60     [Low]Form 4-
2021-03-01Murray Stahl-Buy12Common Stock$1,107.78-$13,293.36  0.02     [ Very Low ]227,386$251,893,663.08  293.17   [Very High]Form 4By Horizon Kinetics Asset Management LLC
2021-03-01Murray Stahl-Sell100Common Stock$1,113.61$111,361.00  0.13     [ Low ]701$780,640.61  0.90     [Very Low]Form 4By Horizon Common Inc
2021-03-01Murray Stahl-Buy100Common Stock$1,113.61-$111,361.00  0.13     [ Low ]100,511$111,930,054.71  129.59   [Very High]Form 4By Horizon Kinetics Hard Assets LLC
2021-03-01Murray Stahl-Sell55Common Stock$1,113.61$61,248.55  0.07     [ Very Low ]1,187$1,321,855.07  1.53     [Low]Form 4-
2021-03-01Murray Stahl-Buy55Common Stock$1,113.61-$61,248.55  0.07     [ Very Low ]100,566$111,991,303.26  129.66   [Very High]Form 4By Horizon Kinetics Hard Assets LLC
2021-03-01Murray Stahl-Sell36Common Stock$1,113.61$40,089.96  0.05     [ Very Low ]1,151$1,281,765.11  1.48     [Low]Form 4-
2021-03-01Murray Stahl-Buy36Common Stock$1,113.61-$40,089.96  0.05     [ Very Low ]100,602$112,031,393.22  129.71   [Very High]Form 4By Horizon Kinetics Hard Assets LLC
2021-03-01Murray Stahl-Buy297Common Stock$1,113.61-$330,742.17  0.38     [ Average ]100,899$112,362,135.39  130.09   [Very High]Form 4By Horizon Kinetics Hard Assets LLC
2021-03-02Murray Stahl-Buy1Common Stock$1,098.32-$1,098.32  -1,268$1,392,669.76  1.63     [Low]Form 4By Horizon Credit Opportunities Fund
2021-03-02Murray Stahl-Buy1Common Stock$1,098.32-$1,098.32  -42,780$46,986,129.60  55.16    [High]Form 4By Polestar Offshore Fund
2021-03-02Murray Stahl-Buy2Common Stock$1,098.32-$2,196.64  -100,901$110,821,586.32  130.09   [Very High]Form 4By Horizon Kinetics Hard Assets, LLC
2021-03-02Murray Stahl-Buy10Common Stock$1,098.32-$10,983.20  -711$780,905.52  0.92     [Very Low]Form 4By Horizon Common Inc
2021-03-02Murray Stahl-Buy1Common Stock$1,098.32-$1,098.32  -712$782,003.84  0.92     [Very Low]Form 4By Horizon Common Inc
2021-03-02Murray Stahl-Buy2Common Stock$1,098.32-$2,196.64  -1,153$1,266,362.96  1.49     [Low]Form 4-
2021-03-02Murray Stahl-Buy1Common Stock$1,098.32-$1,098.32  -1,154$1,267,461.28  1.49     [Low]Form 4-
2021-03-02Murray Stahl-Buy12Common Stock$1,098.32-$13,179.84  0.02     [ Very Low ]227,398$249,755,771.36  293.19   [Very High]Form 4By Horizon Kinetics Asset Management LLC
2021-03-03Murray Stahl-Buy1Common Stock$1,157.20-$1,157.20  -1,269$1,468,486.80  1.64     [Low]Form 4By Horizon Credit Opportunity Fund
2021-03-03Murray Stahl-Buy1Common Stock$1,157.20-$1,157.20  -42,781$49,506,173.20  55.16    [High]Form 4By Polestar Offshore Fund
2021-03-03Murray Stahl-Buy2Common Stock$1,157.20-$2,314.40  -100,903$116,764,951.60  130.10   [Very High]Form 4By Horizon Kinetics Hard Assets LLC
2021-03-03Murray Stahl-Buy10Common Stock$1,157.20-$11,572.00  -722$835,498.40  0.93     [Very Low]Form 4By Horizon Common Inc
2021-03-03Murray Stahl-Buy1Common Stock$1,157.20-$1,157.20  -723$836,655.60  0.93     [Very Low]Form 4By Horizon Common Inc
2021-03-03Murray Stahl-Buy2Common Stock$1,157.20-$2,314.40  -1,156$1,337,723.20  1.49     [Low]Form 4-
2021-03-03Murray Stahl-Buy1Common Stock$1,157.20-$1,157.20  -1,157$1,338,880.40  1.49     [Low]Form 4-
2021-03-03Murray Stahl-Buy12Common Stock$1,157.20-$13,886.40  0.02     [ Very Low ]227,410$263,158,852.00  293.21   [Very High]Form 4By Horizon Kinetics Asset Management LLC
2021-03-04Murray Stahl-Buy1Common Stock$1,175.02-$1,175.02  -1,270$1,492,275.40  1.64     [Low]Form 4By Horizon Credit Opportunity Fund
2021-03-04Murray Stahl-Buy1Common Stock$1,175.02-$1,175.02  -42,782$50,269,705.64  55.16    [High]Form 4By Polestar Offshore Fund
2021-03-04Murray Stahl-Buy2Common Stock$1,175.02-$2,350.04  -100,905$118,565,393.10  130.10   [Very High]Form 4By Horizon Kinetics Hard Assets LLC
2021-03-04Murray Stahl-Buy10Common Stock$1,175.02-$11,750.20  -733$861,289.66  0.95     [Very Low]Form 4By Horizon Common Inc
2021-03-04Murray Stahl-Buy1Common Stock$1,175.02-$1,175.02  -734$862,464.68  0.95     [Very Low]Form 4By Horizon Common Inc
2021-03-04Murray Stahl-Buy2Common Stock$1,175.02-$2,350.04  -1,159$1,361,848.18  1.49     [Low]Form 4-
2021-03-04Murray Stahl-Buy1Common Stock$1,175.02-$1,175.02  -1,160$1,363,023.20  1.50     [Low]Form 4-
2021-03-04Murray Stahl-Buy12Common Stock$1,175.02-$14,100.24  0.02     [ Very Low ]227,422$267,225,398.44  293.22   [Very High]Form 4By Horizon Kinetics Asset Management LLC
2021-03-05Murray Stahl-Buy1Common Stock$1,200.00-$1,200.00  -1,271$1,525,200.00  1.64     [Low]Form 4By Horizon Credit Opportunity Fund
2021-03-05Murray Stahl-Buy1Common Stock$1,200.00-$1,200.00  -42,783$51,339,600.00  55.16    [High]Form 4By Polestar Offshore Fund
2021-03-05Murray Stahl-Buy2Common Stock$1,200.00-$2,400.00  -100,907$121,088,400.00  130.10   [Very High]Form 4By Horizon Kinetics Hard Assets LLC
2021-03-05Murray Stahl-Buy10Common Stock$1,200.00-$12,000.00  -743$891,600.00  0.96     [Very Low]Form 4By Horizon Common Inc
2021-03-05Murray Stahl-Buy1Common Stock$1,200.00-$1,200.00  -744$892,800.00  0.96     [Very Low]Form 4By Horizon Common Inc
2021-03-05Murray Stahl-Buy2Common Stock$1,200.00-$2,400.00  -1,162$1,394,400.00  1.50     [Low]Form 4-
2021-03-05Murray Stahl-Buy1Common Stock$1,200.00-$1,200.00  -1,163$1,395,600.00  1.50     [Low]Form 4-
2021-03-05Murray Stahl-Buy12Common Stock$1,200.00-$14,400.00  0.02     [ Very Low ]227,434$272,920,800.00  293.24   [Very High]Form 4By Horizon Kinetics Asset Management LLC
2021-03-08Murray Stahl-Buy1Common Stock$1,258.00-$1,258.00  -1,272$1,600,176.00  1.64     [Low]Form 4By Horizon Credit Opportunity Fund
2021-03-08Murray Stahl-Buy1Common Stock$1,258.00-$1,258.00  -42,784$53,822,272.00  55.16    [High]Form 4By Polestar Offshore Fund
2021-03-08Murray Stahl-Buy2Common Stock$1,258.00-$2,516.00  -100,909$126,943,522.00  130.10   [Very High]Form 4By Horizon Kinetics Hard Assets LLC
2021-03-08Murray Stahl-Buy10Common Stock$1,258.00-$12,580.00  -754$948,532.00  0.97     [Very Low]Form 4By Horizon Common Inc
2021-03-08Murray Stahl-Buy1Common Stock$1,258.00-$1,258.00  -755$949,790.00  0.97     [Very Low]Form 4By Horizon Common Inc
2021-03-08Murray Stahl-Buy2Common Stock$1,258.00-$2,516.00  -1,165$1,465,570.00  1.50     [Low]Form 4-
2021-03-08Murray Stahl-Buy1Common Stock$1,258.00-$1,258.00  -1,166$1,466,828.00  1.50     [Low]Form 4-
2021-03-08Murray Stahl-Buy12Common Stock$1,258.00-$15,096.00  0.02     [ Very Low ]227,446$286,127,068.00  293.25   [Very High]Form 4By Horizon Kinetics Asset Management LLC
2021-03-09Murray Stahl-Buy1Common Stock$1,282.23-$1,282.23  -1,273$1,632,278.79  1.64     [Low]Form 4By Horizon Credit Opportunity Fund
2021-03-09Murray Stahl-Buy1Common Stock$1,282.23-$1,282.23  -42,785$54,860,210.55  55.16    [High]Form 4By Polestar Offshore Fund
2021-03-09Murray Stahl-Buy2Common Stock$1,282.23-$2,564.46  -100,911$129,391,111.53  130.11   [Very High]Form 4By Horizon Kinetics Hard Assets LLC
2021-03-09Murray Stahl-Buy10Common Stock$1,282.23-$12,822.30  -765$980,905.95  0.99     [Very Low]Form 4By Horizon Common Inc
2021-03-09Murray Stahl-Buy1Common Stock$1,282.23-$1,282.23  -766$982,188.18  0.99     [Very Low]Form 4By Horizon Common Inc
2021-03-09Murray Stahl-Buy2Common Stock$1,282.23-$2,564.46  -1,168$1,497,644.64  1.51     [Low]Form 4-
2021-03-09Murray Stahl-Buy1Common Stock$1,282.23-$1,282.23  -1,169$1,498,926.87  1.51     [Low]Form 4-
2021-03-09Murray Stahl-Sell2Common Stock$1,113.61$2,227.22  -764$850,798.04  0.99     [Very Low]Form 4By Horizon Common Inc
2021-03-09Murray Stahl-Buy2Common Stock$1,113.61-$2,227.22  -100,913$112,377,725.93  130.11   [Very High]Form 4By Horizon Kinetics Hard Assets LLC
2021-03-09Murray Stahl-Buy12Common Stock$1,282.23-$15,386.76  0.02     [ Very Low ]227,458$291,653,471.34  293.27   [Very High]Form 4By Horizon Kinetics Asset Management LLC
2021-03-10Murray Stahl-Buy1Common Stock$1,359.37-$1,359.37  -1,274$1,731,837.38  1.64     [Low]Form 4By Horizon Credit Opportunity Fund
2021-03-10Murray Stahl-Buy1Common Stock$1,359.37-$1,359.37  -42,786$58,162,004.82  55.17    [High]Form 4By Polestar Offshore Fund
2021-03-10Murray Stahl-Buy2Common Stock$1,359.37-$2,718.74  -100,915$137,180,823.55  130.11   [Very High]Form 4By Horizon Kinetics Hard Assets LLC
2021-03-10Murray Stahl-Buy10Common Stock$1,359.37-$13,593.70  -774$1,052,152.38  1.00     [Very Low]Form 4By Horizon Common Inc
2021-03-10Murray Stahl-Buy1Common Stock$1,359.37-$1,359.37  -775$1,053,511.75  1.00     [Very Low]Form 4By Horizon Common Inc
2021-03-10Murray Stahl-Buy2Common Stock$1,359.37-$2,718.74  -1,171$1,591,822.27  1.51     [Low]Form 4-
2021-03-10Murray Stahl-Buy1Common Stock$1,359.37-$1,359.37  -1,172$1,593,181.64  1.51     [Low]Form 4-
2021-03-10Murray Stahl-Buy12Common Stock$1,359.37-$16,312.44  0.02     [ Very Low ]227,470$309,215,893.90  293.28   [Very High]Form 4By Horizon Kinetics Asset Management LLC
2021-03-11Murray Stahl-Buy1Common Stock$1,414.95-$1,414.95  -1,275$1,804,061.25  1.64     [Low]Form 4By Horizon Credit Opportunity Fund
2021-03-11Murray Stahl-Buy1Common Stock$1,414.95-$1,414.95  -42,787$60,541,465.65  55.17    [High]Form 4By Polestar Offshore Fund
2021-03-11Murray Stahl-Buy2Common Stock$1,414.95-$2,829.90  -100,917$142,792,509.15  130.11   [Very High]Form 4By Horizon Kinetics Hard Assets, LLC
2021-03-11Murray Stahl-Buy10Common Stock$1,414.95-$14,149.50  -785$1,110,735.75  1.01     [Very Low]Form 4By Horizon Common Inc
2021-03-11Murray Stahl-Buy12Common Stock$1,414.95-$16,979.40  0.02     [ Very Low ]227,482$321,875,655.90  293.30   [Very High]Form 4By Horizon Kinetics Asset Management LLC
2021-03-11Murray Stahl-Buy2Common Stock$1,414.95-$2,829.90  -1,174$1,661,151.30  1.51     [Low]Form 4-
2021-03-11Murray Stahl-Buy1Common Stock$1,414.95-$1,414.95  -1,175$1,662,566.25  1.51     [Low]Form 4-
2021-03-11Murray Stahl-Buy1Common Stock$1,414.95-$1,414.95  -786$1,112,150.70  1.01     [Very Low]Form 4By Horizon Common Inc
2021-03-10Dana F. Mcginnis-Buy100Common Stock$1,342.45-$134,245.00  0.13     [ Low ]100$134,245.00  0.13     [Very Low]Form 4See Footnote
2021-03-11Dana F. Mcginnis-Buy50Common Stock$1,404.92-$70,246.00  0.06     [ Very Low ]150$210,738.00  0.19     [Very Low]Form 4See Footnote
2021-03-11Dana F. Mcginnis-Buy50Common Stock$1,406.00-$70,300.00  0.06     [ Very Low ]200$281,200.00  0.26     [Very Low]Form 4See Footnore
2021-03-12Murray Stahl-Buy1Common Stock$1,437.00-$1,437.00  -1,276$1,833,612.00  1.65     [Low]Form 4By Horizon Credit Opportunity Fund
2021-03-12Murray Stahl-Buy1Common Stock$1,437.00-$1,437.00  -42,788$61,486,356.00  55.17    [High]Form 4By Polestar Offshore Fund
2021-03-12Murray Stahl-Buy2Common Stock$1,437.00-$2,874.00  -100,919$145,020,603.00  130.12   [Very High]Form 4By Horizon Kinetics Hard Assets LLC
2021-03-12Murray Stahl-Buy10Common Stock$1,437.00-$14,370.00  -796$1,143,852.00  1.03     [Very Low]Form 4By Horizon Common Inc.
2021-03-12Murray Stahl-Buy1Common Stock$1,437.00-$1,437.00  -797$1,145,289.00  1.03     [Very Low]Form 4By Horizon Common Inc.
2021-03-12Murray Stahl-Buy2Common Stock$1,437.00-$2,874.00  -1,177$1,691,349.00  1.52     [Low]Form 4-
2021-03-12Murray Stahl-Buy1Common Stock$1,437.00-$1,437.00  -1,178$1,692,786.00  1.52     [Low]Form 4-
2021-03-12Murray Stahl-Buy12Common Stock$1,437.00-$17,244.00  0.02     [ Very Low ]227,494$326,908,878.00  293.31   [Very High]Form 4By Horizon Kinetics Asset Management LLC
2021-03-15Murray Stahl-Buy1Common Stock$1,557.92-$1,557.92  -2,454$3,823,135.68  3.16     [Low]Form 4BY CDK Partners LP
2021-03-15Murray Stahl-Buy1Common Stock$1,557.92-$1,557.92  -5,388$8,394,072.96  6.95     [Average]Form 4By CDK Fund Ltd.
2021-03-15Murray Stahl-Buy1Common Stock$1,557.92-$1,557.92  -1,277$1,989,463.84  1.65     [Low]Form 4By Horizon Credit Opportunity Fund
2021-03-15Murray Stahl-Buy1Common Stock$1,557.92-$1,557.92  -42,789$66,661,838.88  55.17    [High]Form 4By Polestar Offshore Fund
2021-03-15Murray Stahl-Buy1Common Stock$1,557.92-$1,557.92  -1,439$2,241,846.88  1.86     [Low]Form 4By Bermuda Liquidators II LLC
2021-03-15Murray Stahl-Buy2Common Stock$1,557.92-$3,115.84  -100,921$157,226,844.32  130.12   [Very High]Form 4By Horizon Kinetics Hard Assets LLC
2021-03-15Murray Stahl-Buy10Common Stock$1,557.92-$15,579.20  -807$1,257,241.44  1.04     [Very Low]Form 4By Horizon Common Inc.
2021-03-15Murray Stahl-Buy1Common Stock$1,557.92-$1,557.92  -808$1,258,799.36  1.04     [Very Low]Form 4By Horizon Common Inc.
2021-03-15Murray Stahl-Buy2Common Stock$1,557.92-$3,115.84  -1,180$1,838,345.60  1.52     [Low]Form 4-
2021-03-15Murray Stahl-Buy1Common Stock$1,557.92-$1,557.92  -1,181$1,839,903.52  1.52     [Low]Form 4-
2021-03-15Murray Stahl-Buy12Common Stock$1,557.92-$18,695.04  0.02     [ Very Low ]227,506$354,436,147.52  293.33   [Very High]Form 4By Horizon Kinetics Asset Management LLC
2021-03-16Murray Stahl-Buy1Common Stock$1,553.72-$1,553.72  -2,455$3,814,382.60  3.17     [Low]Form 4By CDK Partners LP
2021-03-16Murray Stahl-Buy1Common Stock$1,553.72-$1,553.72  -5,389$8,372,997.08  6.95     [Average]Form 4By CDK Fund Ltd
2021-03-16Murray Stahl-Buy1Common Stock$1,553.72-$1,553.72  -1,278$1,985,654.16  1.65     [Low]Form 4By Horizon Credit Opportunity Fund
2021-03-16Murray Stahl-Buy1Common Stock$1,553.72-$1,553.72  -42,790$66,483,678.80  55.17    [High]Form 4By Polestar Offshore Fund
2021-03-16Murray Stahl-Buy1Common Stock$1,553.72-$1,553.72  -1,440$2,237,356.80  1.86     [Low]Form 4By Bermuda Liquidators II LLC
2021-03-16Murray Stahl-Buy2Common Stock$1,553.72-$3,107.44  -100,923$156,806,083.56  130.12   [Very High]Form 4By Horizon Kinetics Hard Assets LLC
2021-03-16Murray Stahl-Buy10Common Stock$1,553.72-$15,537.20  -818$1,270,942.96  1.05     [Very Low]Form 4By Horizon Common Inc.
2021-03-16Murray Stahl-Buy1Common Stock$1,553.72-$1,553.72  -819$1,272,496.68  1.06     [Very Low]Form 4By Horizon Common Inc.
2021-03-16Murray Stahl-Buy2Common Stock$1,553.72-$3,107.44  -1,183$1,838,050.76  1.53     [Low]Form 4-
2021-03-16Murray Stahl-Buy1Common Stock$1,553.72-$1,553.72  -1,184$1,839,604.48  1.53     [Low]Form 4-
2021-03-16Murray Stahl-Buy12Common Stock$1,553.72-$18,644.64  0.02     [ Very Low ]227,518$353,499,266.96  293.34   [Very High]Form 4By Horizon Kinetics Asset Management LLC
2021-03-15Dana F. Mcginnis-Buy50Common Stock$1,556.48-$77,824.00  0.06     [ Very Low ]250$389,120.00  0.32     [Very Low]Form 4See Footnote
2021-03-17Murray Stahl-Buy1Common Stock$1,703.78-$1,703.78  -2,456$4,184,483.68  3.17     [Low]Form 4By CDK Partners LP
2021-03-17Murray Stahl-Buy1Common Stock$1,703.78-$1,703.78  -5,390$9,183,374.20  6.95     [Average]Form 4By CDK Fund Ltd
2021-03-17Murray Stahl-Buy1Common Stock$1,703.78-$1,703.78  -1,279$2,179,134.62  1.65     [Low]Form 4By Horizon Credit Opportunity Fund
2021-03-17Murray Stahl-Buy1Common Stock$1,703.78-$1,703.78  -42,791$72,906,449.98  55.17    [High]Form 4By Polestar Offshore Fund
2021-03-17Murray Stahl-Buy2Common Stock$1,703.78-$3,407.56  -100,925$171,953,996.50  130.13   [Very High]Form 4By Horizon Kinetics Hard Assets LLC
2021-03-17Murray Stahl-Buy10Common Stock$1,703.78-$17,037.80  -829$1,412,433.62  1.07     [Very Low]Form 4By Horizon Common Inc.
2021-03-17Murray Stahl-Buy1Common Stock$1,703.78-$1,703.78  -830$1,414,137.40  1.07     [Very Low]Form 4By Horizon Common Inc.
2021-03-17Murray Stahl-Buy2Common Stock$1,703.78-$3,407.56  -1,186$2,020,683.08  1.53     [Low]Form 4-
2021-03-17Murray Stahl-Buy1Common Stock$1,703.78-$1,703.78  -1,187$2,022,386.86  1.53     [Low]Form 4-
2021-03-17Murray Stahl-Buy1Common Stock$1,703.78-$1,703.78  -831$1,415,841.18  1.07     [Very Low]Form 4By Horizon Common Inc.
2021-03-17Murray Stahl-Buy12Common Stock$1,703.78-$20,445.36  0.02     [ Very Low ]227,530$387,661,063.40  293.36   [Very High]Form 4By Horizon Kinetics Asset Management LLC
2021-03-18Murray Stahl-Buy2Common Stock$1,541.34-$3,082.68  -100,927$155,562,822.18  130.13   [Very High]Form 4By Horizon Kinetics Hard Assets LLC
2021-03-18Murray Stahl-Buy10Common Stock$1,541.34-$15,413.40  -841$1,296,266.94  1.08     [Very Low]Form 4By Horizon Common Inc.
2021-03-18Murray Stahl-Buy1Common Stock$1,541.34-$1,541.34  -842$1,297,808.28  1.09     [Very Low]Form 4By Horizon Common Inc.
2021-03-18Murray Stahl-Buy2Common Stock$1,541.34-$3,082.68  -1,189$1,832,653.26  1.53     [Low]Form 4-
2021-03-18Murray Stahl-Buy1Common Stock$1,541.34-$1,541.34  -1,190$1,834,194.60  1.53     [Low]Form 4-
2021-03-18Murray Stahl-Buy1Common Stock$1,594.09-$1,594.09  -843$1,343,817.87  1.09     [Very Low]Form 4By Horizon Common Inc.
2021-03-18Murray Stahl-Buy1Common Stock$1,541.34-$1,541.34  -2,457$3,787,072.38  3.17     [Low]Form 4By CDK Partners LP
2021-03-18Murray Stahl-Buy1Common Stock$1,541.34-$1,541.34  -5,391$8,309,363.94  6.95     [Average]Form 4By CDK Fund Ltd
2021-03-18Murray Stahl-Buy1Common Stock$1,541.34-$1,541.34  -1,280$1,972,915.20  1.65     [Low]Form 4By Horizon Credit Opportunity Fund
2021-03-18Murray Stahl-Buy1Common Stock$1,541.34-$1,541.34  -42,792$65,957,021.28  55.17    [High]Form 4By Polestar Offshore Fund
2021-03-18Murray Stahl-Buy12Common Stock$1,541.34-$18,496.08  0.02     [ Very Low ]227,542$350,719,586.28  293.38   [Very High]Form 4By Horizon Kinetics Asset Management LLC
2021-03-19Murray Stahl-Buy1Common Stock$1,675.45-$1,675.45  -5,392$9,034,026.40  6.95     [Average]Form 4By CDK Fund Ltd
2021-03-19Murray Stahl-Buy1Common Stock$1,675.45-$1,675.45  -1,281$2,146,251.45  1.65     [Low]Form 4By Horizon Credit Opportunity Fund
2021-03-19Murray Stahl-Buy1Common Stock$1,675.45-$1,675.45  -42,793$71,697,531.85  55.17    [High]Form 4By Polestar Offshore Fund
2021-03-19Murray Stahl-Buy2Common Stock$1,675.45-$3,350.90  -100,929$169,101,493.05  130.13   [Very High]Form 4By Horizon Kinetics Hard Assets, LLC
2021-03-19Murray Stahl-Buy10Common Stock$1,675.45-$16,754.50  -853$1,429,158.85  1.10     [Very Low]Form 4By Horizon Common Inc
2021-03-18Murray Stahl-Buy1Common Stock$1,675.45-$1,675.45  -854$1,430,834.30  1.10     [Very Low]Form 4By Horizon Common Inc
2021-03-19Murray Stahl-Buy2Common Stock$1,675.45-$3,350.90  -1,192$1,997,136.40  1.54     [Low]Form 4-
2021-03-19Murray Stahl-Buy1Common Stock$1,675.45-$1,675.45  -1,193$1,998,811.85  1.54     [Low]Form 4-
2021-03-19Murray Stahl-Buy12Common Stock$1,675.45-$20,105.40  0.02     [ Very Low ]227,554$381,255,349.30  293.39   [Very High]Form 4By Horizon Kinetics Asset Management LLC
2021-03-19Murray Stahl-Buy1Common Stock$1,613.63-$1,613.63  -855$1,379,653.65  1.10     [Very Low]Form 4By Horizon Common Inc
2021-03-22Murray Stahl-Buy1Common Stock$1,583.52-$1,583.52  -5,393$8,539,923.36  6.95     [Average]Form 4By CDK Fund Ltd
2021-03-22Murray Stahl-Buy1Common Stock$1,583.52-$1,583.52  -1,282$2,030,072.64  1.65     [Low]Form 4By Horizon Credit Opportunity Fund
2021-03-22Murray Stahl-Buy1Common Stock$1,583.52-$1,583.52  -42,794$67,765,154.88  55.18    [High]Form 4By Polestar Offshore Fund
2021-03-22Murray Stahl-Buy2Common Stock$1,583.52-$3,167.04  -100,931$159,826,257.12  130.13   [Very High]Form 4By Horizon Kinetics Hard Assets LLC
2021-03-22Murray Stahl-Buy10Common Stock$1,583.52-$15,835.20  -865$1,369,744.80  1.12     [Very Low]Form 4By Horizon Common Inc
2021-03-22Murray Stahl-Buy1Common Stock$1,583.52-$1,583.52  -866$1,371,328.32  1.12     [Very Low]Form 4By Horizon Common Inc
2021-03-22Murray Stahl-Buy2Common Stock$1,583.52-$3,167.04  -1,195$1,892,306.40  1.54     [Low]Form 4-
2021-03-22Murray Stahl-Buy1Common Stock$1,583.52-$1,583.52  -1,196$1,893,889.92  1.54     [Low]Form 4-
2021-03-22Murray Stahl-Buy1Common Stock$1,605.00-$1,605.00  -867$1,391,535.00  1.12     [Very Low]Form 4By Horizon Common Inc
2021-03-22Murray Stahl-Buy12Common Stock$1,583.52-$19,002.24  0.02     [ Very Low ]227,566$360,355,312.32  293.41   [Very High]Form 4By Horizon Kinetics Asset Management LLC
2021-03-23Murray Stahl-Buy1Common Stock$1,426.31-$1,426.31  -5,394$7,693,516.14  6.95     [Average]Form 4By CDK Fund Ltd
2021-03-23Murray Stahl-Buy1Common Stock$1,426.31-$1,426.31  -1,283$1,829,955.73  1.65     [Low]Form 4By Horizon Credit Opportunity Fund
2021-03-23Murray Stahl-Buy1Common Stock$1,426.31-$1,426.31  -42,795$61,038,936.45  55.18    [High]Form 4By Polestar Offshore Fund
2021-03-23Murray Stahl-Buy2Common Stock$1,426.31-$2,852.62  -100,933$143,961,747.23  130.14   [Very High]Form 4By Horizon Kinetics Hard Assets LLC
2021-03-23Murray Stahl-Buy10Common Stock$1,426.31-$14,263.10  -877$1,250,873.87  1.13     [Very Low]Form 4By Horizon Common Inc
2021-03-23Murray Stahl-Buy1Common Stock$1,426.31-$1,426.31  -878$1,252,300.18  1.13     [Very Low]Form 4By Horizon Common Inc
2021-03-23Murray Stahl-Buy2Common Stock$1,426.31-$2,852.62  -1,198$1,708,719.38  1.54     [Low]Form 4-
2021-03-23Murray Stahl-Buy1Common Stock$1,426.31-$1,426.31  -1,199$1,710,145.69  1.55     [Low]Form 4-
2021-03-23Murray Stahl-Buy1Common Stock$1,415.77-$1,415.77  -879$1,244,461.83  1.13     [Very Low]Form 4By Horizon Common Inc
2021-03-23Murray Stahl-Buy12Common Stock$1,426.31-$17,115.72  0.02     [ Very Low ]227,578$324,596,777.18  293.42   [Very High]Form 4By Horizon Kinetics Asset Management LLC
2021-03-24Murray Stahl-Buy1Common Stock$1,486.40-$1,486.40  -5,395$8,019,128.00  6.96     [Average]Form 4By CDK Fund Ltd
2021-03-24Murray Stahl-Buy1Common Stock$1,486.40-$1,486.40  -1,284$1,908,537.60  1.66     [Low]Form 4By Horizon Credit Opportunities Fund
2021-03-24Murray Stahl-Buy1Common Stock$1,486.40-$1,486.40  -42,796$63,611,974.40  55.18    [High]Form 4By Polestar Offshore Fund
2021-03-24Murray Stahl-Buy2Common Stock$1,486.40-$2,972.80  -100,935$150,029,784.00  130.14   [Very High]Form 4By Horizon Kinetics Hard Assets LLC
2021-03-24Murray Stahl-Buy10Common Stock$1,486.40-$14,864.00  -889$1,321,409.60  1.15     [Very Low]Form 4By Horizon Common Inc
2021-03-24Murray Stahl-Buy1Common Stock$1,486.40-$1,486.40  -890$1,322,896.00  1.15     [Very Low]Form 4By Horizon Common Inc
2021-03-24Murray Stahl-Buy2Common Stock$1,486.40-$2,972.80  -1,201$1,785,166.40  1.55     [Low]Form 4-
2021-03-24Murray Stahl-Buy1Common Stock$1,486.40-$1,486.40  -1,202$1,786,652.80  1.55     [Low]Form 4-
2021-03-24Murray Stahl-Buy1Common Stock$1,504.04-$1,504.04  -891$1,340,099.64  1.15     [Very Low]Form 4By Horizon Common Inc
2021-03-24Murray Stahl-Buy12Common Stock$1,486.40-$17,836.80  0.02     [ Very Low ]227,590$338,289,776.00  293.44   [Very High]Form 4By Horizon Kinetics Asset Management LLC
2021-03-25Murray Stahl-Buy1Common Stock$1,532.01-$1,532.01  -1,285$1,968,632.85  1.66     [Low]Form 4Horizon Credit Opportunity Fund
2021-03-25Murray Stahl-Buy1Common Stock$1,532.01-$1,532.01  -42,797$65,565,431.97  55.18    [High]Form 4Polestar Offshore Fund
2021-03-25Murray Stahl-Buy2Common Stock$1,532.01-$3,064.02  -100,937$154,636,493.37  130.14   [Very High]Form 4By Horizon Kinetics Hard Assets, LLC
2021-03-25Murray Stahl-Buy10Common Stock$1,532.01-$15,320.10  -901$1,380,341.01  1.16     [Very Low]Form 4By Horizon Common Inc
2021-03-25Murray Stahl-Buy1Common Stock$1,532.01-$1,532.01  -902$1,381,873.02  1.16     [Very Low]Form 4By Horizon Common Inc
2021-03-25Murray Stahl-Buy2Common Stock$1,532.01-$3,064.02  -1,204$1,844,540.04  1.55     [Low]Form 4-
2021-03-25Murray Stahl-Buy1Common Stock$1,532.01-$1,532.01  -1,205$1,846,072.05  1.55     [Low]Form 4-
2021-03-25Murray Stahl-Buy13Common Stock$1,532.01-$19,916.13  0.02     [ Very Low ]227,603$348,690,072.03  293.45   [Very High]Form 4By Horizon Kinetics Asset Management LLC
2021-03-26Murray Stahl-Buy1Common Stock$1,578.00-$1,578.00  -1,286$2,029,308.00  1.66     [Low]Form 4By Horizon Credit Opportunity Fund
2021-03-26Murray Stahl-Buy1Common Stock$1,578.00-$1,578.00  -42,798$67,535,244.00  55.18    [High]Form 4By Polestar Offshore Fund
2021-03-26Murray Stahl-Buy2Common Stock$1,578.00-$3,156.00  -100,939$159,281,742.00  130.14   [Very High]Form 4By Horizon Kinetics Hard Assets, LLC
2021-03-26Murray Stahl-Buy10Common Stock$1,578.00-$15,780.00  -912$1,439,136.00  1.18     [Very Low]Form 4By Horizon Common Inc.
2021-03-26Murray Stahl-Buy1Common Stock$1,578.00-$1,578.00  -913$1,440,714.00  1.18     [Very Low]Form 4By Horizon Common Inc.
2021-03-26Murray Stahl-Buy2Common Stock$1,578.00-$3,156.00  -1,207$1,904,646.00  1.56     [Low]Form 4-
2021-03-26Murray Stahl-Buy1Common Stock$1,578.00-$1,578.00  -1,208$1,906,224.00  1.56     [Low]Form 4-
2021-03-26Murray Stahl-Buy13Common Stock$1,578.00-$20,514.00  0.02     [ Very Low ]227,616$359,178,048.00  293.47   [Very High]Form 4By Horizon Kinetics Asset Management LLC
2021-03-29Murray Stahl-Buy1Common Stock$1,476.34-$1,476.34  -1,287$1,900,049.58  1.66     [Low]Form 4By Horizon Credit Opportunity Fund
2021-03-29Murray Stahl-Buy1Common Stock$1,476.34-$1,476.34  -42,799$63,185,875.66  55.18    [High]Form 4By Polestar Offshore Fund
2021-03-29Murray Stahl-Buy2Common Stock$1,476.34-$2,952.68  -100,941$149,023,235.94  130.15   [Very High]Form 4By Horizon Kinetics Hard Assets LLC
2021-03-29Murray Stahl-Buy10Common Stock$1,476.34-$14,763.40  -923$1,362,661.82  1.19     [Very Low]Form 4By Horizon Common Inc.
2021-03-29Murray Stahl-Buy1Common Stock$1,476.34-$1,476.34  -924$1,364,138.16  1.19     [Very Low]Form 4By Horizon Common Inc.
2021-03-29Murray Stahl-Buy2Common Stock$1,476.34-$2,952.68  -1,210$1,786,371.40  1.56     [Low]Form 4-
2021-03-29Murray Stahl-Buy1Common Stock$1,476.34-$1,476.34  -1,211$1,787,847.74  1.56     [Low]Form 4-
2021-03-29Murray Stahl-Buy13Common Stock$1,476.34-$19,192.42  0.02     [ Very Low ]227,629$336,057,797.86  293.49   [Very High]Form 4By Horizon Kinetics Asset Management LLC
2021-03-31Murray Stahl-Buy1Common Stock$1,589.43-$1,589.43  -1,289$2,048,775.27  1.66     [Low]Form 4By Horizon Credit Opportunity Fund
2021-03-31Murray Stahl-Buy1Common Stock$1,589.43-$1,589.43  -42,801$68,029,193.43  55.18    [High]Form 4By Polestar Offshore Fund
2021-03-31Murray Stahl-Buy2Common Stock$1,589.43-$3,178.86  -100,945$160,445,011.35  130.15   [Very High]Form 4By Horizon Kinetics Hard Assets LLC
2021-03-31Murray Stahl-Buy10Common Stock$1,589.43-$15,894.30  -945$1,502,011.35  1.22     [Very Low]Form 4By Horizon Common Inc.
2021-03-31Murray Stahl-Buy1Common Stock$1,589.43-$1,589.43  -946$1,503,600.78  1.22     [Very Low]Form 4By Horizon Common Inc.
2021-03-31Murray Stahl-Buy2Common Stock$1,589.43-$3,178.86  -1,216$1,932,746.88  1.57     [Low]Form 4-
2021-03-31Murray Stahl-Buy1Common Stock$1,589.43-$1,589.43  -1,217$1,934,336.31  1.57     [Low]Form 4-
2021-03-31Murray Stahl-Buy13Common Stock$1,589.43-$20,662.59  0.02     [ Very Low ]227,655$361,841,686.65  293.52   [Very High]Form 4By Horizon Kinetics Asset Management LLC
2021-04-01Murray Stahl-Buy1Common Stock$1,600.00-$1,600.00  -1,290$2,064,000.00  1.66     [Low]Form 4By Horizon Credit Opportunity Fund
2021-04-01Murray Stahl-Buy1Common Stock$1,600.00-$1,600.00  -42,802$68,483,200.00  55.19    [High]Form 4By Polestar Offshore Fund
2021-04-01Murray Stahl-Buy2Common Stock$1,600.00-$3,200.00  -100,947$161,515,200.00  130.15   [Very High]Form 4By Horizon Kinetics Hard Assets LLC
2021-04-01Murray Stahl-Sell10Common Stock$1,600.00$16,000.00  -956$1,529,600.00  1.23     [Very Low]Form 4By Horizon Common Inc
2021-04-01Murray Stahl-Buy1Common Stock$1,600.00-$1,600.00  -957$1,531,200.00  1.23     [Very Low]Form 4By Horizon Common Inc
2021-04-01Murray Stahl-Buy2Common Stock$1,600.00-$3,200.00  -1,219$1,950,400.00  1.57     [Low]Form 4-
2021-04-01Murray Stahl-Buy1Common Stock$1,600.00-$1,600.00  -1,220$1,952,000.00  1.57     [Low]Form 4-
2021-04-01Murray Stahl-Buy13Common Stock$1,600.00-$20,800.00  0.02     [ Very Low ]227,668$364,268,800.00  293.54   [Very High]Form 4By Horizon Kinetics Asset Management LLC
2021-04-05Murray Stahl-Buy1Common Stock$1,587.99-$1,587.99  -1,291$2,050,095.09  1.66     [Low]Form 4By Horizon Credit Opportunities Fund LP
2021-04-05Murray Stahl-Buy1Common Stock$1,587.99-$1,587.99  -42,803$67,970,735.97  55.19    [High]Form 4By Polestar Offshore Fund Ltd
2021-04-05Murray Stahl-Buy2Common Stock$1,587.99-$3,175.98  -100,949$160,306,002.51  130.16   [Very High]Form 4By Horizon Kinetics Hard Assets LLC
2021-04-05Murray Stahl-Buy10Common Stock$1,587.99-$15,879.90  -967$1,535,586.33  1.25     [Very Low]Form 4By Horizon Common Inc
2021-04-05Murray Stahl-Buy2Common Stock$1,587.99-$3,175.98  -1,222$1,940,523.78  1.58     [Low]Form 4-
2021-04-05Murray Stahl-Buy1Common Stock$1,587.99-$1,587.99  -1,223$1,942,111.77  1.58     [Low]Form 4-
2021-04-05Murray Stahl-Buy13Common Stock$1,587.99-$20,643.87  0.02     [ Very Low ]227,681$361,555,151.19  293.55   [Very High]Form 4By Horizon Kinetics Asset Management LLC
2021-04-05Murray Stahl-Sell200Common Stock$1,589.43$317,886.00  0.26     [ Low ]767$1,219,092.81  0.99     [Very Low]Form 4By Horizon Common Inc
2021-04-05Murray Stahl-Buy200Common Stock$1,589.43-$317,886.00  0.26     [ Low ]101,149$160,769,255.07  130.41   [Very High]Form 4By Horizon Kinetics Hard Assets LLC
2021-04-05Murray Stahl-Sell48Common Stock$1,589.43$76,292.64  0.06     [ Very Low ]1,175$1,867,580.25  1.51     [Low]Form 4-
2021-04-05Murray Stahl-Buy48Common Stock$1,589.43-$76,292.64  0.06     [ Very Low ]101,197$160,845,547.71  130.48   [Very High]Form 4By Horizon Kinetics Hard Assets LLC
2021-04-05Murray Stahl-Sell24Common Stock$1,589.43$38,146.32  0.03     [ Very Low ]1,151$1,829,433.93  1.48     [Low]Form 4-
2021-04-05Murray Stahl-Buy24Common Stock$1,589.43-$38,146.32  0.03     [ Very Low ]101,221$160,883,694.03  130.51   [Very High]Form 4By Horizon Kinetics Hard Assets LLC
2021-04-05Murray Stahl-Buy275Common Stock$1,589.43-$437,093.25  0.35     [ Average ]101,496$161,320,787.28  130.86   [Very High]Form 4By Horizon Kinetics Hard Assets LLC
2021-04-06Murray Stahl-Buy1Common Stock$1,595.49-$1,595.49  -1,292$2,061,373.08  1.67     [Low]Form 4By Horizon Credit Opportunity Fund
2021-04-06Murray Stahl-Buy1Common Stock$1,595.49-$1,595.49  -42,804$68,293,353.96  55.19    [High]Form 4By Polestar Offshore Fund
2021-04-06Murray Stahl-Buy2Common Stock$1,595.49-$3,190.98  -101,498$161,939,044.02  130.86   [Very High]Form 4By Horizon Kinetics Hard Assets LLC
2021-04-06Murray Stahl-Buy10Common Stock$1,595.49-$15,954.90  -777$1,239,695.73  1.00     [Very Low]Form 4By Horizon Common Inc
2021-04-06Murray Stahl-Buy2Common Stock$1,595.49-$3,190.98  -1,153$1,839,599.97  1.49     [Low]Form 4-
2021-04-06Murray Stahl-Buy1Common Stock$1,595.49-$1,595.49  -1,154$1,841,195.46  1.49     [Low]Form 4-
2021-04-06Murray Stahl-Buy13Common Stock$1,595.49-$20,741.37  0.02     [ Very Low ]227,694$363,283,500.06  293.57   [Very High]Form 4By Horizon Kinetics Asset Management LLC
2021-04-13Murray Stahl-Buy18Common Stock$1,540.64-$27,731.52  0.02     [ Very Low ]227,779$350,925,438.56  293.68   [Very High]Form 4By Horizon Kinetics Asset Management LLC
2021-04-13Murray Stahl-Buy1Common Stock$1,540.64-$1,540.64  -1,169$1,801,008.16  1.51     [Low]Form 4-
2021-04-13Murray Stahl-Buy2Common Stock$1,540.64-$3,081.28  -1,168$1,799,467.52  1.51     [Low]Form 4-
2021-04-13Murray Stahl-Buy10Common Stock$1,540.64-$15,406.40  -818$1,260,243.52  1.05     [Very Low]Form 4By Horizon Common Inc.
2021-04-13Murray Stahl-Buy2Common Stock$1,540.64-$3,081.28  -101,517$156,401,150.88  130.89   [Very High]Form 4By Horizon Kinetics Hard Assets LLC
2021-04-13Murray Stahl-Buy3Common Stock$1,540.64-$4,621.92  -42,817$65,965,582.88  55.21    [High]Form 4By Polestar Offshore Fund
2021-04-13Murray Stahl-Buy1Common Stock$1,540.64-$1,540.64  -1,297$1,998,210.08  1.67     [Low]Form 4By Horizon Credit Opportunity Fund
2021-04-12Murray Stahl-Buy18Common Stock$1,598.38-$28,770.84  0.02     [ Very Low ]227,761$364,048,627.18  293.66   [Very High]Form 4By Horizon Kinetics Asset Management LLC
2021-04-12Murray Stahl-Buy3Common Stock$1,598.38-$4,795.14  -42,814$68,433,041.32  55.20    [High]Form 4By Polestar Offshore Fund
2021-04-12Murray Stahl-Buy1Common Stock$1,598.38-$1,598.38  -1,296$2,071,500.48  1.67     [Low]Form 4By Horizon Credit Opportunity Fund
2021-04-12Murray Stahl-Buy1Common Stock$1,598.38-$1,598.38  -1,166$1,863,711.08  1.50     [Low]Form 4-
2021-04-12Murray Stahl-Buy2Common Stock$1,598.38-$3,196.76  -1,165$1,862,112.70  1.50     [Low]Form 4-
2021-04-12Murray Stahl-Buy10Common Stock$1,598.38-$15,983.80  -808$1,291,491.04  1.04     [Very Low]Form 4By Horizon Common Inc.
2021-04-12Murray Stahl-Buy2Common Stock$1,598.38-$3,196.76  -101,515$162,259,545.70  130.89   [Very High]Form 4By Horizon Kinetics Hard Assets LLC
2021-04-14Murray Stahl-Buy1Common Stock$1,613.00-$1,613.00  -1,298$2,093,674.00  1.67     [Low]Form 4By Horizon Credit Opportunity Fund
2021-04-14Murray Stahl-Buy3Common Stock$1,613.00-$4,839.00  -42,820$69,068,660.00  55.21    [High]Form 4By Polestar Offshore Fund
2021-04-14Murray Stahl-Buy2Common Stock$1,613.00-$3,226.00  -101,519$163,750,147.00  130.89   [Very High]Form 4By Horizon Kinetics Hard Assets LLC
2021-04-14Murray Stahl-Buy10Common Stock$1,613.00-$16,130.00  -828$1,335,564.00  1.07     [Very Low]Form 4By Horizon Common Inc.
2021-04-14Murray Stahl-Buy2Common Stock$1,613.00-$3,226.00  -1,171$1,888,823.00  1.51     [Low]Form 4-
2021-04-14Murray Stahl-Buy1Common Stock$1,613.00-$1,613.00  -1,172$1,890,436.00  1.51     [Low]Form 4-
2021-04-14Murray Stahl-Buy18Common Stock$1,613.00-$29,034.00  0.02     [ Very Low ]227,797$367,436,561.00  293.70   [Very High]Form 4By Horizon Kinetics Asset Management LLC
2021-04-15Murray Stahl-Buy1Common Stock$1,574.18-$1,574.18  -1,299$2,044,859.82  1.67     [Low]Form 4By Horizon Credit Opportunity Fund
2021-04-15Murray Stahl-Buy1Common Stock$1,574.18-$1,574.18  -42,821$67,407,961.78  55.21    [High]Form 4By Polestar Offshore Fund
2021-04-15Murray Stahl-Buy2Common Stock$1,574.18-$3,148.36  -101,521$159,812,327.78  130.89   [Very High]Form 4By Horizon Kinetics Hard Assets LLC
2021-04-15Murray Stahl-Buy10Common Stock$1,574.18-$15,741.80  -838$1,319,162.84  1.08     [Very Low]Form 4By Horizon Common Inc.
2021-04-15Murray Stahl-Buy2Common Stock$1,574.18-$3,148.36  -1,174$1,848,087.32  1.51     [Low]Form 4-
2021-04-15Murray Stahl-Buy1Common Stock$1,574.18-$1,574.18  -1,175$1,849,661.50  1.51     [Low]Form 4-
2021-04-15Murray Stahl-Buy12Common Stock$1,574.18-$18,890.16  0.02     [ Very Low ]227,809$358,612,371.62  293.72   [Very High]Form 4By Horizon Kinetics Asset Management LLC
2021-04-16Murray Stahl-Buy1Common Stock$1,580.00-$1,580.00  -1,300$2,054,000.00  1.68     [Low]Form 4By Horizon Credit Opportunity Fund
2021-04-16Murray Stahl-Buy1Common Stock$1,580.00-$1,580.00  -42,822$67,658,760.00  55.21    [High]Form 4By Polestar Offshore Fund
2021-04-16Murray Stahl-Buy2Common Stock$1,580.00-$3,160.00  -101,523$160,406,340.00  130.90   [Very High]Form 4By Horizon Kinetics Hard Assets, LLC
2021-04-16Murray Stahl-Buy10Common Stock$1,580.00-$15,800.00  -848$1,339,840.00  1.09     [Very Low]Form 4By Horizon Common Inc
2021-04-16Murray Stahl-Buy2Common Stock$1,580.00-$3,160.00  -1,177$1,859,660.00  1.52     [Low]Form 4-
2021-04-16Murray Stahl-Buy1Common Stock$1,580.00-$1,580.00  -1,178$1,861,240.00  1.52     [Low]Form 4-
2021-04-16Murray Stahl-Buy12Common Stock$1,580.00-$18,960.00  0.02     [ Very Low ]227,821$359,957,180.00  293.74   [Very High]Form 4By Horizon Kinetics Asset Management LLC
2021-04-19Murray Stahl-Buy1Common Stock$1,546.00-$1,546.00  -1,301$2,011,346.00  1.68     [Low]Form 4By Horizon Credit Opportunity Fund
2021-04-19Murray Stahl-Buy1Common Stock$1,546.00-$1,546.00  -42,823$66,204,358.00  55.21    [High]Form 4By Polestar Offshore Fund
2021-04-19Murray Stahl-Buy2Common Stock$1,546.00-$3,092.00  -101,525$156,957,650.00  130.90   [Very High]Form 4By Horizon Kinetics Hard Assets LLC
2021-04-19Murray Stahl-Buy10Common Stock$1,546.00-$15,460.00  -858$1,326,468.00  1.11     [Very Low]Form 4By Horizon Common Inc
2021-04-19Murray Stahl-Buy2Common Stock$1,546.00-$3,092.00  -1,180$1,824,280.00  1.52     [Low]Form 4-
2021-04-19Murray Stahl-Buy1Common Stock$1,546.00-$1,546.00  -1,181$1,825,826.00  1.52     [Low]Form 4-
2021-04-19Murray Stahl-Buy12Common Stock$1,546.00-$18,552.00  0.02     [ Very Low ]227,833$352,229,818.00  293.75   [Very High]Form 4By Horizon Kinetics Asset Management LLC
2021-04-20Murray Stahl-Buy1Common Stock$1,467.66-$1,467.66  -1,302$1,910,893.32  1.68     [Low]Form 4By Horizon Credit Opportunity Fund
2021-04-20Murray Stahl-Buy1Common Stock$1,467.66-$1,467.66  -42,824$62,851,071.84  55.21    [High]Form 4By Polestar Offshore Fund
2021-04-20Murray Stahl-Buy2Common Stock$1,467.66-$2,935.32  -101,527$149,007,116.82  130.90   [Very High]Form 4By Horizon Kinetics Hard Assets LLC
2021-04-20Murray Stahl-Buy10Common Stock$1,467.66-$14,676.60  -868$1,273,928.88  1.12     [Very Low]Form 4By Horizon Common Inc
2021-04-20Murray Stahl-Buy2Common Stock$1,467.66-$2,935.32  -1,183$1,736,241.78  1.53     [Low]Form 4-
2021-04-20Murray Stahl-Buy1Common Stock$1,467.66-$1,467.66  -1,184$1,737,709.44  1.53     [Low]Form 4-
2021-04-20Murray Stahl-Buy12Common Stock$1,467.66-$17,611.92  0.02     [ Very Low ]227,845$334,398,992.70  293.77   [Very High]Form 4By Horizon Kinetics Asset Management LLC
2021-04-21Murray Stahl-Buy1Common Stock$1,456.65-$1,456.65  -1,303$1,898,014.95  1.68     [Low]Form 4By Horizon Credit Opportunity Fund
2021-04-21Murray Stahl-Buy1Common Stock$1,456.65-$1,456.65  -42,825$62,381,036.25  55.22    [High]Form 4By Polestar Offshore Fund
2021-04-21Murray Stahl-Buy2Common Stock$1,456.65-$2,913.30  -101,529$147,892,217.85  130.90   [Very High]Form 4By Horizon Kinetics Hard Assets LLC
2021-04-21Murray Stahl-Buy10Common Stock$1,456.65-$14,566.50  -878$1,278,938.70  1.13     [Very Low]Form 4By Horizon Common Inc
2021-04-21Murray Stahl-Buy2Common Stock$1,456.65-$2,913.30  -1,186$1,727,586.90  1.53     [Low]Form 4-
2021-04-21Murray Stahl-Buy1Common Stock$1,456.65-$1,456.65  -1,187$1,729,043.55  1.53     [Low]Form 4-
2021-04-21Murray Stahl-Buy12Common Stock$1,456.65-$17,479.80  0.02     [ Very Low ]227,857$331,907,899.05  293.78   [Very High]Form 4By Horizon Kinetics Asset Management LLC
2021-04-23Murray Stahl-Buy1Common Stock$1,472.68-$1,472.68  -1,305$1,921,847.40  1.68     [Low]Form 4By Horizon Credit Opportunity Fund
2021-04-23Murray Stahl-Buy1Common Stock$1,472.68-$1,472.68  -42,827$63,070,466.36  55.22    [High]Form 4By Polestar Offshore Fund
2021-04-23Murray Stahl-Buy2Common Stock$1,472.68-$2,945.36  -101,533$149,525,618.44  130.91   [Very High]Form 4By Horizon Kinetics Hard Assets LLC
2021-04-23Murray Stahl-Buy10Common Stock$1,472.68-$14,726.80  -898$1,322,466.64  1.16     [Very Low]Form 4By Horizon Common Inc.
2021-04-23Murray Stahl-Buy2Common Stock$1,472.68-$2,945.36  -1,192$1,755,434.56  1.54     [Low]Form 4-
2021-04-23Murray Stahl-Buy1Common Stock$1,472.68-$1,472.68  -1,193$1,756,907.24  1.54     [Low]Form 4-
2021-04-23Murray Stahl-Buy12Common Stock$1,472.68-$17,672.16  0.02     [ Very Low ]227,881$335,595,791.08  293.81   [Very High]Form 4By Horizon Kinetics Asset Management LLC
2021-04-26Murray Stahl-Buy1Common Stock$1,576.02-$1,576.02  -1,306$2,058,282.12  1.68     [Low]Form 4By Horizon Credit Opportunity Fund
2021-04-26Murray Stahl-Buy1Common Stock$1,576.02-$1,576.02  -42,828$67,497,784.56  55.22    [High]Form 4By Polestar Offshore Fund
2021-04-26Murray Stahl-Buy2Common Stock$1,576.02-$3,152.04  -101,535$160,021,190.70  130.91   [Very High]Form 4By Horizon Kinetics Hard Assets LLC
2021-04-26Murray Stahl-Buy10Common Stock$1,576.02-$15,760.20  -908$1,431,026.16  1.17     [Very Low]Form 4By Horizon Common, Inc.
2021-04-26Murray Stahl-Buy2Common Stock$1,576.02-$3,152.04  -1,195$1,883,343.90  1.54     [Low]Form 4-
2021-04-26Murray Stahl-Buy1Common Stock$1,576.02-$1,576.02  -1,196$1,884,919.92  1.54     [Low]Form 4-
2021-04-26Murray Stahl-Buy12Common Stock$1,576.02-$18,912.24  0.02     [ Very Low ]227,893$359,163,925.86  293.83   [Very High]Form 4By Horizon Kinetics Asset Management LLC
2021-04-27Murray Stahl-Buy1Common Stock$1,604.51-$1,604.51  -1,307$2,097,094.57  1.69     [Low]Form 4By Horizon Credit Opportunity Fund
2021-04-27Murray Stahl-Buy1Common Stock$1,604.51-$1,604.51  -42,829$68,719,558.79  55.22    [High]Form 4By Polestar Offshore Fund
2021-04-27Murray Stahl-Buy2Common Stock$1,604.51-$3,209.02  -101,537$162,917,131.87  130.91   [Very High]Form 4By Horizon Kinetics Hard Assets LLC
2021-04-27Murray Stahl-Buy10Common Stock$1,604.51-$16,045.10  -918$1,472,940.18  1.18     [Very Low]Form 4By Horizon Common Inc.
2021-04-27Murray Stahl-Buy2Common Stock$1,604.51-$3,209.02  -1,198$1,922,202.98  1.54     [Low]Form 4-
2021-04-27Murray Stahl-Buy1Common Stock$1,604.51-$1,604.51  -1,199$1,923,807.49  1.55     [Low]Form 4-
2021-04-27Murray Stahl-Buy12Common Stock$1,604.51-$19,254.12  0.02     [ Very Low ]227,905$365,675,851.55  293.84   [Very High]Form 4By Horizon Kinetics Asset Management LLC
2021-04-28Murray Stahl-Buy1Common Stock$1,658.29-$1,658.29  -1,308$2,169,043.32  1.69     [Low]Form 4By Horizon Credit Opportunity Fund
2021-04-28Murray Stahl-Buy1Common Stock$1,658.29-$1,658.29  -42,830$71,024,560.70  55.22    [High]Form 4By Polestar Offshore Fund
2021-04-28Murray Stahl-Buy2Common Stock$1,658.29-$3,316.58  -101,539$168,381,108.31  130.92   [Very High]Form 4By Horizon Kinetics Hard Assets LLC
2021-04-28Murray Stahl-Buy10Common Stock$1,658.29-$16,582.90  -928$1,538,893.12  1.20     [Very Low]Form 4By Horizon Common Inc.
2021-04-28Murray Stahl-Buy2Common Stock$1,658.29-$3,316.58  -1,201$1,991,606.29  1.55     [Low]Form 4-
2021-04-28Murray Stahl-Buy1Common Stock$1,658.29-$1,658.29  -1,202$1,993,264.58  1.55     [Low]Form 4-
2021-04-28Murray Stahl-Buy12Common Stock$1,658.29-$19,899.48  0.02     [ Very Low ]227,917$377,952,481.93  293.86   [Very High]Form 4By Horizon Kinetics Asset Management LLC
2021-04-29Murray Stahl-Buy2Common Stock$1,575.01-$3,150.02  -101,541$159,928,090.41  130.92   [Very High]Form 4By Horizon Kinetics Hard Assets LLC
2021-04-29Murray Stahl-Buy1Common Stock$1,575.01-$1,575.01  -1,309$2,061,688.09  1.69     [Low]Form 4Horizon Credit Opportunity Fund
2021-04-29Murray Stahl-Buy10Common Stock$1,575.01-$15,750.10  -938$1,477,359.38  1.21     [Very Low]Form 4By Horizon Common Inc.
2021-04-29Murray Stahl-Buy1Common Stock$1,575.01-$1,575.01  -42,831$67,459,253.31  55.22    [High]Form 4By Polestar Offshore Fund
2021-04-29Murray Stahl-Buy2Common Stock$1,575.01-$3,150.02  -1,204$1,896,312.04  1.55     [Low]Form 4-
2021-04-29Murray Stahl-Buy1Common Stock$1,575.01-$1,575.01  -1,205$1,897,887.05  1.55     [Low]Form 4-
2021-04-29Murray Stahl-Buy12Common Stock$1,575.01-$18,900.12  0.02     [ Very Low ]227,929$358,990,454.29  293.87   [Very High]Form 4By Horizon Kinetics Asset Management LLC
2021-04-30Murray Stahl-Buy1Common Stock$1,540.15-$1,540.15  -1,310$2,017,596.50  1.69     [Low]Form 4By Horizon Credit Opportunities Fund LP
2021-04-30Murray Stahl-Buy1Common Stock$1,540.15-$1,540.15  -42,832$65,967,704.80  55.22    [High]Form 4By Polestar Offshore Fund Ltd
2021-04-30Murray Stahl-Buy2Common Stock$1,540.15-$3,080.30  -101,543$156,391,451.45  130.92   [Very High]Form 4By Horizon Kinetics Hard Assets LLC
2021-04-30Murray Stahl-Buy10Common Stock$1,540.15-$15,401.50  -948$1,460,062.20  1.22     [Very Low]Form 4By Horizon Common Inc
2021-04-30Murray Stahl-Buy2Common Stock$1,540.15-$3,080.30  -1,207$1,858,961.05  1.56     [Low]Form 4-
2021-04-30Murray Stahl-Buy1Common Stock$1,540.15-$1,540.15  -1,208$1,860,501.20  1.56     [Low]Form 4-
2021-04-30Murray Stahl-Buy12Common Stock$1,540.15-$18,481.80  0.02     [ Very Low ]227,941$351,063,331.15  293.89   [Very High]Form 4By Horizon Kinetics Asset Management LLC
2021-05-03Murray Stahl-Buy1Common Stock$1,608.73-$1,608.73  -1,311$2,109,045.03  1.69     [Low]Form 4By Horizon Credit Opportunity Fund
2021-05-03Murray Stahl-Buy1Common Stock$1,608.73-$1,608.73  -42,833$68,906,732.09  55.23    [High]Form 4By Polestar Offshore Fund
2021-05-03Murray Stahl-Buy2Common Stock$1,608.73-$3,217.46  -101,545$163,358,487.85  130.92   [Very High]Form 4By Horizon Kinetics Hard Assets LLC
2021-05-03Murray Stahl-Buy10Common Stock$1,608.73-$16,087.30  -958$1,541,163.34  1.24     [Very Low]Form 4By Horizon Common Inc
2021-05-03Murray Stahl-Buy2Common Stock$1,608.73-$3,217.46  -1,210$1,946,563.30  1.56     [Low]Form 4-
2021-05-03Murray Stahl-Buy1Common Stock$1,608.73-$1,608.73  -1,211$1,948,172.03  1.56     [Low]Form 4-
2021-05-03Murray Stahl-Buy12Common Stock$1,608.73-$19,304.76  0.02     [ Very Low ]227,953$366,714,829.69  293.91   [Very High]Form 4By Horizon Kinetics Asset Management LLC
2021-05-03Murray Stahl-Sell150Common Stock$1,540.15$231,022.50  0.19     [ Low ]808$1,244,441.20  1.04     [Very Low]Form 4By Horizon Common Inc
2021-05-03Murray Stahl-Buy150Common Stock$1,540.15-$231,022.50  0.19     [ Low ]101,695$156,625,554.25  131.12   [Very High]Form 4By Horizon Kinetics Hard Assets LLC
2021-05-03Murray Stahl-Sell38Common Stock$1,540.15$58,525.70  0.05     [ Very Low ]1,173$1,806,595.95  1.51     [Low]Form 4-
2021-05-03Murray Stahl-Buy38Common Stock$1,540.15-$58,525.70  0.05     [ Very Low ]101,733$156,684,079.95  131.17   [Very High]Form 4By Horizon Kinetics Hard Assets LLC
2021-05-03Murray Stahl-Sell19Common Stock$1,540.15$29,262.85  0.02     [ Very Low ]1,154$1,777,333.10  1.49     [Low]Form 4-
2021-05-03Murray Stahl-Buy19Common Stock$1,540.15-$29,262.85  0.02     [ Very Low ]101,752$156,713,342.80  131.19   [Very High]Form 4By Horizon Kinetics Hard Assets LLC
2021-05-03Murray Stahl-Buy98Common Stock$1,540.15-$150,934.70  0.13     [ Low ]101,850$156,864,277.50  131.32   [Very High]Form 4By Horizon Kinetics Hard Assets LLC
2021-05-04Murray Stahl-Buy1Common Stock$1,637.95-$1,637.95  -1,312$2,148,990.40  1.69     [Low]Form 4By Horizon Credit Opportunities Fund
2021-05-04Murray Stahl-Buy1Common Stock$1,637.95-$1,637.95  -42,834$70,159,950.30  55.23    [High]Form 4By Polestar Offshore Fund
2021-05-04Murray Stahl-Buy2Common Stock$1,637.95-$3,275.90  -101,852$166,828,483.40  131.32   [Very High]Form 4By Horizon Kinetics Hard Assets LLC
2021-05-04Murray Stahl-Buy10Common Stock$1,637.95-$16,379.50  -818$1,339,843.10  1.05     [Very Low]Form 4By Horizon Common Inc
2021-05-04Murray Stahl-Buy2Common Stock$1,637.95-$3,275.90  -1,156$1,893,470.20  1.49     [Low]Form 4-
2021-05-04Murray Stahl-Buy1Common Stock$1,637.95-$1,637.95  -1,157$1,895,108.15  1.49     [Low]Form 4-
2021-05-04Murray Stahl-Buy12Common Stock$1,637.95-$19,655.40  0.02     [ Very Low ]227,965$373,395,271.75  293.92   [Very High]Form 4By Horizon Kinetics Asset Management LLC
2021-05-05Murray Stahl-Buy1Common Stock$1,701.86-$1,701.86  -1,313$2,234,542.18  1.69     [Low]Form 4By Horizon Credit Opportunity Fund
2021-05-05Murray Stahl-Buy1Common Stock$1,701.86-$1,701.86  -42,835$72,899,173.10  55.23    [High]Form 4By Polestar Offshore Fund
2021-05-05Murray Stahl-Buy2Common Stock$1,701.86-$3,403.72  -101,854$173,341,248.44  131.32   [Very High]Form 4By Horizon Kinetics Hard Assets LLC
2021-05-05Murray Stahl-Buy10Common Stock$1,701.86-$17,018.60  -828$1,409,140.08  1.07     [Very Low]Form 4By Horizon Common Inc
2021-05-05Murray Stahl-Buy2Common Stock$1,701.86-$3,403.72  -1,159$1,972,455.74  1.49     [Low]Form 4-
2021-05-05Murray Stahl-Buy1Common Stock$1,701.86-$1,701.86  -1,160$1,974,157.60  1.50     [Low]Form 4-
2021-05-05Murray Stahl-Buy12Common Stock$1,701.86-$20,422.32  0.02     [ Very Low ]227,977$387,984,937.22  293.94   [Very High]Form 4By Horizon Kinetics Asset Management LLC
2021-05-06Murray Stahl-Buy1Common Stock$1,607.88-$1,607.88  -1,314$2,112,754.32  1.69     [Low]Form 4By Horizon Credit Opportunities Fund LP
2021-05-06Murray Stahl-Buy1Common Stock$1,607.88-$1,607.88  -42,836$68,875,147.68  55.23    [High]Form 4By Polestar Offshore Fund Ltd
2021-05-06Murray Stahl-Buy2Common Stock$1,607.88-$3,215.76  -101,856$163,772,225.28  131.33   [Very High]Form 4By Horizon Kinetics Hard Assets LLC
2021-05-06Murray Stahl-Buy10Common Stock$1,607.88-$16,078.80  -838$1,347,403.44  1.08     [Very Low]Form 4By Horizon Common Inc
2021-05-06Murray Stahl-Buy2Common Stock$1,607.88-$3,215.76  -1,162$1,868,356.56  1.50     [Low]Form 4-
2021-05-06Murray Stahl-Buy1Common Stock$1,607.88-$1,607.88  -1,163$1,869,964.44  1.50     [Low]Form 4-
2021-05-06Murray Stahl-Buy12Common Stock$1,607.88-$19,294.56  0.02     [ Very Low ]227,989$366,578,953.32  293.95   [Very High]Form 4By Horizon Kinetics Asset Management LLC
2021-05-07Murray Stahl-Buy1Common Stock$1,753.25-$1,753.25  -1,315$2,305,523.75  1.70     [Low]Form 4By Horizon Credit Opportunity Fund
2021-05-07Murray Stahl-Buy1Common Stock$1,753.25-$1,753.25  -42,837$75,103,970.25  55.23    [High]Form 4By Polestar Offshore Fund
2021-05-07Murray Stahl-Buy2Common Stock$1,753.25-$3,506.50  -101,858$178,582,538.50  131.33   [Very High]Form 4By Horizon Kinetics Hard Assets LLC
2021-05-07Murray Stahl-Buy10Common Stock$1,753.25-$17,532.50  -848$1,486,756.00  1.09     [Very Low]Form 4By Horizon Common Inc.
2021-05-07Murray Stahl-Buy2Common Stock$1,753.25-$3,506.50  -1,165$2,042,536.25  1.50     [Low]Form 4-
2021-05-07Murray Stahl-Buy1Common Stock$1,753.25-$1,753.25  -1,166$2,044,289.50  1.50     [Low]Form 4-
2021-05-07Murray Stahl-Buy12Common Stock$1,753.25-$21,039.00  0.02     [ Very Low ]228,001$399,742,753.25  293.97   [Very High]Form 4By Horizon Kinetics Asset Management LLC
2021-05-10Murray Stahl-Buy1Common Stock$1,750.57-$1,750.57  -1,316$2,303,750.12  1.70     [Low]Form 4By Horizon Credit Opportunity Fund
2021-05-10Murray Stahl-Buy1Common Stock$1,750.57-$1,750.57  -42,838$74,990,917.66  55.23    [High]Form 4By Polestar Offshore Fund
2021-05-10Murray Stahl-Buy2Common Stock$1,750.57-$3,501.14  -101,860$178,313,060.20  131.33   [Very High]Form 4By Horizon Kinetics Hard Assets LLC
2021-05-10Murray Stahl-Buy10Common Stock$1,750.57-$17,505.70  -858$1,501,989.06  1.11     [Very Low]Form 4By Horizon Common Inc.
2021-05-10Murray Stahl-Buy2Common Stock$1,750.57-$3,501.14  -1,168$2,044,665.76  1.51     [Low]Form 4-
2021-05-10Murray Stahl-Buy1Common Stock$1,750.57-$1,750.57  -1,169$2,046,416.33  1.51     [Low]Form 4-
2021-05-10Murray Stahl-Buy12Common Stock$1,750.57-$21,006.84  0.02     [ Very Low ]228,013$399,152,717.41  293.98   [Very High]Form 4By Horizon Kinetics Asset Management LLC
2021-02-05David E. Barry-Buy3Common Stock$970.89-$2,912.67  -303$294,179.67  0.39     [Very Low]Form 4-
2021-05-11Murray Stahl-Buy1Common Stock$1,727.98-$1,727.98  -1,317$2,275,749.66  1.70     [Low]Form 4By Horizon Credit Opportunity Fund
2021-05-11Murray Stahl-Buy1Common Stock$1,727.98-$1,727.98  -42,839$74,024,935.22  55.23    [High]Form 4By Polestar Offshore Fund
2021-05-11Murray Stahl-Buy2Common Stock$1,727.98-$3,455.96  -101,862$176,015,498.76  131.33   [Very High]Form 4By Horizon Kinetics Hard Assets LLC
2021-05-11Murray Stahl-Buy10Common Stock$1,727.98-$17,279.80  -868$1,499,886.64  1.12     [Very Low]Form 4By Horizon Common Inc.
2021-05-11Murray Stahl-Buy2Common Stock$1,727.98-$3,455.96  -1,171$2,023,464.58  1.51     [Low]Form 4-
2021-05-11Murray Stahl-Buy1Common Stock$1,727.98-$1,727.98  -1,172$2,025,192.56  1.51     [Low]Form 4-
2021-05-11Murray Stahl-Buy12Common Stock$1,727.98-$20,735.76  0.02     [ Very Low ]228,025$394,022,639.50  294.00   [Very High]Form 4By Horizon Kinetics Asset Management LLC
2021-05-12Murray Stahl-Buy1Common Stock$1,688.83-$1,688.83  -1,318$2,225,877.94  1.70     [Low]Form 4By Horizon Credit Opportunity Fund
2021-05-12Murray Stahl-Buy1Common Stock$1,688.83-$1,688.83  -42,840$72,349,477.20  55.23    [High]Form 4By Polestar Offshore Fund
2021-05-12Murray Stahl-Buy2Common Stock$1,688.83-$3,377.66  -101,864$172,030,979.12  131.34   [Very High]Form 4By Horizon Kinetics Hard Assets LLC
2021-05-12Murray Stahl-Buy10Common Stock$1,688.83-$16,888.30  -878$1,482,792.74  1.13     [Very Low]Form 4By Horizon Common Inc.
2021-05-12Murray Stahl-Buy2Common Stock$1,688.83-$3,377.66  -1,174$1,982,686.42  1.51     [Low]Form 4-
2021-05-12Murray Stahl-Buy1Common Stock$1,688.83-$1,688.83  -1,175$1,984,375.25  1.51     [Low]Form 4-
2021-05-12Murray Stahl-Buy12Common Stock$1,688.83-$20,265.96  0.02     [ Very Low ]228,037$385,115,726.71  294.01   [Very High]Form 4By Horizon Kinetics Asset Management LLC
2021-05-13Murray Stahl-Buy1Common Stock$1,657.24-$1,657.24  -1,319$2,185,899.56  1.70     [Low]Form 4Horizon Credit Opportunity Fund
2021-05-13Murray Stahl-Buy1Common Stock$1,657.24-$1,657.24  -42,841$70,997,818.84  55.24    [High]Form 4By Polestar Offshore Fund
2021-05-13Murray Stahl-Buy2Common Stock$1,657.24-$3,314.48  -101,866$168,816,409.84  131.34   [Very High]Form 4By Horizon Kinetics Hard Assets LLC
2021-05-13Murray Stahl-Buy10Common Stock$1,657.24-$16,572.40  -888$1,471,629.12  1.14     [Very Low]Form 4By Horizon Common Inc.
2021-05-13Murray Stahl-Buy2Common Stock$1,657.24-$3,314.48  -1,177$1,950,571.48  1.52     [Low]Form 4-
2021-05-13Murray Stahl-Buy1Common Stock$1,657.24-$1,657.24  -1,178$1,952,228.72  1.52     [Low]Form 4-
2021-05-13Murray Stahl-Buy12Common Stock$1,657.24-$19,886.88  0.02     [ Very Low ]228,049$377,931,924.76  294.03   [Very High]Form 4By Horizon Kinetics Asset Management LLC
2021-05-14Murray Stahl-Buy1Common Stock$1,688.17-$1,688.17  -1,320$2,228,384.40  1.70     [Low]Form 4By HORIZON CREDIT OPPORTUNITY FUND
2021-05-14Murray Stahl-Buy1Common Stock$1,688.17-$1,688.17  -42,842$72,324,579.14  55.24    [High]Form 4By POLESTAR OFFSHORE FUND
2021-05-14Murray Stahl-Buy2Common Stock$1,688.17-$3,376.34  -101,868$171,970,501.56  131.34   [Very High]Form 4By HORIZON KINETICS HARD ASSETS, LLC
2021-05-14Murray Stahl-Buy10Common Stock$1,688.17-$16,881.70  -898$1,515,976.66  1.16     [Very Low]Form 4By HORIZON COMMON INC
2021-05-14Murray Stahl-Buy2Common Stock$1,688.17-$3,376.34  -1,180$1,992,040.60  1.52     [Low]Form 4-
2021-05-14Murray Stahl-Buy1Common Stock$1,688.17-$1,688.17  -1,181$1,993,728.77  1.52     [Low]Form 4-
2021-05-14Murray Stahl-Buy12Common Stock$1,688.17-$20,258.04  0.02     [ Very Low ]228,061$385,005,738.37  294.04   [Very High]Form 4By Horizon Kinetics Asset Management LLC
2021-05-17Murray Stahl-Buy1Common Stock$1,650.00-$1,650.00  -1,321$2,179,650.00  1.70     [Low]Form 4By HORIZON CREDIT OPPORTUNITY FUND
2021-05-17Murray Stahl-Buy1Common Stock$1,650.00-$1,650.00  -42,843$70,690,950.00  55.24    [High]Form 4By POLESTAR OFFSHORE FUND
2021-05-17Murray Stahl-Buy2Common Stock$1,650.00-$3,300.00  -101,870$168,085,500.00  131.34   [Very High]Form 4By HORIZON KINETICS HARD ASSETS, LLC
2021-05-17Murray Stahl-Buy10Common Stock$1,650.00-$16,500.00  -908$1,498,200.00  1.17     [Very Low]Form 4By HORIZON COMMON INC
2021-05-17Murray Stahl-Buy2Common Stock$1,650.00-$3,300.00  -1,183$1,951,950.00  1.53     [Low]Form 4-
2021-05-17Murray Stahl-Buy1Common Stock$1,650.00-$1,650.00  -1,184$1,953,600.00  1.53     [Low]Form 4-
2021-05-17Murray Stahl-Buy12Common Stock$1,650.00-$19,800.00  0.02     [ Very Low ]228,073$376,320,450.00  294.06   [Very High]Form 4By Horizon Kinetics Asset Management LLC
2021-05-18Murray Stahl-Buy1Common Stock$1,571.80-$1,571.80  -1,322$2,077,919.60  1.70     [Low]Form 4By Horizon Credit Opportunity Fund
2021-05-18Murray Stahl-Buy1Common Stock$1,571.80-$1,571.80  -42,844$67,342,199.20  55.24    [High]Form 4By Polestar Offshore Fund
2021-05-18Murray Stahl-Buy2Common Stock$1,571.80-$3,143.60  -101,872$160,122,409.60  131.35   [Very High]Form 4By Horizon Kinetics Hard Assets LLC
2021-05-18Murray Stahl-Buy10Common Stock$1,571.80-$15,718.00  -918$1,442,912.40  1.18     [Very Low]Form 4By Horizon Common Inc
2021-05-18Murray Stahl-Buy2Common Stock$1,571.80-$3,143.60  -1,186$1,864,154.80  1.53     [Low]Form 4-
2021-05-18Murray Stahl-Buy1Common Stock$1,571.80-$1,571.80  -1,187$1,865,726.60  1.53     [Low]Form 4-
2021-05-18Murray Stahl-Buy12Common Stock$1,571.80-$18,861.60  0.02     [ Very Low ]228,085$358,504,003.00  294.08   [Very High]Form 4By Horizon Kinetics Asset Management LLC
2021-05-19Murray Stahl-Buy1Common Stock$1,514.71-$1,514.71  -1,323$2,003,961.33  1.71     [Low]Form 4By Horizon Credit Opportunity Fund
2021-05-19Murray Stahl-Buy1Common Stock$1,514.71-$1,514.71  -42,845$64,897,749.95  55.24    [High]Form 4By Polestar Offshore Fund
2021-05-19Murray Stahl-Buy2Common Stock$1,514.71-$3,029.42  -101,874$154,309,566.54  131.35   [Very High]Form 4By Horizon Kinetics Hard Assets, LLC
2021-05-19Murray Stahl-Buy10Common Stock$1,514.71-$15,147.10  -928$1,405,650.88  1.20     [Very Low]Form 4By Horizon Common Inc
2021-05-19Murray Stahl-Buy2Common Stock$1,514.71-$3,029.42  -1,189$1,800,990.19  1.53     [Low]Form 4-
2021-05-19Murray Stahl-Buy1Common Stock$1,514.71-$1,514.71  -1,190$1,802,504.90  1.53     [Low]Form 4-
2021-05-19Murray Stahl-Buy12Common Stock$1,514.71-$18,176.52  0.02     [ Very Low ]228,097$345,500,806.87  294.09   [Very High]Form 4By Horizon Kinetics Asset Management LLC
2021-05-18Tyler GloverPresident & CEOBuy158Common Stock$1,649.40-$260,605.20  0.20     [ Low ]258$425,545.20  0.33     [Very Low]Form 4-
2021-05-18Dana F. Mcginnis-Buy50Common Stock$1,620.00-$81,000.00  0.06     [ Very Low ]300$486,000.00  0.39     [Very Low]Form 4See Footnote
2021-05-20Murray Stahl-Buy1Common Stock$1,550.00-$1,550.00  -1,324$2,052,200.00  1.71     [Low]Form 4By Horizon Credit Opportunity Fund
2021-05-20Murray Stahl-Buy1Common Stock$1,550.00-$1,550.00  -42,846$66,411,300.00  55.24    [High]Form 4By Polestar Offshore Fund
2021-05-20Murray Stahl-Buy2Common Stock$1,550.00-$3,100.00  -101,876$157,907,800.00  131.35   [Very High]Form 4By Horizon Kinetics Hard Assets, LLC
2021-05-20Murray Stahl-Buy10Common Stock$1,550.00-$15,500.00  -938$1,453,900.00  1.21     [Very Low]Form 4By Horizon Common Inc
2021-05-20Murray Stahl-Buy2Common Stock$1,550.00-$3,100.00  -1,192$1,847,600.00  1.54     [Low]Form 4-
2021-05-20Murray Stahl-Buy1Common Stock$1,550.00-$1,550.00  -1,193$1,849,150.00  1.54     [Low]Form 4-
2021-05-20Murray Stahl-Buy12Common Stock$1,550.00-$18,600.00  0.02     [ Very Low ]228,109$353,568,950.00  294.11   [Very High]Form 4By Horizon Kinetics Asset Management LLC
2021-05-21Murray Stahl-Buy1Common Stock$1,540.00-$1,540.00  -1,325$2,040,500.00  1.71     [Low]Form 4By Horizon Credit Opportunity Fund
2021-05-21Murray Stahl-Buy1Common Stock$1,540.00-$1,540.00  -42,847$65,984,380.00  55.24    [High]Form 4By Polestar Offshore Fund
2021-05-21Murray Stahl-Buy2Common Stock$1,540.00-$3,080.00  -101,878$156,892,120.00  131.35   [Very High]Form 4By Horizon Kinetics Hard Assets LLC
2021-05-21Murray Stahl-Buy10Common Stock$1,540.00-$15,400.00  -948$1,459,920.00  1.22     [Very Low]Form 4By Horizon Common Inc.
2021-05-21Murray Stahl-Buy2Common Stock$1,540.00-$3,080.00  -1,195$1,840,300.00  1.54     [Low]Form 4-
2021-05-21Murray Stahl-Buy1Common Stock$1,540.00-$1,540.00  -1,196$1,841,840.00  1.54     [Low]Form 4-
2021-05-21Murray Stahl-Buy12Common Stock$1,540.00-$18,480.00  0.02     [ Very Low ]228,121$351,306,340.00  294.12   [Very High]Form 4By Horizon Kinetics Asset Management LLC
2021-05-24Murray Stahl-Buy1Common Stock$1,506.44-$1,506.44  -1,326$1,997,539.44  1.71     [Low]Form 4By Horizon Credit Opportunity Fund
2021-05-24Murray Stahl-Buy1Common Stock$1,506.44-$1,506.44  -42,848$64,547,941.12  55.24    [High]Form 4By Polestar Offshore Fund
2021-05-24Murray Stahl-Buy2Common Stock$1,506.44-$3,012.88  -101,880$153,476,107.20  131.36   [Very High]Form 4By Horizon Kinetics Hard Assets, LLC
2021-05-24Murray Stahl-Buy10Common Stock$1,506.44-$15,064.40  -958$1,443,169.52  1.24     [Low]Form 4By Horizon Common Inc.
2021-05-24Murray Stahl-Buy2Common Stock$1,506.44-$3,012.88  -1,198$1,804,715.12  1.54     [Low]Form 4-
2021-05-24Murray Stahl-Buy1Common Stock$1,506.44-$1,506.44  -1,199$1,806,221.56  1.55     [Low]Form 4-
2021-05-24Murray Stahl-Buy12Common Stock$1,506.44-$18,077.28  0.02     [ Very Low ]228,133$343,668,676.52  294.14   [Very High]Form 4By Horizon Kinetics Asset Management LLC
2021-05-25Murray Stahl-Buy1Common Stock$1,486.12-$1,486.12  -1,327$1,972,081.24  1.71     [Low]Form 4By Horizon Credit Opportunity Fund
2021-05-25Murray Stahl-Buy1Common Stock$1,486.12-$1,486.12  -42,849$63,678,755.88  55.25    [High]Form 4By Polestar Offshore Fund
2021-05-25Murray Stahl-Buy2Common Stock$1,486.12-$2,972.24  -101,882$151,408,877.84  131.36   [Very High]Form 4By Horizon Kinetics Hard Assets LLC
2021-05-25Murray Stahl-Buy10Common Stock$1,486.12-$14,861.20  -968$1,438,564.16  1.25     [Low]Form 4By Horizon Common Inc.
2021-05-25Murray Stahl-Buy2Common Stock$1,486.12-$2,972.24  -1,201$1,784,830.12  1.55     [Low]Form 4-
2021-05-25Murray Stahl-Buy1Common Stock$1,486.12-$1,486.12  -1,202$1,786,316.24  1.55     [Low]Form 4-
2021-05-25Murray Stahl-Buy12Common Stock$1,486.12-$17,833.44  0.02     [ Very Low ]228,145$339,050,847.40  294.15   [Very High]Form 4By Horizon Kinetics Asset Management LLC
2021-05-26Murray Stahl-Buy1Common Stock$1,468.50-$1,468.50  -1,328$1,950,168.00  1.71     [Low]Form 4By Horizon Credit Opportunity Fund
2021-05-26Murray Stahl-Buy1Common Stock$1,468.50-$1,468.50  -42,850$62,925,225.00  55.25    [High]Form 4By Polestar Offshore Fund
2021-05-26Murray Stahl-Buy2Common Stock$1,468.50-$2,937.00  -101,884$149,616,654.00  131.36   [Very High]Form 4By Horizon Kinetics Hard Assets LLC
2021-05-26Murray Stahl-Buy10Common Stock$1,468.50-$14,685.00  -978$1,436,193.00  1.26     [Low]Form 4By Horizon Common Inc.
2021-05-26Murray Stahl-Buy2Common Stock$1,468.50-$2,937.00  -1,204$1,768,074.00  1.55     [Low]Form 4-
2021-05-26Murray Stahl-Buy1Common Stock$1,468.50-$1,468.50  -1,205$1,769,542.50  1.55     [Low]Form 4-
2021-05-26Murray Stahl-Buy12Common Stock$1,468.50-$17,622.00  0.02     [ Very Low ]228,157$335,048,554.50  294.17   [Very High]Form 4By Horizon Kinetics Asset Management LLC
2021-05-25Tyler GloverPresident & CEOBuy27Common Stock$1,503.93-$40,606.11  0.03     [ Very Low ]285$428,620.05  0.37     [Very Low]Form 4-
2021-05-27Murray Stahl-Buy1Common Stock$1,465.70-$1,465.70  -1,329$1,947,915.30  1.71     [Low]Form 4By Horizon Credit Opportunity Fund
2021-05-27Murray Stahl-Buy1Common Stock$1,465.70-$1,465.70  -42,851$62,806,710.70  55.25    [High]Form 4By Polestar Offshore Fund
2021-05-27Murray Stahl-Buy2Common Stock$1,465.70-$2,931.40  -101,886$149,334,310.20  131.36   [Very High]Form 4By Horizon Kinetics Hard Assets, LLC
2021-05-27Murray Stahl-Buy10Common Stock$1,465.70-$14,657.00  -988$1,448,111.60  1.27     [Low]Form 4By Horizon Common Inc
2021-05-27Murray Stahl-Buy2Common Stock$1,465.70-$2,931.40  -1,207$1,769,099.90  1.56     [Low]Form 4-
2021-05-27Murray Stahl-Buy1Common Stock$1,465.70-$1,465.70  -1,208$1,770,565.60  1.56     [Low]Form 4-
2021-05-27Murray Stahl-Buy2Common Stock$1,457.70-$2,915.40  -228,159$332,587,374.30  294.17   [Very High]Form 4By Horizon Kinetics Asset Management LLC
2021-05-28Murray Stahl-Buy2Common Stock$1,453.12-$2,906.24  -101,888$148,055,490.56  131.37   [Very High]Form 4By Horizon Kinetics Hard Assets LLC
2021-05-28Murray Stahl-Buy1Common Stock$1,453.12-$1,453.12  -1,330$1,932,649.60  1.71     [Low]Form 4By Horizon Credit Opportunities Fund
2021-05-28Murray Stahl-Buy10Common Stock$1,453.12-$14,531.20  -998$1,450,213.76  1.29     [Low]Form 4By Horizon Common Inc
2021-05-28Murray Stahl-Buy1Common Stock$1,453.12-$1,453.12  -42,852$62,269,098.24  55.25    [High]Form 4By Polestar Offshore Fund
2021-05-28Murray Stahl-Buy2Common Stock$1,453.12-$2,906.24  -1,210$1,758,275.20  1.56     [Low]Form 4-
2021-05-28Murray Stahl-Buy1Common Stock$1,453.12-$1,453.12  -1,211$1,759,728.32  1.56     [Low]Form 4-
2021-05-28Murray Stahl-Buy12Common Stock$1,453.12-$17,437.44  0.02     [ Very Low ]228,171$331,559,843.52  294.19   [Very High]Form 4By Horizon Kinetics Asset Management LLC
2021-06-01Murray Stahl-Buy2Common Stock$1,499.04-$2,998.08  -101,890$152,737,185.60  131.37   [Very High]Form 4By Horizon Kinetics Hard Assets LLC
2021-06-01Murray Stahl-Buy1Common Stock$1,499.04-$1,499.04  -1,331$1,995,222.24  1.72     [Low]Form 4By Horizon Credit Opportunity Fund
2021-06-01Murray Stahl-Buy10Common Stock$1,499.04-$14,990.40  -1,008$1,511,032.32  1.30     [Low]Form 4By Horizon Common Inc
2021-06-01Murray Stahl-Buy1Common Stock$1,499.04-$1,499.04  -42,853$64,238,361.12  55.25    [High]Form 4By Polestar Offshore Fund
2021-06-01Murray Stahl-Buy2Common Stock$1,499.04-$2,998.08  -1,213$1,818,335.52  1.56     [Low]Form 4-
2021-06-01Murray Stahl-Buy1Common Stock$1,499.04-$1,499.04  -1,214$1,819,834.56  1.57     [Low]Form 4-
2021-06-01Murray Stahl-Buy12Common Stock$1,499.04-$17,988.48  0.02     [ Very Low ]228,183$342,055,444.32  294.20   [Very High]Form 4By Horizon Kinetics Asset Management LLC
2021-06-01Murray Stahl-Sell230Common Stock$1,453.12$334,217.60  0.30     [ Average ]778$1,130,527.36  1.00     [Very Low]Form 4By Horizon Common Inc
2021-06-01Murray Stahl-Buy230Common Stock$1,453.12-$334,217.60  0.30     [ Average ]102,120$148,392,614.40  131.67   [Very High]Form 4By Horizon Kinetics Hard Assets LLC
2021-06-01Murray Stahl-Sell57Common Stock$1,453.12$82,827.84  0.07     [ Very Low ]1,157$1,681,259.84  1.49     [Low]Form 4-
2021-06-01Murray Stahl-Buy57Common Stock$1,453.12-$82,827.84  0.07     [ Very Low ]102,177$148,475,442.24  131.74   [Very High]Form 4By Horizon Kinetics Hard Assets LLC
2021-06-01Murray Stahl-Buy98Common Stock$1,453.12-$142,405.76  0.13     [ Low ]102,275$148,617,848.00  131.87   [Very High]Form 4By Horizon Kinetics Hard Assets LLC
2021-06-02Murray Stahl-Buy2Common Stock$1,490.62-$2,981.24  -102,277$152,456,141.74  131.87   [Very High]Form 4By Horizon Kinetics Hard Assets LLC
2021-06-02Murray Stahl-Buy1Common Stock$1,490.62-$1,490.62  -1,332$1,985,505.84  1.72     [Low]Form 4By Horizon Credit Opportunity Fund
2021-06-02Murray Stahl-Buy10Common Stock$1,490.62-$14,906.20  -788$1,174,608.56  1.02     [Very Low]Form 4By Horizon Common Inc
2021-06-02Murray Stahl-Buy1Common Stock$1,490.62-$1,490.62  -42,854$63,879,029.48  55.25    [High]Form 4By Polestar Offshore Fund
2021-06-02Murray Stahl-Buy2Common Stock$1,490.62-$2,981.24  -1,159$1,727,628.58  1.49     [Low]Form 4-
2021-06-02Murray Stahl-Buy1Common Stock$1,490.62-$1,490.62  -1,160$1,729,119.20  1.50     [Low]Form 4-
2021-06-02Murray Stahl-Buy12Common Stock$1,490.62-$17,887.44  0.02     [ Very Low ]228,195$340,152,030.90  294.22   [Very High]Form 4By Horizon Kinetics Asset Management LLC
2021-06-03Murray Stahl-Buy2Common Stock$1,470.00-$2,940.00  -102,279$150,350,130.00  131.87   [Very High]Form 4By Horizon Kinetics Hard Assets LLC
2021-06-03Murray Stahl-Buy1Common Stock$1,470.00-$1,470.00  -1,333$1,959,510.00  1.72     [Low]Form 4By Horizon Credit Opportunity Fund
2021-06-03Murray Stahl-Buy10Common Stock$1,470.00-$14,700.00  -798$1,173,060.00  1.03     [Very Low]Form 4By Horizon Common Inc
2021-06-03Murray Stahl-Buy1Common Stock$1,470.00-$1,470.00  -42,855$62,996,850.00  55.25    [High]Form 4By Polestar Offshore Fund
2021-06-03Murray Stahl-Buy2Common Stock$1,470.00-$2,940.00  -1,162$1,708,140.00  1.50     [Low]Form 4-
2021-06-03Murray Stahl-Buy1Common Stock$1,470.00-$1,470.00  -1,163$1,709,610.00  1.50     [Low]Form 4-
2021-06-03Murray Stahl-Buy12Common Stock$1,470.00-$17,640.00  0.02     [ Very Low ]228,207$335,464,290.00  294.23   [Very High]Form 4By Horizon Kinetics Asset Management LLC
2021-06-04Murray Stahl-Buy2Common Stock$1,486.34-$2,972.68  -102,281$152,024,341.54  131.87   [Very High]Form 4By HORIZON KINETICS HARD ASSETS, LLC
2021-06-04Murray Stahl-Buy1Common Stock$1,486.34-$1,486.34  -1,334$1,982,777.56  1.72     [Low]Form 4By HORIZON CREDIT OPPORTUNITY FUND
2021-06-04Murray Stahl-Buy10Common Stock$1,486.34-$14,863.40  -808$1,200,962.72  1.04     [Very Low]Form 4By HORIZON COMMON INC
2021-06-04Murray Stahl-Buy1Common Stock$1,486.34-$1,486.34  -42,856$63,698,587.04  55.26    [High]Form 4By POLESTAR OFFSHORE FUND
2021-06-04Murray Stahl-Buy2Common Stock$1,486.34-$2,972.68  -1,165$1,731,586.10  1.50     [Low]Form 4-
2021-06-04Murray Stahl-Buy1Common Stock$1,486.34-$1,486.34  -1,166$1,733,072.44  1.50     [Low]Form 4-
2021-06-04Murray Stahl-Buy12Common Stock$1,486.34-$17,836.08  0.02     [ Very Low ]228,219$339,211,028.46  294.25   [Very High]Form 4By Horizon Kinetics Asset Management LLC
2021-06-07Murray Stahl-Buy2Common Stock$1,507.00-$3,014.00  -102,283$154,140,481.00  131.88   [Very High]Form 4By Horizon Kinetics Hard Assets LLC
2021-06-07Murray Stahl-Buy1Common Stock$1,507.00-$1,507.00  -1,335$2,011,845.00  1.72     [Low]Form 4By Horizon Credit Opportunity Fund LP
2021-06-07Murray Stahl-Buy10Common Stock$1,507.00-$15,070.00  -818$1,232,726.00  1.05     [Very Low]Form 4By Horizon Common Inc
2021-06-07Murray Stahl-Buy1Common Stock$1,507.00-$1,507.00  -42,857$64,585,499.00  55.26    [High]Form 4By Polestar Offshore Fund Ltd
2021-06-07Murray Stahl-Buy2Common Stock$1,507.00-$3,014.00  -1,168$1,760,176.00  1.51     [Low]Form 4-
2021-06-07Murray Stahl-Buy1Common Stock$1,507.00-$1,507.00  -1,169$1,761,683.00  1.51     [Low]Form 4-
2021-06-07Murray Stahl-Buy12Common Stock$1,507.00-$18,084.00  0.02     [ Very Low ]228,231$343,944,117.00  294.26   [Very High]Form 4By Horizon Kinetics Asset Management LLC
2021-06-08Murray Stahl-Buy2Common Stock$1,532.83-$3,065.66  -102,285$156,785,516.55  131.88   [Very High]Form 4By Horizon Kinetics Hard Assets LLC
2021-06-08Murray Stahl-Buy1Common Stock$1,532.83-$1,532.83  -1,336$2,047,860.88  1.72     [Low]Form 4By Horizon Credit Opportunity Fund
2021-06-08Murray Stahl-Buy10Common Stock$1,532.83-$15,328.30  -828$1,269,183.24  1.07     [Very Low]Form 4By Horizon Common Inc
2021-06-08Murray Stahl-Buy1Common Stock$1,532.83-$1,532.83  -42,858$65,694,028.14  55.26    [High]Form 4By Polestar Offshore Fund
2021-06-08Murray Stahl-Buy2Common Stock$1,532.83-$3,065.66  -1,171$1,794,943.93  1.51     [Low]Form 4-
2021-06-08Murray Stahl-Buy1Common Stock$1,532.83-$1,532.83  -1,172$1,796,476.76  1.51     [Low]Form 4-
2021-06-08Murray Stahl-Buy12Common Stock$1,532.83-$18,393.96  0.02     [ Very Low ]228,243$349,857,717.69  294.28   [Very High]Form 4By Horizon Kinetics Asset Management LLC
2021-06-09Murray Stahl-Buy2Common Stock$1,522.00-$3,044.00  -102,287$155,680,814.00  131.88   [Very High]Form 4By Horizon Kinetics Hard Assets LLC
2021-06-09Murray Stahl-Buy1Common Stock$1,522.00-$1,522.00  -1,337$2,034,914.00  1.72     [Low]Form 4By Horizon Credit Opportunity Fund
2021-06-09Murray Stahl-Buy10Common Stock$1,522.00-$15,220.00  -838$1,275,436.00  1.08     [Very Low]Form 4By Horizon Common Inc
2021-06-09Murray Stahl-Buy1Common Stock$1,522.00-$1,522.00  -42,859$65,231,398.00  55.26    [High]Form 4By Polestar Offshore Fund
2021-06-09Murray Stahl-Buy2Common Stock$1,522.00-$3,044.00  -1,174$1,786,828.00  1.51     [Low]Form 4-
2021-06-09Murray Stahl-Buy1Common Stock$1,522.00-$1,522.00  -1,175$1,788,350.00  1.51     [Low]Form 4-
2021-06-09Murray Stahl-Buy12Common Stock$1,522.00-$18,264.00  0.02     [ Very Low ]228,255$347,404,110.00  294.29   [Very High]Form 4By Horizon Kinetics Asset Management LLC
2021-06-10Murray Stahl-Buy2Common Stock$1,491.99-$2,983.98  -102,289$152,614,165.11  131.88   [Very High]Form 4By Horizon Kinetics Hard Assets LLC
2021-06-10Murray Stahl-Buy1Common Stock$1,491.99-$1,491.99  -1,338$1,996,282.62  1.73     [Low]Form 4By Horizon Credit Opportunity Fund
2021-06-10Murray Stahl-Buy10Common Stock$1,491.99-$14,919.90  -848$1,265,207.52  1.09     [Very Low]Form 4By Horizon Common Inc.
2021-06-10Murray Stahl-Buy1Common Stock$1,491.99-$1,491.99  -42,860$63,946,691.40  55.26    [High]Form 4By Polestar Offshore Fund
2021-06-10Murray Stahl-Buy2Common Stock$1,491.99-$2,983.98  -1,177$1,756,072.23  1.52     [Low]Form 4-
2021-06-10Murray Stahl-Buy1Common Stock$1,491.99-$1,491.99  -1,178$1,757,564.22  1.52     [Low]Form 4-
2021-06-10Murray Stahl-Buy12Common Stock$1,491.99-$17,903.88  0.02     [ Very Low ]228,267$340,572,081.33  294.31   [Very High]Form 4By Horizon Kinetics Asset Management LLC
2021-06-11Murray Stahl-Buy2Common Stock$1,530.00-$3,060.00  -102,291$156,505,230.00  131.89   [Very High]Form 4By Horizon Kinetics Hard Assets LLC
2021-06-11Murray Stahl-Buy1Common Stock$1,530.00-$1,530.00  -1,339$2,048,670.00  1.73     [Low]Form 4By Horizon Credit Opportunity Fund
2021-06-11Murray Stahl-Buy10Common Stock$1,530.00-$15,300.00  -858$1,312,740.00  1.11     [Very Low]Form 4By Horizon Common Inc.
2021-06-11Murray Stahl-Buy1Common Stock$1,530.00-$1,530.00  -42,861$65,577,330.00  55.26    [High]Form 4By Polestar Offshore Fund
2021-06-11Murray Stahl-Buy2Common Stock$1,530.00-$3,060.00  -1,180$1,805,400.00  1.52     [Low]Form 4-
2021-06-11Murray Stahl-Buy1Common Stock$1,530.00-$1,530.00  -1,181$1,806,930.00  1.52     [Low]Form 4-
2021-06-11Murray Stahl-Buy12Common Stock$1,530.00-$18,360.00  0.02     [ Very Low ]228,279$349,266,870.00  294.33   [Very High]Form 4By Horizon Kinetics Asset Management LLC
2021-06-14Murray Stahl-Buy1Common Stock$1,498.00-$1,498.00  -42,862$64,207,276.00  55.26    [High]Form 4By Polestar Offshore Fund
2021-06-14Murray Stahl-Buy2Common Stock$1,498.00-$2,996.00  -102,293$153,234,914.00  131.89   [Very High]Form 4By Horizon Kinetics Hard Assets, LLC
2021-06-14Murray Stahl-Buy1Common Stock$1,498.00-$1,498.00  -1,340$2,007,320.00  1.73     [Low]Form 4By Horizon Credit Opportunity Fund
2021-06-14Murray Stahl-Buy10Common Stock$1,498.00-$14,980.00  -868$1,300,264.00  1.12     [Very Low]Form 4By Horizon Common Inc.
2021-06-14Murray Stahl-Buy2Common Stock$1,498.00-$2,996.00  -1,183$1,772,134.00  1.53     [Low]Form 4-
2021-06-14Murray Stahl-Buy1Common Stock$1,498.00-$1,498.00  -1,184$1,773,632.00  1.53     [Low]Form 4-
2021-06-14Murray Stahl-Buy12Common Stock$1,498.00-$17,976.00  0.02     [ Very Low ]228,291$341,979,918.00  294.34   [Very High]Form 4Horizon Kinetics Asset Management LLC
2021-06-15Murray Stahl-Buy1Common Stock$1,539.50-$1,539.50  -42,863$65,987,588.50  55.26    [High]Form 4By Polestar Offshore Fund
2021-06-15Murray Stahl-Buy2Common Stock$1,539.50-$3,079.00  -102,295$157,483,152.50  131.89   [Very High]Form 4By Horizon Kinetics Hard Assets, LLC
2021-06-15Murray Stahl-Buy1Common Stock$1,539.50-$1,539.50  -1,341$2,064,469.50  1.73     [Low]Form 4By Horizon Credit Opportunity Fund
2021-06-15Murray Stahl-Buy10Common Stock$1,539.50-$15,395.00  -878$1,351,681.00  1.13     [Very Low]Form 4By Horizon Common Inc.
2021-06-15Murray Stahl-Buy2Common Stock$1,539.50-$3,079.00  -1,186$1,825,847.00  1.53     [Low]Form 4-
2021-06-15Murray Stahl-Buy1Common Stock$1,539.50-$1,539.50  -1,187$1,827,386.50  1.53     [Low]Form 4-
2021-06-15Murray Stahl-Buy12Common Stock$1,539.50-$18,474.00  0.02     [ Very Low ]228,303$351,472,468.50  294.36   [Very High]Form 4By Horizon Kinetics Asset Management LLC
2021-06-16Murray Stahl-Buy1Common Stock$1,564.00-$1,564.00  -42,864$67,039,296.00  55.27    [High]Form 4By Polestar Offshore Fund
2021-06-16Murray Stahl-Buy2Common Stock$1,564.00-$3,128.00  -102,297$159,992,508.00  131.89   [Very High]Form 4By Horizon Kinetics Hard Assets, LLC
2021-06-16Murray Stahl-Buy1Common Stock$1,564.00-$1,564.00  -1,342$2,098,888.00  1.73     [Low]Form 4By Horizon Credit Opportunity Fund
2021-06-16Murray Stahl-Buy10Common Stock$1,564.00-$15,640.00  -888$1,388,832.00  1.14     [Very Low]Form 4By Horizon Common Inc.
2021-06-16Murray Stahl-Buy2Common Stock$1,564.00-$3,128.00  -1,189$1,859,596.00  1.53     [Low]Form 4-
2021-06-16Murray Stahl-Buy1Common Stock$1,564.00-$1,564.00  -1,190$1,861,160.00  1.53     [Low]Form 4-
2021-06-16Murray Stahl-Buy12Common Stock$1,564.00-$18,768.00  0.02     [ Very Low ]228,315$357,084,660.00  294.37   [Very High]Form 4By Horizon Kinetics Asset Management LLC
2021-06-17Murray Stahl-Buy1Common Stock$1,509.87-$1,509.87  -42,865$64,720,577.55  55.27    [High]Form 4By Polestar Offshore Fund
2021-06-17Murray Stahl-Buy2Common Stock$1,509.87-$3,019.74  -102,299$154,458,191.13  131.90   [Very High]Form 4By Horizon Kinetics Hard Assets LLC
2021-06-17Murray Stahl-Buy1Common Stock$1,509.87-$1,509.87  -1,343$2,027,755.41  1.73     [Low]Form 4By Horizon Credit Opportunity Fund
2021-06-17Murray Stahl-Buy10Common Stock$1,509.87-$15,098.70  -898$1,355,863.26  1.16     [Very Low]Form 4By Horizon Common Inc
2021-06-17Murray Stahl-Buy2Common Stock$1,509.87-$3,019.74  -1,192$1,799,765.04  1.54     [Low]Form 4-
2021-06-17Murray Stahl-Buy1Common Stock$1,509.87-$1,509.87  -1,193$1,801,274.91  1.54     [Low]Form 4-
2021-06-17Murray Stahl-Buy12Common Stock$1,509.87-$18,118.44  0.02     [ Very Low ]228,327$344,744,087.49  294.39   [Very High]Form 4By Horizon Kinetics Asset Management LLC
2021-06-18Murray Stahl-Buy1Common Stock$1,516.92-$1,516.92  -42,866$65,024,292.72  55.27    [High]Form 4By Polestar Offshore Fund
2021-06-18Murray Stahl-Buy2Common Stock$1,516.92-$3,033.84  -102,301$155,182,432.92  131.90   [Very High]Form 4By Horizon Kinetics Hard Assets LLC
2021-06-18Murray Stahl-Buy1Common Stock$1,516.92-$1,516.92  -1,344$2,038,740.48  1.73     [Low]Form 4By Horizon Credit Opportunity Fund
2021-06-18Murray Stahl-Buy10Common Stock$1,516.92-$15,169.20  -908$1,377,363.36  1.17     [Very Low]Form 4By Horizon Common Inc
2021-06-18Murray Stahl-Buy2Common Stock$1,516.92-$3,033.84  -1,195$1,812,719.40  1.54     [Low]Form 4-
2021-06-18Murray Stahl-Buy1Common Stock$1,516.92-$1,516.92  -1,196$1,814,236.32  1.54     [Low]Form 4-
2021-06-18Murray Stahl-Buy12Common Stock$1,516.92-$18,203.04  0.02     [ Very Low ]228,339$346,371,995.88  294.40   [Very High]Form 4By Horizon Kinetics Asset Management LLC
2021-06-21Murray Stahl-Buy1Common Stock$1,593.45-$1,593.45  -42,867$68,306,421.15  55.27    [High]Form 4By Polestar Offshore Fund
2021-06-21Murray Stahl-Buy2Common Stock$1,593.45-$3,186.90  -102,303$163,014,715.35  131.90   [Very High]Form 4By Horizon Kinetics Hard Assets, LLC
2021-06-21Murray Stahl-Buy1Common Stock$1,593.45-$1,593.45  -1,345$2,143,190.25  1.73     [Low]Form 4By Horizon Credit Opportunity Fund
2021-06-21Murray Stahl-Buy10Common Stock$1,593.45-$15,934.50  -918$1,462,787.10  1.18     [Very Low]Form 4By Horizon Common Inc
2021-06-21Murray Stahl-Buy2Common Stock$1,593.45-$3,186.90  -1,198$1,908,953.10  1.54     [Low]Form 4-
2021-06-21Murray Stahl-Buy1Common Stock$1,593.45-$1,593.45  -1,199$1,910,546.55  1.55     [Low]Form 4-
2021-06-21Murray Stahl-Buy12Common Stock$1,593.45-$19,121.40  0.02     [ Very Low ]228,351$363,865,900.95  294.42   [Very High]Form 4By Horizon Kinetics Asset Management LLC
2021-06-22Murray Stahl-Buy1Common Stock$1,590.00-$1,590.00  -42,868$68,160,120.00  55.27    [High]Form 4By Polestar Offshore Fund
2021-06-22Murray Stahl-Buy2Common Stock$1,590.00-$3,180.00  -102,305$162,664,950.00  131.90   [Very High]Form 4By Horizon Kinetics Hard Assets LLC
2021-06-22Murray Stahl-Buy1Common Stock$1,590.00-$1,590.00  -1,346$2,140,140.00  1.74     [Low]Form 4By Horizon Credit Opportunity Fund
2021-06-22Murray Stahl-Buy9Common Stock$1,590.00-$14,310.00  -927$1,473,930.00  1.20     [Very Low]Form 4By Horizon Common Inc
2021-06-22Murray Stahl-Buy2Common Stock$1,590.00-$3,180.00  -1,201$1,909,590.00  1.55     [Low]Form 4-
2021-06-22Murray Stahl-Buy1Common Stock$1,590.00-$1,590.00  -1,202$1,911,180.00  1.55     [Low]Form 4-
2021-06-22Murray Stahl-Buy12Common Stock$1,590.00-$19,080.00  0.02     [ Very Low ]228,363$363,097,170.00  294.43   [Very High]Form 4By Horizon Kinetics Asset Management LLC
2021-06-23Murray Stahl-Buy1Common Stock$1,607.88-$1,607.88  -42,869$68,928,207.72  55.27    [High]Form 4By Polestar Offshore Fund
2021-06-23Murray Stahl-Buy2Common Stock$1,607.88-$3,215.76  -102,307$164,497,379.16  131.91   [Very High]Form 4By Horizon Kinetics Hard Assets, LLC
2021-06-23Murray Stahl-Buy1Common Stock$1,607.88-$1,607.88  -1,347$2,165,814.36  1.74     [Low]Form 4By Horizon Credit Opportunity Fund
2021-06-23Murray Stahl-Buy9Common Stock$1,607.88-$14,470.92  -936$1,504,975.68  1.21     [Very Low]Form 4By Horizon Common Inc
2021-06-23Murray Stahl-Buy2Common Stock$1,607.88-$3,215.76  -1,204$1,935,887.52  1.55     [Low]Form 4-
2021-06-23Murray Stahl-Buy1Common Stock$1,607.88-$1,607.88  -1,205$1,937,495.40  1.55     [Low]Form 4-
2021-06-23Murray Stahl-Buy12Common Stock$1,607.88-$19,294.56  0.02     [ Very Low ]228,375$367,199,595.00  294.45   [Very High]Form 4By Horizon Kinetics Asset Management LLC
2021-06-24Murray Stahl-Buy1Common Stock$1,579.72-$1,579.72  -42,870$67,722,596.40  55.27    [High]Form 4By POLESTAR OFFSHORE FUND
2021-06-24Murray Stahl-Buy2Common Stock$1,579.72-$3,159.44  -102,309$161,619,573.48  131.91   [Very High]Form 4By HORIZON KINETICS HARD ASSETS, LLC
2021-06-24Murray Stahl-Buy1Common Stock$1,579.72-$1,579.72  -1,348$2,129,462.56  1.74     [Low]Form 4By HORIZON CREDIT OPPORTUNITY FUND
2021-06-24Murray Stahl-Buy9Common Stock$1,579.72-$14,217.48  -945$1,492,835.40  1.22     [Very Low]Form 4By HORIZON COMMON INC
2021-06-24Murray Stahl-Buy2Common Stock$1,579.72-$3,159.44  -1,207$1,906,722.04  1.56     [Low]Form 4-
2021-06-24Murray Stahl-Buy1Common Stock$1,579.72-$1,579.72  -1,208$1,908,301.76  1.56     [Low]Form 4-
2021-06-24Murray Stahl-Buy12Common Stock$1,579.72-$18,956.64  0.02     [ Very Low ]228,387$360,787,511.64  294.46   [Very High]Form 4By Horizon Kinetics Asset Management LLC
2021-06-25Murray Stahl-Buy1Common Stock$1,576.09-$1,576.09  -42,871$67,568,554.39  55.27    [High]Form 4By Polestar Offshore Fund
2021-06-25Murray Stahl-Buy2Common Stock$1,576.09-$3,152.18  -102,311$161,251,343.99  131.91   [Very High]Form 4By Horizon Kinetics Hard Assets, LLC
2021-06-25Murray Stahl-Buy1Common Stock$1,576.09-$1,576.09  -1,349$2,126,145.41  1.74     [Low]Form 4By Horizon Credit Opportunity Fund
2021-06-25Murray Stahl-Buy9Common Stock$1,576.09-$14,184.81  -954$1,503,589.86  1.23     [Very Low]Form 4By Horizon Common Inc.
2021-06-25Murray Stahl-Buy2Common Stock$1,576.09-$3,152.18  -1,210$1,907,068.90  1.56     [Low]Form 4-
2021-06-25Murray Stahl-Buy1Common Stock$1,576.09-$1,576.09  -1,211$1,908,644.99  1.56     [Low]Form 4-
2021-06-25Murray Stahl-Buy12Common Stock$1,576.09-$18,913.08  0.02     [ Very Low ]228,399$359,977,379.91  294.48   [Very High]Form 4By Horizon Kinetics Asset Management LLC
2021-06-28Murray Stahl-Buy1Common Stock$1,552.94-$1,552.94  -42,872$66,577,643.68  55.28    [High]Form 4By Polestar Offshore Fund
2021-06-28Murray Stahl-Buy2Common Stock$1,552.94-$3,105.88  -102,313$158,885,950.22  131.91   [Very High]Form 4By Horizon Kinetics Hard Assets LLC
2021-06-28Murray Stahl-Buy1Common Stock$1,552.94-$1,552.94  -1,350$2,096,469.00  1.74     [Low]Form 4By Horizon Credit Opportunity Fund
2021-06-28Murray Stahl-Buy8Common Stock$1,552.94-$12,423.52  -962$1,493,928.28  1.24     [Low]Form 4By Horizon Common Inc.
2021-06-28Murray Stahl-Buy2Common Stock$1,552.94-$3,105.88  -1,213$1,883,716.22  1.56     [Low]Form 4-
2021-06-28Murray Stahl-Buy1Common Stock$1,552.94-$1,552.94  -1,214$1,885,269.16  1.57     [Low]Form 4-
2021-06-28Murray Stahl-Buy12Common Stock$1,552.94-$18,635.28  0.02     [ Very Low ]228,411$354,708,578.34  294.50   [Very High]Form 4By Horizon Kinetics Asset Management LLC
2021-06-29Murray Stahl-Buy1Common Stock$1,560.65-$1,560.65  -42,873$66,909,747.45  55.28    [High]Form 4By Polestar Offshore Fund
2021-06-29Murray Stahl-Buy2Common Stock$1,560.65-$3,121.30  -102,315$159,677,904.75  131.92   [Very High]Form 4By Horizon Kinetics Hard Assets LLC
2021-06-29Murray Stahl-Buy1Common Stock$1,560.65-$1,560.65  -1,351$2,108,438.15  1.74     [Low]Form 4By Horizon Credit Opportunity Fund
2021-06-29Murray Stahl-Buy8Common Stock$1,560.65-$12,485.20  -970$1,513,830.50  1.25     [Low]Form 4By Horizon Common Inc.
2021-06-29Murray Stahl-Buy2Common Stock$1,560.65-$3,121.30  -1,216$1,897,750.40  1.57     [Low]Form 4-
2021-06-29Murray Stahl-Buy1Common Stock$1,560.65-$1,560.65  -1,217$1,899,311.05  1.57     [Low]Form 4-
2021-06-29Murray Stahl-Buy12Common Stock$1,560.65-$18,727.80  0.02     [ Very Low ]228,423$356,488,354.95  294.51   [Very High]Form 4By Horizon Kinetics Asset Management LLC
2021-06-30Murray Stahl-Buy1Common Stock$1,599.74-$1,599.74  -42,874$68,587,252.76  55.28    [High]Form 4By Polestar Offshore Fund
2021-06-30Murray Stahl-Buy2Common Stock$1,599.74-$3,199.48  -102,317$163,680,597.58  131.92   [Very High]Form 4By Horizon Kinetics Hard Assets LLC
2021-06-30Murray Stahl-Buy2Common Stock$1,599.74-$3,199.48  -5,397$8,633,796.78  6.96     [Average]Form 4By CDK Fund Ltd
2021-06-30Murray Stahl-Buy1Common Stock$1,599.74-$1,599.74  -2,458$3,932,160.92  3.17     [Low]Form 4By CDK Partners LP
2021-06-30Murray Stahl-Buy1Common Stock$1,599.74-$1,599.74  -1,352$2,162,848.48  1.74     [Low]Form 4By Horizon Credit Opportunity Fund
2021-06-30Murray Stahl-Buy5Common Stock$1,599.74-$7,998.70  -975$1,559,746.50  1.26     [Low]Form 4By Horizon Common Inc.
2021-06-30Murray Stahl-Buy2Common Stock$1,599.74-$3,199.48  -1,219$1,950,083.06  1.57     [Low]Form 4-
2021-06-30Murray Stahl-Buy1Common Stock$1,599.74-$1,599.74  -1,220$1,951,682.80  1.57     [Low]Form 4-
2021-06-30Murray Stahl-Buy12Common Stock$1,599.74-$19,196.88  0.02     [ Very Low ]228,435$365,436,606.90  294.53   [Very High]Form 4By Horizon Kinetics Asset Management LLC
2021-07-01Murray Stahl-Buy1Common Stock$1,615.84-$1,615.84  -42,875$69,279,140.00  55.28    [High]Form 4By Polestar Offshore Fund
2021-07-01Murray Stahl-Buy2Common Stock$1,615.84-$3,231.68  -102,319$165,331,132.96  131.92   [Very High]Form 4By Horizon Kinetics Hard Assets LLC
2021-07-01Murray Stahl-Buy2Common Stock$1,615.84-$3,231.68  -5,399$8,723,920.16  6.96     [Average]Form 4By CDK Fund Ltd
2021-07-01Murray Stahl-Buy1Common Stock$1,615.84-$1,615.84  -2,459$3,973,350.56  3.17     [Low]Form 4By CDK Partners LP
2021-07-01Murray Stahl-Buy1Common Stock$1,615.84-$1,615.84  -1,353$2,186,231.52  1.74     [Low]Form 4By Horizon Credit Opportunity Fund
2021-07-01Murray Stahl-Buy5Common Stock$1,615.84-$8,079.20  -980$1,583,523.20  1.26     [Low]Form 4By Horizon Common Inc.
2021-07-01Murray Stahl-Buy2Common Stock$1,615.84-$3,231.68  -1,222$1,974,556.48  1.58     [Low]Form 4-
2021-07-01Murray Stahl-Buy1Common Stock$1,615.84-$1,615.84  -1,223$1,976,172.32  1.58     [Low]Form 4-
2021-07-01Murray Stahl-Buy12Common Stock$1,615.84-$19,390.08  0.02     [ Very Low ]228,447$369,133,800.48  294.54   [Very High]Form 4By Horizon Kinetics Asset Management LLC
2021-07-02Murray Stahl-Buy1Common Stock$1,593.00-$1,593.00  -42,876$68,301,468.00  55.28    [High]Form 4By Polestar Offshore Fund
2021-07-02Murray Stahl-Buy2Common Stock$1,593.00-$3,186.00  -102,321$162,997,353.00  131.92   [Very High]Form 4By Horizon Kinetics Hard Assets LLC
2021-07-02Murray Stahl-Buy2Common Stock$1,593.00-$3,186.00  -5,401$8,603,793.00  6.96     [Average]Form 4By CDK Fund Ltd
2021-07-02Murray Stahl-Buy1Common Stock$1,593.00-$1,593.00  -2,460$3,918,780.00  3.17     [Low]Form 4By CDK Partners LP
2021-07-02Murray Stahl-Buy1Common Stock$1,593.00-$1,593.00  -1,354$2,156,922.00  1.75     [Low]Form 4By Horizon Credit Opportunity Fund
2021-07-02Murray Stahl-Buy5Common Stock$1,593.00-$7,965.00  -985$1,569,105.00  1.27     [Low]Form 4By Horizon Common Inc
2021-07-02Murray Stahl-Buy2Common Stock$1,593.00-$3,186.00  -1,225$1,951,425.00  1.58     [Low]Form 4-
2021-07-02Murray Stahl-Buy1Common Stock$1,593.00-$1,593.00  -1,226$1,953,018.00  1.58     [Low]Form 4-
2021-07-02Murray Stahl-Buy12Common Stock$1,593.00-$19,116.00  0.02     [ Very Low ]228,459$363,935,187.00  294.56   [Very High]Form 4By Horizon Kinetics Asset Management LLC
2021-07-06Murray Stahl-Buy1Common Stock$1,549.11-$1,549.11  -42,877$66,421,189.47  55.28    [High]Form 4By Polestar Offshore Fund
2021-07-06Murray Stahl-Buy2Common Stock$1,549.11-$3,098.22  -102,323$158,509,582.53  131.93   [Very High]Form 4By Horizon Kinetics Hard Assets LLC
2021-07-06Murray Stahl-Buy2Common Stock$1,549.11-$3,098.22  -5,403$8,369,841.33  6.97     [Average]Form 4By CDK Fund Ltd
2021-07-06Murray Stahl-Buy1Common Stock$1,549.11-$1,549.11  -2,461$3,812,359.71  3.17     [Low]Form 4By CDK Partners LP
2021-07-06Murray Stahl-Buy1Common Stock$1,549.11-$1,549.11  -1,355$2,099,044.05  1.75     [Low]Form 4By Horizon Credit Opportunity Fund
2021-07-06Murray Stahl-Buy5Common Stock$1,549.11-$7,745.55  -990$1,533,618.90  1.28     [Low]Form 4By Horizon Common Inc
2021-07-06Murray Stahl-Buy2Common Stock$1,549.11-$3,098.22  -1,228$1,902,307.08  1.58     [Low]Form 4-
2021-07-06Murray Stahl-Buy1Common Stock$1,549.11-$1,549.11  -1,229$1,903,856.19  1.58     [Low]Form 4-
2021-07-06Murray Stahl-Buy12Common Stock$1,549.11-$18,589.32  0.02     [ Very Low ]228,471$353,926,710.81  294.57   [Very High]Form 4By Horizon Kinetics Asset Management LLC
2021-07-02Murray Stahl-Buy48Common Stock$1,599.74-$76,787.52  0.06     [ Very Low ]102,371$163,766,983.54  131.99   [Very High]Form 4By Horizon Kinetics Hard Assets LLC
2021-07-07Murray Stahl-Buy1Common Stock$1,479.33-$1,479.33  -42,878$63,430,711.74  55.28    [High]Form 4By Polestar Offshore Fund
2021-07-07Murray Stahl-Buy2Common Stock$1,479.33-$2,958.66  -102,373$151,443,450.09  131.99   [Very High]Form 4By Horizon Kinetics Hard Assets LLC
2021-07-07Murray Stahl-Buy1Common Stock$1,479.33-$1,479.33  -1,356$2,005,971.48  1.75     [Low]Form 4By Horizon Credit Opportunity Fund
2021-07-07Murray Stahl-Buy5Common Stock$1,479.33-$7,396.65  -995$1,471,933.35  1.28     [Low]Form 4By Horizon Common Inc
2021-07-07Murray Stahl-Buy2Common Stock$1,479.33-$2,958.66  -1,231$1,821,055.23  1.59     [Low]Form 4-
2021-07-07Murray Stahl-Buy1Common Stock$1,479.33-$1,479.33  -1,232$1,822,534.56  1.59     [Low]Form 4-
2021-07-07Murray Stahl-Buy13Common Stock$1,479.33-$19,231.29  0.02     [ Very Low ]228,484$338,003,235.72  294.59   [Very High]Form 4By Horizon Kinetics Asset Management LLC
2021-07-08Murray Stahl-Buy1Common Stock$1,460.07-$1,460.07  -42,879$62,606,341.53  55.28    [High]Form 4By Polestar Offshore Fund
2021-07-08Murray Stahl-Buy2Common Stock$1,460.07-$2,920.14  -102,375$149,474,666.25  131.99   [Very High]Form 4By Horizon Kinetics Hard Assets LLC
2021-07-08Murray Stahl-Buy1Common Stock$1,460.07-$1,460.07  -1,357$1,981,314.99  1.75     [Low]Form 4By Horizon Credit Opportunity Fund
2021-07-08Murray Stahl-Buy5Common Stock$1,460.07-$7,300.35  -1,000$1,460,070.00  1.29     [Low]Form 4By Horizon Common Inc
2021-07-08Murray Stahl-Buy2Common Stock$1,460.07-$2,920.14  -1,234$1,801,726.38  1.59     [Low]Form 4-
2021-07-08Murray Stahl-Buy1Common Stock$1,460.07-$1,460.07  -1,235$1,803,186.45  1.59     [Low]Form 4-
2021-07-08Murray Stahl-Buy13Common Stock$1,460.07-$18,980.91  0.02     [ Very Low ]228,497$333,621,614.79  294.61   [Very High]Form 4By Horizon Kinetics Asset Management LLC
2021-07-09Murray Stahl-Buy1Common Stock$1,509.88-$1,509.88  -42,880$64,743,654.40  55.29    [High]Form 4By Polestar Offshore Fund
2021-07-09Murray Stahl-Buy1Common Stock$1,509.88-$1,509.88  -1,441$2,175,737.08  1.86     [Low]Form 4By Bermuda Liquidators II LLC
2021-07-09Murray Stahl-Buy2Common Stock$1,509.88-$3,019.76  -102,377$154,576,984.76  132.00   [Very High]Form 4By Horizon Kinetics Hard Assets LLC
2021-07-09Murray Stahl-Buy1Common Stock$1,509.88-$1,509.88  -1,358$2,050,417.04  1.75     [Low]Form 4By Horizon Credit Opportunity Fund
2021-07-09Murray Stahl-Buy5Common Stock$1,509.88-$7,549.40  -1,005$1,517,429.40  1.30     [Low]Form 4By Horizon Common, Inc.
2021-07-09Murray Stahl-Buy2Common Stock$1,509.88-$3,019.76  -1,237$1,867,721.56  1.59     [Low]Form 4-
2021-07-09Murray Stahl-Buy1Common Stock$1,509.88-$1,509.88  -1,238$1,869,231.44  1.60     [Low]Form 4-
2021-07-09Murray Stahl-Buy12Common Stock$1,509.88-$18,118.56  0.02     [ Very Low ]228,509$345,021,168.92  294.62   [Very High]Form 4By Horizon Kinetics Asset Management LLC
2021-07-12Murray Stahl-Buy1Common Stock$1,545.69-$1,545.69  -42,881$66,280,732.89  55.29    [High]Form 4By Polestar Offshore Fund
2021-07-12Murray Stahl-Buy1Common Stock$1,545.69-$1,545.69  -1,442$2,228,884.98  1.86     [Low]Form 4By Bermuda Liquidators II LLC
2021-07-12Murray Stahl-Buy2Common Stock$1,545.69-$3,091.38  -102,379$158,246,196.51  132.00   [Very High]Form 4By Horizon Kinetics Hard Assets, LLC
2021-07-12Murray Stahl-Buy1Common Stock$1,545.69-$1,545.69  -1,359$2,100,592.71  1.75     [Low]Form 4By Horizon Credit Opportunity Fund
2021-07-12Murray Stahl-Buy5Common Stock$1,545.69-$7,728.45  -1,010$1,561,146.90  1.30     [Low]Form 4By Horizon Common Inc.
2021-07-12Murray Stahl-Buy2Common Stock$1,545.69-$3,091.38  -1,240$1,916,655.60  1.60     [Low]Form 4-
2021-07-12Murray Stahl-Buy1Common Stock$1,545.69-$1,545.69  -1,241$1,918,201.29  1.60     [Low]Form 4-
2021-07-12Murray Stahl-Buy12Common Stock$1,545.69-$18,548.28  0.02     [ Very Low ]228,521$353,222,624.49  294.64   [Very High]Form 4By Horizon Kinetics Asset Management LLC
2021-07-13Murray Stahl-Buy2Common Stock$1,528.05-$3,056.10  -102,381$156,443,287.05  132.00   [Very High]Form 4By Horizon Kinetics Hard Assets LLC
2021-07-13Murray Stahl-Buy1Common Stock$1,528.05-$1,528.05  -1,360$2,078,148.00  1.75     [Low]Form 4By Horizon Credit Opportunity Fund
2021-07-13Murray Stahl-Buy5Common Stock$1,528.05-$7,640.25  -1,015$1,550,970.75  1.31     [Low]Form 4By Horizon Common Inc.
2021-07-13Murray Stahl-Buy1Common Stock$1,528.05-$1,528.05  -42,882$65,525,840.10  55.29    [High]Form 4By Polestar Offshore Fund
2021-07-13Murray Stahl-Buy2Common Stock$1,528.05-$3,056.10  -1,243$1,899,366.15  1.60     [Low]Form 4-
2021-07-13Murray Stahl-Buy1Common Stock$1,528.05-$1,528.05  -1,244$1,900,894.20  1.60     [Low]Form 4-
2021-07-13Murray Stahl-Buy1Common Stock$1,528.05-$1,528.05  -1,016$1,552,498.80  1.31     [Low]Form 4By Horizon Common Inc.
2021-07-13Murray Stahl-Buy12Common Stock$1,528.05-$18,336.60  0.02     [ Very Low ]228,533$349,209,850.65  294.65   [Very High]Form 4By Horizon Kinetics Asset Management LLC
2021-07-14Murray Stahl-Buy2Common Stock$1,477.65-$2,955.30  -102,383$151,286,239.95  132.00   [Very High]Form 4By Horizon Kinetics Hard Assets LLC
2021-07-14Murray Stahl-Buy1Common Stock$1,477.65-$1,477.65  -1,361$2,011,081.65  1.75     [Low]Form 4By Horizon Credit Opportunity Fund
2021-07-14Murray Stahl-Buy5Common Stock$1,477.65-$7,388.25  -1,021$1,508,680.65  1.32     [Low]Form 4By Horizon Common Inc.
2021-07-14Murray Stahl-Buy1Common Stock$1,477.65-$1,477.65  -42,883$63,366,064.95  55.29    [High]Form 4By Polestar Offshore Fund
2021-07-14Murray Stahl-Buy2Common Stock$1,477.65-$2,955.30  -1,246$1,841,151.90  1.61     [Low]Form 4-
2021-07-14Murray Stahl-Buy1Common Stock$1,477.65-$1,477.65  -1,247$1,842,629.55  1.61     [Low]Form 4-
2021-07-14Murray Stahl-Buy1Common Stock$1,477.65-$1,477.65  -1,022$1,510,158.30  1.32     [Low]Form 4By Horizon Common Inc.
2021-07-14Murray Stahl-Buy12Common Stock$1,477.65-$17,731.80  0.02     [ Very Low ]228,545$337,709,519.25  294.67   [Very High]Form 4By Horizon Kinetics Asset Management LLC
2021-07-15Murray Stahl-Buy2Common Stock$1,453.29-$2,906.58  -102,385$148,795,096.65  132.01   [Very High]Form 4By Horizon Kinetics Hard Assets LLC
2021-07-15Murray Stahl-Buy1Common Stock$1,453.29-$1,453.29  -1,362$1,979,380.98  1.76     [Low]Form 4By Horizon Credit Opportunity Fund
2021-07-15Murray Stahl-Buy5Common Stock$1,453.29-$7,266.45  -1,027$1,492,528.83  1.32     [Low]Form 4By Horizon Common Inc
2021-07-15Murray Stahl-Buy1Common Stock$1,453.29-$1,453.29  -42,884$62,322,888.36  55.29    [High]Form 4By Polestar Offshore Fund
2021-07-15Murray Stahl-Buy2Common Stock$1,453.29-$2,906.58  -1,249$1,815,159.21  1.61     [Low]Form 4-
2021-07-15Murray Stahl-Buy1Common Stock$1,453.29-$1,453.29  -1,250$1,816,612.50  1.61     [Low]Form 4-
2021-07-15Murray Stahl-Buy1Common Stock$1,453.29-$1,453.29  -1,028$1,493,982.12  1.33     [Low]Form 4By Horizon Common Inc
2021-07-15Murray Stahl-Buy12Common Stock$1,453.29-$17,439.48  0.02     [ Very Low ]228,557$332,159,602.53  294.68   [Very High]Form 4By Horizon Kinetics Asset Management LLC
2021-07-16Murray Stahl-Buy2Common Stock$1,415.70-$2,831.40  -102,387$144,949,275.90  132.01   [Very High]Form 4By Horizon Kinetics Hard Assets LLC
2021-07-16Murray Stahl-Buy1Common Stock$1,415.70-$1,415.70  -1,363$1,929,599.10  1.76     [Low]Form 4By Horizon Credit Opportunity Fund
2021-07-16Murray Stahl-Buy5Common Stock$1,415.70-$7,078.50  -1,033$1,462,418.10  1.33     [Low]Form 4By Horizon Common Inc
2021-07-16Murray Stahl-Buy1Common Stock$1,415.70-$1,415.70  -42,885$60,712,294.50  55.29    [High]Form 4By Polestar Offshore Fund
2021-07-16Murray Stahl-Buy2Common Stock$1,415.70-$2,831.40  -1,252$1,772,456.40  1.61     [Low]Form 4-
2021-07-16Murray Stahl-Buy1Common Stock$1,415.70-$1,415.70  -1,253$1,773,872.10  1.62     [Low]Form 4-
2021-07-16Murray Stahl-Buy1Common Stock$1,415.70-$1,415.70  -1,034$1,463,833.80  1.33     [Low]Form 4By Horizon Common Inc
2021-07-16Murray Stahl-Buy12Common Stock$1,415.70-$16,988.40  0.02     [ Very Low ]228,569$323,585,133.30  294.70   [Very High]Form 4By Horizon Kinetics Asset Management LLC
2021-07-19Murray Stahl-Buy2Common Stock$1,398.34-$2,796.68  -102,389$143,174,634.26  132.01   [Very High]Form 4By Horizon Kinetics Hard Assets, LLC
2021-07-19Murray Stahl-Buy1Common Stock$1,398.34-$1,398.34  -1,364$1,907,335.76  1.76     [Low]Form 4By Horizon Credit Opportunity Fund
2021-07-19Murray Stahl-Buy5Common Stock$1,398.34-$6,991.70  -1,039$1,452,875.26  1.34     [Low]Form 4By Horizon Common Inc
2021-07-19Murray Stahl-Buy1Common Stock$1,398.34-$1,398.34  -42,886$59,969,209.24  55.29    [High]Form 4By Polestar Offshore Fund
2021-07-19Murray Stahl-Buy2Common Stock$1,398.34-$2,796.68  -1,255$1,754,916.70  1.62     [Low]Form 4-
2021-07-19Murray Stahl-Buy1Common Stock$1,398.34-$1,398.34  -1,256$1,756,315.04  1.62     [Low]Form 4-
2021-07-19Murray Stahl-Buy13Common Stock$1,398.34-$18,178.42  0.02     [ Very Low ]228,582$319,635,353.88  294.72   [Very High]Form 4By Horizon Kinetics Asset Management LLC
2021-07-19Murray Stahl-Buy1Common Stock$1,398.34-$1,398.34  -1,040$1,454,273.60  1.34     [Low]Form 4By Horizon Common Inc
2021-07-20Murray Stahl-Buy2Common Stock$1,491.57-$2,983.14  -102,391$152,723,343.87  132.02   [Very High]Form 4By HORIZON KINETICS HARD ASSETS, LLC
2021-07-20Murray Stahl-Buy1Common Stock$1,491.57-$1,491.57  -1,365$2,035,993.05  1.76     [Low]Form 4By HORIZON CREDIT OPPORTUNITY FUND
2021-07-20Murray Stahl-Buy5Common Stock$1,491.57-$7,457.85  -1,045$1,558,690.65  1.35     [Low]Form 4By HORIZON COMMON INC
2021-07-20Murray Stahl-Buy1Common Stock$1,491.57-$1,491.57  -42,887$63,968,962.59  55.30    [High]Form 4By POLESTAR OFFSHORE FUND
2021-07-20Murray Stahl-Buy2Common Stock$1,491.57-$2,983.14  -1,258$1,876,395.06  1.62     [Low]Form 4-
2021-07-20Murray Stahl-Buy1Common Stock$1,491.57-$1,491.57  -1,259$1,877,886.63  1.62     [Low]Form 4-
2021-07-20Murray Stahl-Buy1Common Stock$1,491.57-$1,491.57  -1,046$1,560,182.22  1.35     [Low]Form 4By HORIZON COMMON INC
2021-07-20Murray Stahl-Buy13Common Stock$1,491.57-$19,390.41  0.02     [ Very Low ]228,595$340,965,444.15  294.73   [Very High]Form 4By Horizon Kinetics Asset Management LLC
2021-07-21Murray Stahl-Buy1Common Stock$1,524.04-$1,524.04  -42,888$65,363,027.52  55.30    [High]Form 4By Polestar Offshore Fund
2021-07-21Murray Stahl-Buy2Common Stock$1,524.04-$3,048.08  -102,393$156,051,027.72  132.02   [Very High]Form 4By Horizon Kinetics Hard Assets LLC
2021-07-21Murray Stahl-Buy1Common Stock$1,524.04-$1,524.04  -1,366$2,081,838.64  1.76     [Low]Form 4By Horizon Credit Opportunity Fund
2021-07-21Murray Stahl-Buy5Common Stock$1,524.04-$7,620.20  -1,051$1,601,766.04  1.36     [Low]Form 4By Horizon Common Inc
2021-07-21Murray Stahl-Buy2Common Stock$1,524.04-$3,048.08  -1,261$1,921,814.44  1.63     [Low]Form 4-
2021-07-21Murray Stahl-Buy1Common Stock$1,524.04-$1,524.04  -1,262$1,923,338.48  1.63     [Low]Form 4-
2021-07-21Murray Stahl-Buy13Common Stock$1,524.04-$19,812.52  0.02     [ Very Low ]228,608$348,407,736.32  294.75   [Very High]Form 4By Horizon Kinetics Asset Management LLC
2021-07-22Murray Stahl-Buy1Common Stock$1,508.68-$1,508.68  -42,889$64,705,776.52  55.30    [High]Form 4By Polestar Offshore Fund
2021-07-22Murray Stahl-Buy2Common Stock$1,508.68-$3,017.36  -102,395$154,481,288.60  132.02   [Very High]Form 4By Horizon Kinetics Hard Assets LLC
2021-07-22Murray Stahl-Buy1Common Stock$1,508.68-$1,508.68  -1,367$2,062,365.56  1.76     [Low]Form 4By Horizon Credit Opportunity Fund
2021-07-22Murray Stahl-Buy5Common Stock$1,508.68-$7,543.40  -1,056$1,593,166.08  1.36     [Low]Form 4By Horizon Common Inc
2021-07-22Murray Stahl-Buy2Common Stock$1,508.68-$3,017.36  -1,264$1,906,971.52  1.63     [Low]Form 4-
2021-07-22Murray Stahl-Buy1Common Stock$1,508.68-$1,508.68  -1,265$1,908,480.20  1.63     [Low]Form 4-
2021-07-22Murray Stahl-Buy13Common Stock$1,508.68-$19,612.84  0.02     [ Very Low ]228,621$344,915,930.28  294.77   [Very High]Form 4By Horizon Kinetics Asset Management LLC
2021-07-23Murray Stahl-Buy1Common Stock$1,499.99-$1,499.99  -42,890$64,334,571.10  55.30    [High]Form 4By Polestar Offshore Fund
2021-07-23Murray Stahl-Buy2Common Stock$1,499.99-$2,999.98  -102,397$153,594,476.03  132.02   [Very High]Form 4By Horizon Kinetics Hard Assets LLC
2021-07-23Murray Stahl-Buy1Common Stock$1,499.99-$1,499.99  -1,368$2,051,986.32  1.76     [Low]Form 4By Horizon Credit Opportunity Fund
2021-07-23Murray Stahl-Buy5Common Stock$1,499.99-$7,499.95  -1,061$1,591,489.39  1.37     [Low]Form 4By Horizon Common Inc
2021-07-23Murray Stahl-Buy2Common Stock$1,499.99-$2,999.98  -1,267$1,900,487.33  1.63     [Low]Form 4-
2021-07-23Murray Stahl-Buy1Common Stock$1,499.99-$1,499.99  -1,268$1,901,987.32  1.63     [Low]Form 4-
2021-07-23Murray Stahl-Buy13Common Stock$1,499.99-$19,499.87  0.02     [ Very Low ]228,364$342,543,716.36  294.44   [Very High]Form 4By Horizon Kinetics Asset Management LLC
2021-07-26Murray Stahl-Buy1Common Stock$1,496.20-$1,496.20  -42,891$64,173,514.20  55.30    [High]Form 4By Polestar Offshore Fund Ltd
2021-07-26Murray Stahl-Buy2Common Stock$1,496.20-$2,992.40  -102,399$153,209,383.80  132.03   [Very High]Form 4By Horizon Kinetics Hard Assets LLC
2021-07-26Murray Stahl-Buy1Common Stock$1,496.20-$1,496.20  -1,369$2,048,297.80  1.77     [Low]Form 4By Horizon Credit Opportunity Fund LP
2021-07-26Murray Stahl-Buy5Common Stock$1,496.20-$7,481.00  -1,066$1,594,949.20  1.37     [Low]Form 4By Horizon Common Inc
2021-07-26Murray Stahl-Buy2Common Stock$1,496.20-$2,992.40  -1,270$1,900,174.00  1.64     [Low]Form 4-
2021-07-26Murray Stahl-Buy1Common Stock$1,496.20-$1,496.20  -1,271$1,901,670.20  1.64     [Low]Form 4-
2021-07-26Murray Stahl-Buy7Common Stock$1,496.20-$10,473.40  -228,641$342,092,664.20  294.79   [Very High]Form 4By Horizon Kinetics Asset Management LLC
2021-07-27Murray Stahl-Buy1Common Stock$1,443.02-$1,443.02  -42,892$61,894,013.84  55.30    [High]Form 4By Polestar Offshore Fund
2021-07-27Murray Stahl-Buy2Common Stock$1,443.02-$2,886.04  -102,401$147,766,691.02  132.03   [Very High]Form 4By Horizon Kinetics Hard Assets LLC
2021-07-27Murray Stahl-Buy1Common Stock$1,443.02-$1,443.02  -1,370$1,976,937.40  1.77     [Low]Form 4By Horizon Credit Opportunity Fund
2021-07-27Murray Stahl-Buy5Common Stock$1,443.02-$7,215.10  -1,071$1,545,474.42  1.38     [Low]Form 4By Horizon Common Inc
2021-07-27Murray Stahl-Buy2Common Stock$1,443.02-$2,886.04  -1,273$1,836,964.46  1.64     [Low]Form 4-
2021-07-27Murray Stahl-Buy1Common Stock$1,443.02-$1,443.02  -1,274$1,838,407.48  1.64     [Low]Form 4-
2021-07-27Murray Stahl-Buy6Common Stock$1,443.02-$8,658.12  -228,647$329,942,193.94  294.80   [Very High]Form 4By Horizon Kinetics Asset Management LLC
2021-07-28Murray Stahl-Buy1Common Stock$1,483.07-$1,483.07  -42,893$63,613,321.51  55.30    [High]Form 4By Polestar Offshore Fund
2021-07-28Murray Stahl-Buy2Common Stock$1,483.07-$2,966.14  -102,403$151,870,817.21  132.03   [Very High]Form 4By Horizon Kinetics Hard Assets LLC
2021-07-28Murray Stahl-Buy1Common Stock$1,483.07-$1,483.07  -1,371$2,033,288.97  1.77     [Low]Form 4By Horizon Credit Opportunity Fund
2021-07-28Murray Stahl-Buy4Common Stock$1,483.07-$5,932.28  -1,075$1,594,300.25  1.39     [Low]Form 4By Horizon Common Inc
2021-07-28Murray Stahl-Buy2Common Stock$1,483.07-$2,966.14  -1,276$1,892,397.32  1.65     [Low]Form 4-
2021-07-28Murray Stahl-Buy1Common Stock$1,483.07-$1,483.07  -1,277$1,893,880.39  1.65     [Low]Form 4-
2021-07-28Murray Stahl-Buy6Common Stock$1,483.07-$8,898.42  -228,653$339,108,404.71  294.81   [Very High]Form 4By Horizon Kinetics Asset Management LLC
2021-07-29Murray Stahl-Buy1Common Stock$1,462.99-$1,462.99  -42,894$62,753,493.06  55.30    [High]Form 4By Polestar Offshore Fund
2021-07-29Murray Stahl-Buy2Common Stock$1,462.99-$2,925.98  -102,405$149,817,490.95  132.03   [Very High]Form 4By Horizon Kinetics Hard Assets LLC
2021-07-29Murray Stahl-Buy1Common Stock$1,462.99-$1,462.99  -1,372$2,007,222.28  1.77     [Low]Form 4By Horizon Credit Opportunity Fund
2021-07-29Murray Stahl-Buy4Common Stock$1,462.99-$5,851.96  -1,079$1,578,566.21  1.39     [Low]Form 4By Horizon Common Inc
2021-07-29Murray Stahl-Buy2Common Stock$1,462.99-$2,925.98  -1,279$1,871,164.21  1.65     [Low]Form 4-
2021-07-29Murray Stahl-Buy1Common Stock$1,462.99-$1,462.99  -1,280$1,872,627.20  1.65     [Low]Form 4-
2021-07-29Murray Stahl-Buy6Common Stock$1,462.99-$8,777.94  -228,659$334,525,830.41  294.82   [Very High]Form 4By Horizon Kinetics Asset Management LLC
2021-07-30Murray Stahl-Buy1Common Stock$1,492.55-$1,492.55  -42,895$64,022,932.25  55.31    [High]Form 4By Polestar Offshore Fund
2021-07-30Murray Stahl-Buy2Common Stock$1,492.55-$2,985.10  -102,407$152,847,567.85  132.04   [Very High]Form 4By Horizon Kinetics Hard Assets LLC
2021-07-30Murray Stahl-Buy1Common Stock$1,492.55-$1,492.55  -1,373$2,049,271.15  1.77     [Low]Form 4By Horizon Credit Opportunity Fund
2021-07-30Murray Stahl-Buy4Common Stock$1,492.55-$5,970.20  -1,083$1,616,431.65  1.40     [Low]Form 4By Horizon Common Inc.
2021-07-30Murray Stahl-Buy2Common Stock$1,492.55-$2,985.10  -1,282$1,913,449.10  1.65     [Low]Form 4-
2021-07-30Murray Stahl-Buy1Common Stock$1,492.55-$1,492.55  -1,283$1,914,941.65  1.65     [Low]Form 4-
2021-07-30Murray Stahl-Buy12Common Stock$1,492.55-$17,910.60  0.02     [ Very Low ]228,671$341,302,901.05  294.83   [Very High]Form 4By Horizon Kinetics Asset Management LLC
2021-08-02Murray Stahl-Buy1Common Stock$1,478.85-$1,478.85  -42,896$63,436,749.60  55.31    [High]Form 4By Polestar Offshore Fund
2021-08-02Murray Stahl-Buy2Common Stock$1,478.85-$2,957.70  -102,409$151,447,549.65  132.04   [Very High]Form 4By Horizon Kinetics Hard Assets, LLC
2021-08-02Murray Stahl-Buy1Common Stock$1,478.85-$1,478.85  -1,374$2,031,939.90  1.77     [Low]Form 4Horizon Credit Opportunity Fund
2021-08-02Murray Stahl-Buy4Common Stock$1,478.85-$5,915.40  -1,087$1,607,509.95  1.40     [Low]Form 4By Horizon Common Inc.
2021-08-02Murray Stahl-Buy2Common Stock$1,478.85-$2,957.70  -1,285$1,900,322.25  1.66     [Low]Form 4-
2021-08-02Murray Stahl-Buy1Common Stock$1,478.85-$1,478.85  -1,286$1,901,801.10  1.66     [Low]Form 4-
2021-08-02Murray Stahl-Buy12Common Stock$1,478.85-$17,746.20  0.02     [ Very Low ]228,683$338,187,854.55  294.85   [Very High]Form 4By Horizon Kinetics Asset Management LLC
2021-08-03Murray Stahl-Buy1Common Stock$1,485.00-$1,485.00  -42,897$63,702,045.00  55.31    [High]Form 4By Polestar Offshore Fund
2021-08-03Murray Stahl-Buy2Common Stock$1,485.00-$2,970.00  -102,411$152,080,335.00  132.04   [Very High]Form 4By Horizon Kinetics Hard Assets LLC
2021-08-03Murray Stahl-Buy1Common Stock$1,485.00-$1,485.00  -1,375$2,041,875.00  1.77     [Low]Form 4By Horizon Credit Opportunity Fund
2021-08-03Murray Stahl-Buy4Common Stock$1,485.00-$5,940.00  -1,091$1,620,135.00  1.41     [Low]Form 4By Horizon Common Inc.
2021-08-03Murray Stahl-Buy2Common Stock$1,485.00-$2,970.00  -1,288$1,912,680.00  1.66     [Low]Form 4-
2021-08-03Murray Stahl-Buy1Common Stock$1,485.00-$1,485.00  -1,289$1,914,165.00  1.66     [Low]Form 4-
2021-08-03Murray Stahl-Buy12Common Stock$1,485.00-$17,820.00  0.02     [ Very Low ]228,695$339,612,075.00  294.86   [Very High]Form 4By Horizon Kinetics Asset Management LLC
2021-08-03Murray Stahl-Sell18Common Stock$1,492.55$26,865.90  0.02     [ Very Low ]1,073$1,601,506.15  1.38     [Low]Form 4By Horizon Common Inc.
2021-08-03Murray Stahl-Buy18Common Stock$1,492.55-$26,865.90  0.02     [ Very Low ]102,429$152,880,403.95  132.06   [Very High]Form 4By Horizon Kinetics Hard Assets LLC
2021-08-03Murray Stahl-Sell20Common Stock$1,492.55$29,851.00  0.03     [ Very Low ]1,269$1,894,045.95  1.64     [Low]Form 4-
2021-08-03Murray Stahl-Buy20Common Stock$1,492.55-$29,851.00  0.03     [ Very Low ]102,449$152,910,254.95  132.09   [Very High]Form 4By Horizon Kinetics Hard Assets LLC
2021-08-03Murray Stahl-Sell10Common Stock$1,492.55$14,925.50  -1,259$1,879,120.45  1.62     [Low]Form 4-
2021-08-03Murray Stahl-Buy10Common Stock$1,492.55-$14,925.50  -102,459$152,925,180.45  132.10   [Very High]Form 4By Horizon Kinetics Hard Assets LLC
2021-08-03Murray Stahl-Buy48Common Stock$1,492.55-$71,642.40  0.06     [ Very Low ]102,507$152,996,822.85  132.16   [Very High]Form 4By Horizon Kinetics Hard Assets LLC
2021-08-04Murray Stahl-Buy1Common Stock$1,446.13-$1,446.13  -42,898$62,036,084.74  55.31    [High]Form 4By Polestar Offshore Fund
2021-08-04Murray Stahl-Buy2Common Stock$1,446.13-$2,892.26  -102,509$148,241,340.17  132.17   [Very High]Form 4By Horizon Kinetics Hard Assets LLC
2021-08-04Murray Stahl-Buy1Common Stock$1,446.13-$1,446.13  -1,376$1,989,874.88  1.77     [Low]Form 4By Horizon Credit Opportunity Fund
2021-08-04Murray Stahl-Buy4Common Stock$1,446.13-$5,784.52  -1,077$1,557,482.01  1.39     [Low]Form 4By Horizon Common, Inc.
2021-08-04Murray Stahl-Buy2Common Stock$1,446.13-$2,892.26  -1,261$1,823,569.93  1.63     [Low]Form 4-
2021-08-04Murray Stahl-Buy1Common Stock$1,446.13-$1,446.13  -1,262$1,825,016.06  1.63     [Low]Form 4-
2021-08-04Murray Stahl-Buy12Common Stock$1,446.13-$17,353.56  0.02     [ Very Low ]228,707$330,740,053.91  294.88   [Very High]Form 4By Horizon Kinetics Asset Management LLC
2021-08-05Murray Stahl-Buy1Common Stock$1,469.32-$1,469.32  -42,899$63,032,358.68  55.31    [High]Form 4By Polestar Offshore Fund
2021-08-05Murray Stahl-Buy2Common Stock$1,469.32-$2,938.64  -102,511$150,621,462.52  132.17   [Very High]Form 4By Horizon Kinetics Hard Assets, LLC
2021-08-05Murray Stahl-Buy1Common Stock$1,469.32-$1,469.32  -1,377$2,023,253.64  1.78     [Low]Form 4By Horizon Credit Opportunity Fund
2021-08-05Murray Stahl-Buy4Common Stock$1,469.32-$5,877.28  -1,081$1,588,334.92  1.39     [Low]Form 4By Horizon Common Inc.
2021-08-05Murray Stahl-Buy2Common Stock$1,469.32-$2,938.64  -1,264$1,857,220.48  1.63     [Low]Form 4-
2021-08-05Murray Stahl-Buy1Common Stock$1,469.32-$1,469.32  -1,265$1,858,689.80  1.63     [Low]Form 4-
2021-08-05Murray Stahl-Buy12Common Stock$1,469.32-$17,631.84  0.02     [ Very Low ]228,719$336,061,401.08  294.89   [Very High]Form 4By Horizon Kinetics Asset Management LLC
2021-08-06Murray Stahl-Buy1Common Stock$1,479.81-$1,479.81  -42,900$63,483,849.00  55.34    [High]Form 4By Polestar Offshore Fund
2021-08-06Murray Stahl-Buy2Common Stock$1,479.81-$2,959.62  -102,513$151,699,762.53  132.24   [Very High]Form 4By Horizon Kinetics Hard Assets LLC
2021-08-06Murray Stahl-Buy1Common Stock$1,479.81-$1,479.81  -1,378$2,039,178.18  1.78     [Low]Form 4By Horizon Credit Opportunity Fund
2021-08-06Murray Stahl-Buy4Common Stock$1,479.81-$5,919.24  -1,085$1,605,593.85  1.40     [Low]Form 4By Horizon Common Inc.
2021-08-06Murray Stahl-Buy2Common Stock$1,479.81-$2,959.62  -1,267$1,874,919.27  1.63     [Low]Form 4-
2021-08-06Murray Stahl-Buy1Common Stock$1,479.81-$1,479.81  -1,268$1,876,399.08  1.64     [Low]Form 4-
2021-08-06Murray Stahl-Buy12Common Stock$1,479.81-$17,757.72  0.02     [ Very Low ]228,731$338,478,421.11  295.06   [Very High]Form 4By Horizon Kinetics Asset Management LLC
2021-08-09Murray Stahl-Buy1Common Stock$1,486.20-$1,486.20  -42,901$63,759,466.20  55.34    [High]Form 4By Polestar Offshore Fund Ltd
2021-08-09Murray Stahl-Buy2Common Stock$1,486.20-$2,972.40  -102,515$152,357,793.00  132.24   [Very High]Form 4By Horizon Kinetics Hard Assets LLC
2021-08-09Murray Stahl-Buy1Common Stock$1,486.20-$1,486.20  -1,379$2,049,469.80  1.78     [Low]Form 4By Horizon Credit Opportunity Fund LP
2021-08-09Murray Stahl-Buy4Common Stock$1,486.20-$5,944.80  -1,089$1,618,471.80  1.40     [Low]Form 4By Horizon Common Inc
2021-08-09Murray Stahl-Buy2Common Stock$1,486.20-$2,972.40  -1,270$1,887,474.00  1.64     [Low]Form 4-
2021-08-09Murray Stahl-Buy1Common Stock$1,486.20-$1,486.20  -1,271$1,888,960.20  1.64     [Low]Form 4-
2021-08-09Murray Stahl-Buy12Common Stock$1,486.20-$17,834.40  0.02     [ Very Low ]228,743$339,957,846.60  295.08   [Very High]Form 4By Horizon Kinetics Asset Management LLC
2021-08-10Murray Stahl-Buy1Common Stock$1,504.99-$1,504.99  -42,902$64,567,080.98  55.34    [High]Form 4By Polestar Offshore Fund
2021-08-10Murray Stahl-Buy2Common Stock$1,504.99-$3,009.98  -102,517$154,287,059.83  132.25   [Very High]Form 4By Horizon Kinetics Hard Assets, LLC
2021-08-10Murray Stahl-Buy1Common Stock$1,504.99-$1,504.99  -1,380$2,076,886.20  1.78     [Low]Form 4By Horizon Credit Opportunity Fund
2021-08-10Murray Stahl-Buy4Common Stock$1,504.99-$6,019.96  -1,093$1,644,954.07  1.41     [Low]Form 4By Horizon Common Inc
2021-08-10Murray Stahl-Buy2Common Stock$1,504.99-$3,009.98  -1,273$1,915,852.27  1.64     [Low]Form 4-
2021-08-10Murray Stahl-Buy1Common Stock$1,504.99-$1,504.99  -1,274$1,917,357.26  1.64     [Low]Form 4-
2021-08-10Murray Stahl-Buy12Common Stock$1,504.99-$18,059.88  0.02     [ Very Low ]228,755$344,273,987.45  295.09   [Very High]Form 4By Horizon Kinetics Asset Management LLC
2021-08-11Murray Stahl-Buy1Common Stock$1,491.38-$1,491.38  -42,903$63,984,676.14  55.34    [High]Form 4By Polestar Offshore Fund
2021-08-11Murray Stahl-Buy2Common Stock$1,491.38-$2,982.76  -102,519$152,894,786.22  132.25   [Very High]Form 4By Horizon Kinetics Hard Assets LLC
2021-08-11Murray Stahl-Buy1Common Stock$1,491.38-$1,491.38  -1,381$2,059,595.78  1.78     [Low]Form 4By Horizon Credit Opportunity Fund
2021-08-11Murray Stahl-Buy4Common Stock$1,491.38-$5,965.52  -1,097$1,636,043.86  1.42     [Low]Form 4By Horizon Common Inc
2021-08-11Murray Stahl-Buy2Common Stock$1,491.38-$2,982.76  -1,276$1,903,000.88  1.65     [Low]Form 4-
2021-08-11Murray Stahl-Buy1Common Stock$1,491.38-$1,491.38  -1,277$1,904,492.26  1.65     [Low]Form 4-
2021-08-11Murray Stahl-Buy12Common Stock$1,491.38-$17,896.56  0.02     [ Very Low ]228,767$341,178,528.46  295.11   [Very High]Form 4By Horizon Kinetics Asset Management LLC
2021-08-12Murray Stahl-Buy1Common Stock$1,508.55-$1,508.55  -42,904$64,722,829.20  55.35    [High]Form 4By Polestar Offshore Fund
2021-08-12Murray Stahl-Buy2Common Stock$1,508.55-$3,017.10  -102,521$154,658,054.55  132.25   [Very High]Form 4By Horizon Kinetics Hard Assets, LLC
2021-08-12Murray Stahl-Buy1Common Stock$1,508.55-$1,508.55  -1,382$2,084,816.10  1.78     [Low]Form 4By Horizon Credit Opportunity Fund
2021-08-12Murray Stahl-Buy3Common Stock$1,508.55-$4,525.65  -1,100$1,659,405.00  1.42     [Low]Form 4By Horizon Common Inc
2021-08-12Murray Stahl-Buy2Common Stock$1,508.55-$3,017.10  -1,279$1,929,435.45  1.65     [Low]Form 4-
2021-08-12Murray Stahl-Buy1Common Stock$1,508.55-$1,508.55  -1,280$1,930,944.00  1.65     [Low]Form 4-
2021-08-12Murray Stahl-Buy12Common Stock$1,508.55-$18,102.60  0.02     [ Very Low ]228,779$345,124,560.45  295.12   [Very High]Form 4By Horizon Kinetics Asset Management LLC
2021-08-13Murray Stahl-Buy1Common Stock$1,483.39-$1,483.39  -42,905$63,644,847.95  55.35    [High]Form 4By Polestar Offshore Fund
2021-08-13Murray Stahl-Buy2Common Stock$1,483.39-$2,966.78  -102,523$152,081,592.97  132.25   [Very High]Form 4By Horizon Kinetics Hard Assets LLC
2021-08-13Murray Stahl-Buy1Common Stock$1,483.39-$1,483.39  -1,383$2,051,528.37  1.78     [Low]Form 4By Horizon Credit Opportunity Fund
2021-08-13Murray Stahl-Buy3Common Stock$1,483.39-$4,450.17  -1,103$1,636,179.17  1.42     [Low]Form 4By Horizon Common Inc.
2021-08-13Murray Stahl-Buy2Common Stock$1,483.39-$2,966.78  -1,282$1,901,705.98  1.65     [Low]Form 4-
2021-08-13Murray Stahl-Buy1Common Stock$1,483.39-$1,483.39  -1,283$1,903,189.37  1.66     [Low]Form 4-
2021-08-13Murray Stahl-Buy12Common Stock$1,483.39-$17,800.68  0.02     [ Very Low ]228,791$339,386,281.49  295.14   [Very High]Form 4By Horizon Kinetics Asset Management LLC
2021-08-16Murray Stahl-Buy1Common Stock$1,449.16-$1,449.16  -42,906$62,177,658.96  55.35    [High]Form 4By Polestar Offshore Fund
2021-08-16Murray Stahl-Buy2Common Stock$1,449.16-$2,898.32  -102,525$148,575,129.00  132.26   [Very High]Form 4By Horizon Kinetics Hard Assets LLC
2021-08-16Murray Stahl-Buy1Common Stock$1,449.16-$1,449.16  -1,384$2,005,637.44  1.79     [Low]Form 4By Horizon Credit Opportunity Fund
2021-08-16Murray Stahl-Buy3Common Stock$1,449.16-$4,347.48  -1,106$1,602,770.96  1.43     [Low]Form 4By Horizon Common Inc.
2021-08-16Murray Stahl-Buy2Common Stock$1,449.16-$2,898.32  -1,285$1,862,170.60  1.66     [Low]Form 4-
2021-08-16Murray Stahl-Buy1Common Stock$1,449.16-$1,449.16  -1,286$1,863,619.76  1.66     [Low]Form 4-
2021-08-16Murray Stahl-Buy12Common Stock$1,449.16-$17,389.92  0.02     [ Very Low ]228,803$331,572,155.48  295.15   [Very High]Form 4By Horizon Kinetics Asset Management LLC
2021-08-17Murray Stahl-Buy3Common Stock$1,425.13-$4,275.39  -1,109$1,580,469.17  1.43     [Low]Form 4By Horizon Common Inc.
2021-08-17Murray Stahl-Buy1Common Stock$1,425.13-$1,425.13  -1,385$1,973,805.05  1.79     [Low]Form 4By Horizon Credit Opportunity Fund
2021-08-17Murray Stahl-Buy2Common Stock$1,425.13-$2,850.26  -102,527$146,114,303.51  132.26   [Very High]Form 4By Horizon Kinetics Hard Assets, LLC
2021-08-17Murray Stahl-Buy2Common Stock$1,425.13-$2,850.26  -1,288$1,835,567.44  1.66     [Low]Form 4-
2021-08-17Murray Stahl-Buy1Common Stock$1,425.13-$1,425.13  -1,289$1,836,992.57  1.66     [Low]Form 4-
2021-08-17Murray Stahl-Buy1Common Stock$1,425.13-$1,425.13  -42,907$61,148,052.91  55.35    [High]Form 4By Polestar Offshore Fund
2021-08-17Murray Stahl-Buy12Common Stock$1,425.13-$17,101.56  0.02     [ Very Low ]228,815$326,091,120.95  295.17   [Very High]Form 4By Horizon Kinetics Asset Management LLC
2021-08-18Murray Stahl-Buy2Common Stock$1,369.50-$2,739.00  -102,529$140,413,465.50  132.26   [Very High]Form 4By Horizon Kinetics Hard Assets LLC
2021-08-18Murray Stahl-Buy1Common Stock$1,369.50-$1,369.50  -1,386$1,898,127.00  1.79     [Low]Form 4By Horizon Credit Opportunity Fund
2021-08-18Murray Stahl-Buy3Common Stock$1,369.50-$4,108.50  -1,112$1,522,884.00  1.43     [Low]Form 4By Horizon Common Inc.
2021-08-18Murray Stahl-Buy1Common Stock$1,369.50-$1,369.50  -42,908$58,762,506.00  55.35    [High]Form 4By Polestar Offshore Fund
2021-08-18Murray Stahl-Buy2Common Stock$1,369.50-$2,739.00  -1,291$1,768,024.50  1.67     [Low]Form 4-
2021-08-18Murray Stahl-Buy1Common Stock$1,369.50-$1,369.50  -1,292$1,769,394.00  1.67     [Low]Form 4-
2021-08-18Murray Stahl-Buy12Common Stock$1,369.50-$16,434.00  0.02     [ Very Low ]228,827$313,378,576.50  295.18   [Very High]Form 4By Horizon Kinetics Asset Management LLC
2021-08-19Murray Stahl-Buy2Common Stock$1,324.25-$2,648.50  -102,531$135,776,676.75  132.26   [Very High]Form 4By Horizon Kinetics Hard Assets LLC
2021-08-19Murray Stahl-Buy1Common Stock$1,324.25-$1,324.25  -1,387$1,836,734.75  1.79     [Low]Form 4By Horizon Credit Opportunity Fund
2021-08-19Murray Stahl-Buy3Common Stock$1,324.25-$3,972.75  -1,115$1,476,538.75  1.44     [Low]Form 4By Horizon Common, Inc.
2021-08-19Murray Stahl-Buy1Common Stock$1,324.25-$1,324.25  -42,909$56,822,243.25  55.35    [High]Form 4By Polestar Offshore Fund
2021-08-19Murray Stahl-Buy2Common Stock$1,324.25-$2,648.50  -1,294$1,713,579.50  1.67     [Low]Form 4-
2021-08-19Murray Stahl-Buy1Common Stock$1,324.25-$1,324.25  -1,295$1,714,903.75  1.67     [Low]Form 4-
2021-08-19Murray Stahl-Buy12Common Stock$1,324.25-$15,891.00  0.02     [ Very Low ]228,839$303,040,045.75  295.20   [Very High]Form 4By Horizon Kinetics Asset Management LLC
2021-08-20Murray Stahl-Buy1Common Stock$1,332.64-$1,332.64  -42,910$57,183,582.40  55.35    [High]Form 4By Polestar Offshore Fund
2021-08-20Murray Stahl-Buy2Common Stock$1,332.64-$2,665.28  -102,533$136,639,577.12  132.27   [Very High]Form 4By Horizon Kinetics Hard Assets LLC
2021-08-20Murray Stahl-Buy1Common Stock$1,332.64-$1,332.64  -1,388$1,849,704.32  1.79     [Low]Form 4By Horizon Credit Opportunity Fund
2021-08-20Murray Stahl-Buy3Common Stock$1,332.64-$3,997.92  -1,118$1,489,891.52  1.44     [Low]Form 4By Horizon Common Inc
2021-08-20Murray Stahl-Buy2Common Stock$1,332.64-$2,665.28  -1,297$1,728,434.08  1.67     [Low]Form 4-
2021-08-20Murray Stahl-Buy1Common Stock$1,332.64-$1,332.64  -1,298$1,729,766.72  1.67     [Low]Form 4-
2021-08-20Murray Stahl-Buy12Common Stock$1,332.64-$15,991.68  0.02     [ Very Low ]228,851$304,975,996.64  295.22   [Very High]Form 4By Horizon Kinetics Asset Management LLC
2021-08-23Murray Stahl-Buy1Common Stock$1,364.00-$1,364.00  -42,911$58,530,604.00  55.35    [High]Form 4By Polestar Offshore Fund
2021-08-23Murray Stahl-Buy2Common Stock$1,364.00-$2,728.00  -102,535$139,857,740.00  132.27   [Very High]Form 4By Horizon Kinetics Hard Assets LLC
2021-08-23Murray Stahl-Buy1Common Stock$1,364.00-$1,364.00  -1,389$1,894,596.00  1.79     [Low]Form 4By Horizon Credit Opportunity Fund
2021-08-23Murray Stahl-Buy3Common Stock$1,364.00-$4,092.00  -1,121$1,529,044.00  1.45     [Low]Form 4By Horizon Common Inc
2021-08-23Murray Stahl-Buy2Common Stock$1,364.00-$2,728.00  -1,300$1,773,200.00  1.68     [Low]Form 4-
2021-08-23Murray Stahl-Buy1Common Stock$1,364.00-$1,364.00  -1,301$1,774,564.00  1.68     [Low]Form 4-
2021-08-23Murray Stahl-Buy12Common Stock$1,364.00-$16,368.00  0.02     [ Very Low ]228,863$312,169,132.00  295.23   [Very High]Form 4By Horizon Kinetics Asset Management LLC
2021-08-20Dana F. Mcginnis-Sell100Common Stock$1,324.00$132,400.00  0.13     [ Low ]200$264,800.00  0.26     [Very Low]Form 4See Footnote
2021-08-20Dana F. Mcginnis-Sell100Common Stock$1,330.00$133,000.00  0.13     [ Low ]100$133,000.00  0.13     [Very Low]Form 4See Footnote
2021-08-20Dana F. Mcginnis-Sell100Common Stock$1,344.00$134,400.00  0.13     [ Low ]0$0.00  -Form 4See Footnote
2021-08-24Murray Stahl-Buy1Common Stock$1,392.43-$1,392.43  -42,912$59,751,956.16  55.36    [High]Form 4By Polestar Offshore Fund
2021-08-24Murray Stahl-Buy2Common Stock$1,392.43-$2,784.86  -102,537$142,775,594.91  132.27   [Very High]Form 4By Horizon Kinetics Hard Assets LLC
2021-08-24Murray Stahl-Buy1Common Stock$1,392.43-$1,392.43  -1,390$1,935,477.70  1.79     [Low]Form 4By Horizon Credit Opportunity Fund
2021-08-24Murray Stahl-Buy3Common Stock$1,392.43-$4,177.29  -1,124$1,565,091.32  1.45     [Low]Form 4By Horizon Common Inc
2021-08-24Murray Stahl-Buy2Common Stock$1,392.43-$2,784.86  -1,303$1,814,336.29  1.68     [Low]Form 4-
2021-08-24Murray Stahl-Buy1Common Stock$1,392.43-$1,392.43  -1,304$1,815,728.72  1.68     [Low]Form 4-
2021-08-24Murray Stahl-Buy12Common Stock$1,392.43-$16,709.16  0.02     [ Very Low ]228,875$318,692,416.25  295.25   [Very High]Form 4By Horizon Kinetics Asset Management LLC
2021-08-25Murray Stahl-Buy3Common Stock$1,416.92-$4,250.76  -1,127$1,596,868.84  1.45     [Low]Form 4By Horizon Common Inc.
2021-08-25Murray Stahl-Buy1Common Stock$1,416.92-$1,416.92  -1,391$1,970,935.72  1.79     [Low]Form 4By Horizon Credit Opportunity Fund
2021-08-25Murray Stahl-Buy2Common Stock$1,416.92-$2,833.84  -102,539$145,289,559.88  132.27   [Very High]Form 4By Horizon Kinetics Hard Assets LLC
2021-08-25Murray Stahl-Buy2Common Stock$1,416.92-$2,833.84  -1,306$1,850,497.52  1.68     [Low]Form 4-
2021-08-25Murray Stahl-Buy1Common Stock$1,416.92-$1,416.92  -1,307$1,851,914.44  1.69     [Low]Form 4-
2021-08-25Murray Stahl-Buy1Common Stock$1,416.92-$1,416.92  -42,913$60,804,287.96  55.36    [High]Form 4By Polestar Offshore Fund
2021-08-25Murray Stahl-Buy12Common Stock$1,416.92-$17,003.04  0.02     [ Very Low ]228,887$324,314,568.04  295.26   [Very High]Form 4By Horizon Kinetics Asset Management LLC
2021-08-26Murray Stahl-Buy1Common Stock$1,381.02-$1,381.02  -42,914$59,265,092.28  55.36    [High]Form 4By Polestar Offshore Fund
2021-08-26Murray Stahl-Buy2Common Stock$1,381.02-$2,762.04  -102,541$141,611,171.82  132.28   [Very High]Form 4By Horizon Kinetics Hard Assets LLC
2021-08-26Murray Stahl-Buy1Common Stock$1,381.02-$1,381.02  -1,392$1,922,379.84  1.80     [Low]Form 4By Horizon Credit Opportunity Fund
2021-08-26Murray Stahl-Buy2Common Stock$1,381.02-$2,762.04  -1,129$1,559,171.58  1.46     [Low]Form 4By Horizon Common Inc.
2021-08-26Murray Stahl-Buy2Common Stock$1,381.02-$2,762.04  -1,309$1,807,755.18  1.69     [Low]Form 4-
2021-08-26Murray Stahl-Buy1Common Stock$1,381.02-$1,381.02  -1,310$1,809,136.20  1.69     [Low]Form 4-
2021-08-26Murray Stahl-Buy12Common Stock$1,381.02-$16,572.24  0.02     [ Very Low ]228,899$316,114,096.98  295.28   [Very High]Form 4By Horizon Kinetics Asset Management LLC
2021-08-26Murray Stahl-Sell4Common Stock$1,492.55$5,970.20  -1,125$1,679,118.75  1.45     [Low]Form 4By Horizon Common Inc.
2021-08-26Murray Stahl-Buy4Common Stock$1,492.55-$5,970.20  -102,545$153,053,539.75  132.28   [Very High]Form 4By Horizon Kinetics Hard Assets LLC
2021-08-27Murray Stahl-Buy1Common Stock$1,415.00-$1,415.00  -42,915$60,724,725.00  55.36    [High]Form 4By Polestar Offshore Fund
2021-08-27Murray Stahl-Buy2Common Stock$1,415.00-$2,830.00  -102,547$145,104,005.00  132.28   [Very High]Form 4By Horizon Kinetics Hard Assets, LLC
2021-08-27Murray Stahl-Buy1Common Stock$1,415.00-$1,415.00  -1,393$1,971,095.00  1.80     [Low]Form 4By Horizon Credit Opportunity Fund
2021-08-27Murray Stahl-Buy2Common Stock$1,415.00-$2,830.00  -1,127$1,594,705.00  1.45     [Low]Form 4By Horizon Common Inc.
2021-08-27Murray Stahl-Buy2Common Stock$1,415.00-$2,830.00  -1,312$1,856,480.00  1.69     [Low]Form 4-
2021-08-27Murray Stahl-Buy1Common Stock$1,415.00-$1,415.00  -1,313$1,857,895.00  1.69     [Low]Form 4-
2021-08-27Murray Stahl-Buy12Common Stock$1,415.00-$16,980.00  0.02     [ Very Low ]228,911$323,909,065.00  295.29   [Very High]Form 4By Horizon Kinetics Asset Management LLC
2021-08-30Murray Stahl-Buy1Common Stock$1,415.41-$1,415.41  -42,916$60,743,735.56  55.36    [High]Form 4By Polestar Offshore Fund
2021-08-30Murray Stahl-Buy2Common Stock$1,415.41-$2,830.82  -102,549$145,148,880.09  132.29   [Very High]Form 4By Horizon Kinetics Hard Assets LLC
2021-08-30Murray Stahl-Buy1Common Stock$1,415.41-$1,415.41  -1,394$1,973,081.54  1.80     [Low]Form 4By Horizon Credit Opportunity Fund
2021-08-30Murray Stahl-Buy2Common Stock$1,415.41-$2,830.82  -1,129$1,597,997.89  1.46     [Low]Form 4By Horizon Common Inc.
2021-08-30Murray Stahl-Buy2Common Stock$1,415.41-$2,830.82  -1,315$1,861,264.15  1.70     [Low]Form 4-
2021-08-30Murray Stahl-Buy1Common Stock$1,415.41-$1,415.41  -1,316$1,862,679.56  1.70     [Low]Form 4-
2021-08-30Murray Stahl-Buy12Common Stock$1,415.41-$16,984.92  0.02     [ Very Low ]228,923$324,019,903.43  295.31   [Very High]Form 4By Horizon Kinetics Asset Management LLC
2021-08-31Murray Stahl-Buy1Common Stock$1,359.74-$1,359.74  -42,917$58,355,961.58  55.36    [High]Form 4By Polestar Offshore Fund
2021-08-31Murray Stahl-Buy2Common Stock$1,359.74-$2,719.48  -102,551$139,442,696.74  132.29   [Very High]Form 4By Horizon Kinetics Hard Assets LLC
2021-08-31Murray Stahl-Buy1Common Stock$1,359.74-$1,359.74  -1,395$1,896,837.30  1.80     [Low]Form 4By Horizon Credit Opportunity Fund
2021-08-31Murray Stahl-Buy2Common Stock$1,359.74-$2,719.48  -1,131$1,537,865.94  1.46     [Low]Form 4By Horizon Common Inc.
2021-08-31Murray Stahl-Buy2Common Stock$1,359.74-$2,719.48  -1,318$1,792,137.32  1.70     [Low]Form 4-
2021-08-31Murray Stahl-Buy1Common Stock$1,359.74-$1,359.74  -1,319$1,793,497.06  1.70     [Low]Form 4-
2021-08-31Murray Stahl-Buy12Common Stock$1,359.74-$16,316.88  0.02     [ Very Low ]228,935$311,292,076.90  295.32   [Very High]Form 4By Horizon Kinetics Asset Management LLC
2021-09-01Murray Stahl-Buy1Common Stock$1,354.85-$1,354.85  -42,918$58,147,452.30  55.36    [High]Form 4By Polestar Offshore Fund
2021-09-01Murray Stahl-Buy2Common Stock$1,354.85-$2,709.70  -102,553$138,943,932.05  132.29   [Very High]Form 4By Horizon Kinetics Hard Assets LLC
2021-09-01Murray Stahl-Buy1Common Stock$1,354.85-$1,354.85  -1,396$1,891,370.60  1.80     [Low]Form 4By Horizon Credit Opportunity Fund
2021-09-01Murray Stahl-Buy2Common Stock$1,354.85-$2,709.70  -1,133$1,535,045.05  1.46     [Low]Form 4By Horizon Common Inc.
2021-09-01Murray Stahl-Buy2Common Stock$1,354.85-$2,709.70  -1,321$1,789,756.85  1.70     [Low]Form 4-
2021-09-01Murray Stahl-Buy1Common Stock$1,354.85-$1,354.85  -1,322$1,791,111.70  1.71     [Low]Form 4-
2021-09-01Murray Stahl-Buy12Common Stock$1,354.85-$16,258.20  0.02     [ Very Low ]228,947$310,188,842.95  295.34   [Very High]Form 4By Horizon Kinetics Asset Management LLC
2021-09-01Murray Stahl-Sell33Common Stock$1,359.74$44,871.42  0.04     [ Very Low ]1,289$1,752,704.86  1.66     [Low]Form 4-
2021-09-01Murray Stahl-Buy33Common Stock$1,359.74-$44,871.42  0.04     [ Very Low ]102,586$139,490,287.64  132.33   [Very High]Form 4By Horizon Kinetics Hard Assets LLC
2021-09-01Murray Stahl-Buy10Common Stock$1,359.74-$13,597.40  -102,596$139,503,885.04  132.35   [Very High]Form 4By Horizon Kinetics Hard Assets LLC
2021-09-02Murray Stahl-Buy1Common Stock$1,327.86-$1,327.86  -42,919$56,990,423.34  55.37    [High]Form 4By Polestar Offshore Fund
2021-09-02Murray Stahl-Buy2Common Stock$1,327.86-$2,655.72  -102,598$136,235,780.28  132.35   [Very High]Form 4By Horizon Kinetics Hard Assets LLC
2021-09-02Murray Stahl-Buy1Common Stock$1,327.86-$1,327.86  -1,397$1,855,020.42  1.80     [Low]Form 4By Horizon Credit Opportunity Fund
2021-09-02Murray Stahl-Buy2Common Stock$1,327.86-$2,655.72  -1,135$1,507,121.10  1.46     [Low]Form 4By Horizon Common Inc.
2021-09-02Murray Stahl-Buy2Common Stock$1,327.86-$2,655.72  -1,291$1,714,267.26  1.67     [Low]Form 4-
2021-09-02Murray Stahl-Buy1Common Stock$1,327.86-$1,327.86  -1,292$1,715,595.12  1.67     [Low]Form 4-
2021-09-02Murray Stahl-Buy12Common Stock$1,327.86-$15,934.32  0.02     [ Very Low ]228,959$304,025,497.74  295.35   [Very High]Form 4By Horizon Kinetics Asset Management LLC
2021-09-02Murray Stahl-Sell18Common Stock$1,359.74$24,475.32  0.02     [ Very Low ]1,117$1,518,829.58  1.44     [Low]Form 4By Horizon Common Inc.
2021-09-02Murray Stahl-Buy18Common Stock$1,359.74-$24,475.32  0.02     [ Very Low ]102,616$139,531,079.84  132.37   [Very High]Form 4By Horizon Kinetics Hard Assets LLC
2021-09-02Murray Stahl-Buy42Common Stock$1,359.74-$57,109.08  0.05     [ Very Low ]102,658$139,588,188.92  132.43   [Very High]Form 4By Horizon Kinetics Hard Assets LLC
2021-09-03Murray Stahl-Buy1Common Stock$1,295.88-$1,295.88  -42,920$55,619,169.60  55.37    [High]Form 4By Polestar Offshore Fund
2021-09-03Murray Stahl-Buy2Common Stock$1,295.88-$2,591.76  -102,660$133,035,040.80  132.43   [Very High]Form 4By Horizon Kinetics Hard Assets, LLC
2021-09-03Murray Stahl-Buy1Common Stock$1,295.88-$1,295.88  -1,398$1,811,640.24  1.80     [Low]Form 4By Horizon Credit Opportunity Fund
2021-09-03Murray Stahl-Buy2Common Stock$1,295.88-$2,591.76  -1,119$1,450,089.72  1.44     [Low]Form 4By Horizon Common Inc
2021-09-03Murray Stahl-Buy2Common Stock$1,295.88-$2,591.76  -1,294$1,676,868.72  1.67     [Low]Form 4-
2021-09-03Murray Stahl-Buy1Common Stock$1,295.88-$1,295.88  -1,295$1,678,164.60  1.67     [Low]Form 4-
2021-09-03Murray Stahl-Buy12Common Stock$1,295.88-$15,550.56  0.02     [ Very Low ]228,971$296,718,939.48  295.37   [Very High]Form 4By Horizon Kinetics Asset Management LLC
2021-09-07Murray Stahl-Buy1Common Stock$1,218.78-$1,218.78  -42,921$52,311,256.38  55.37    [High]Form 4By Polestar Offshore Fund
2021-09-07Murray Stahl-Buy2Common Stock$1,218.78-$2,437.56  -102,662$125,122,392.36  132.43   [Very High]Form 4By Horizon Kinetics Hard Assets LLC
2021-09-07Murray Stahl-Buy1Common Stock$1,218.78-$1,218.78  -1,399$1,705,073.22  1.80     [Low]Form 4By Horizon Credit Opportunity Fund
2021-09-07Murray Stahl-Buy2Common Stock$1,218.78-$2,437.56  -1,121$1,366,252.38  1.45     [Low]Form 4By Horizon Common Inc
2021-09-07Murray Stahl-Buy2Common Stock$1,218.78-$2,437.56  -1,297$1,580,757.66  1.67     [Low]Form 4-
2021-09-07Murray Stahl-Buy1Common Stock$1,218.78-$1,218.78  -1,298$1,581,976.44  1.67     [Low]Form 4-
2021-09-07Murray Stahl-Buy12Common Stock$1,218.78-$14,625.36  0.02     [ Very Low ]228,983$279,079,900.74  295.39   [Very High]Form 4By Horizon Kinetics Asset Management LLC
2021-09-08Murray Stahl-Buy1Common Stock$1,225.08-$1,225.08  -42,922$52,582,883.76  55.37    [High]Form 4By Polestar Offshore Fund
2021-09-08Murray Stahl-Buy2Common Stock$1,225.08-$2,450.16  -102,664$125,771,613.12  132.44   [Very High]Form 4By Horizon Kinetics Hard Assets LLC
2021-09-08Murray Stahl-Buy1Common Stock$1,225.08-$1,225.08  -1,400$1,715,112.00  1.81     [Low]Form 4By Horizon Credit Opportunity Fund
2021-09-08Murray Stahl-Buy2Common Stock$1,225.08-$2,450.16  -1,123$1,375,764.84  1.45     [Low]Form 4By Horizon Common Inc
2021-09-08Murray Stahl-Buy2Common Stock$1,225.08-$2,450.16  -1,300$1,592,604.00  1.68     [Low]Form 4-
2021-09-08Murray Stahl-Buy1Common Stock$1,225.08-$1,225.08  -1,301$1,593,829.08  1.68     [Low]Form 4-
2021-09-08Murray Stahl-Buy12Common Stock$1,225.08-$14,700.96  0.02     [ Very Low ]228,995$280,537,194.60  295.40   [Very High]Form 4By Horizon Kinetics Asset Management LLC
2021-09-09Murray Stahl-Buy1Common Stock$1,226.76-$1,226.76  -42,923$52,656,219.48  55.37    [High]Form 4By POLESTAR OFFSHORE FUND
2021-09-09Murray Stahl-Buy2Common Stock$1,226.76-$2,453.52  -102,666$125,946,542.16  132.44   [Very High]Form 4By HORIZON KINETICS HARD ASSETS, LLC
2021-09-09Murray Stahl-Buy1Common Stock$1,226.76-$1,226.76  -1,401$1,718,690.76  1.81     [Low]Form 4By HORIZON CREDIT OPPORTUNITY FUND
2021-09-09Murray Stahl-Buy2Common Stock$1,226.76-$2,453.52  -1,125$1,380,105.00  1.45     [Low]Form 4By HORIZON COMMON INC
2021-09-09Murray Stahl-Buy2Common Stock$1,226.76-$2,453.52  -1,303$1,598,468.28  1.68     [Low]Form 4-
2021-09-09Murray Stahl-Buy1Common Stock$1,226.76-$1,226.76  -1,304$1,599,695.04  1.68     [Low]Form 4-
2021-09-09Murray Stahl-Buy12Common Stock$1,226.76-$14,721.12  0.02     [ Very Low ]229,007$280,936,627.32  295.42   [Very High]Form 4By Horizon Kinetics Asset Management LLC
2021-09-10Murray Stahl-Buy1Common Stock$1,221.01-$1,221.01  -42,924$52,410,633.24  55.37    [High]Form 4By Polestar Offshore Fund
2021-09-10Murray Stahl-Buy2Common Stock$1,221.01-$2,442.02  -102,668$125,358,654.68  132.44   [Very High]Form 4By Horizon Kinetics Hard Assets, LLC
2021-09-10Murray Stahl-Buy1Common Stock$1,221.01-$1,221.01  -1,402$1,711,856.02  1.81     [Low]Form 4By Horizon Credit Opportunity Fund
2021-09-10Murray Stahl-Buy2Common Stock$1,221.01-$2,442.02  -1,127$1,376,078.27  1.45     [Low]Form 4By Horizon Common Inc.
2021-09-10Murray Stahl-Buy2Common Stock$1,221.01-$2,442.02  -1,306$1,594,639.06  1.68     [Low]Form 4-
2021-09-10Murray Stahl-Buy1Common Stock$1,221.01-$1,221.01  -1,307$1,595,860.07  1.69     [Low]Form 4-
2021-09-10Murray Stahl-Buy12Common Stock$1,221.01-$14,652.12  0.02     [ Very Low ]229,019$279,634,489.19  295.43   [Very High]Form 4Horizon Kinetics Asset Management LLC
2021-09-13Murray Stahl-Buy1Common Stock$1,242.47-$1,242.47  -42,925$53,333,024.75  55.37    [High]Form 4By Polestar Offshore Fund
2021-09-13Murray Stahl-Buy2Common Stock$1,242.47-$2,484.94  -102,670$127,564,394.90  132.44   [Very High]Form 4By Horizon Kinetics Hard Assets LLC
2021-09-13Murray Stahl-Buy1Common Stock$1,242.47-$1,242.47  -1,403$1,743,185.41  1.81     [Low]Form 4By Horizon Credit Opportunity Fund
2021-09-13Murray Stahl-Buy2Common Stock$1,242.47-$2,484.94  -1,129$1,402,748.63  1.46     [Low]Form 4By Horizon Common, Inc.
2021-09-13Murray Stahl-Buy2Common Stock$1,242.47-$2,484.94  -1,309$1,626,393.23  1.69     [Low]Form 4-
2021-09-13Murray Stahl-Buy1Common Stock$1,242.47-$1,242.47  -1,310$1,627,635.70  1.69     [Low]Form 4-
2021-09-13Murray Stahl-Buy12Common Stock$1,242.47-$14,909.64  0.02     [ Very Low ]229,031$284,564,146.57  295.45   [Very High]Form 4By Horizon Kinetics Asset Management LLC
2021-09-14Murray Stahl-Buy1Common Stock$1,215.09-$1,215.09  -42,926$52,158,953.34  55.37    [High]Form 4By Polestar Offshore Fund
2021-09-14Murray Stahl-Buy2Common Stock$1,215.09-$2,430.18  -102,672$124,755,720.48  132.45   [Very High]Form 4By Horizon Kinetics Hard Assets LLC
2021-09-14Murray Stahl-Buy1Common Stock$1,215.09-$1,215.09  -1,404$1,705,986.36  1.81     [Low]Form 4By Horizon Credit Opportunity Fund
2021-09-14Murray Stahl-Buy2Common Stock$1,215.09-$2,430.18  -1,131$1,374,266.79  1.46     [Low]Form 4By Horizon Common Inc.
2021-09-14Murray Stahl-Buy2Common Stock$1,215.09-$2,430.18  -1,312$1,594,198.08  1.69     [Low]Form 4-
2021-09-14Murray Stahl-Buy1Common Stock$1,215.09-$1,215.09  -1,313$1,595,413.17  1.69     [Low]Form 4-
2021-09-14Murray Stahl-Buy12Common Stock$1,215.09-$14,581.08  0.02     [ Very Low ]229,043$278,307,858.87  295.46   [Very High]Form 4By Horizon Kinetics Asset Management LLC
2021-09-15Murray Stahl-Buy2Common Stock$1,252.62-$2,505.24  -1,133$1,419,218.46  1.46     [Low]Form 4By Horizon Common Inc.
2021-09-15Murray Stahl-Buy1Common Stock$1,252.62-$1,252.62  -1,405$1,759,931.10  1.81     [Low]Form 4By Horizon Credit Opportunity Fund
2021-09-15Murray Stahl-Buy2Common Stock$1,252.62-$2,505.24  -102,674$128,611,505.88  132.45   [Very High]Form 4By Horizon Kinetics Hard Assets, LLC
2021-09-15Murray Stahl-Buy2Common Stock$1,252.62-$2,505.24  -1,315$1,647,195.30  1.70     [Low]Form 4-
2021-09-15Murray Stahl-Buy1Common Stock$1,252.62-$1,252.62  -1,316$1,648,447.92  1.70     [Low]Form 4-
2021-09-15Murray Stahl-Buy1Common Stock$1,252.62-$1,252.62  -42,927$53,771,218.74  55.38    [High]Form 4By Polestar Offshore Fund
2021-09-15Murray Stahl-Buy12Common Stock$1,252.62-$15,031.44  0.02     [ Very Low ]229,055$286,918,874.10  295.48   [Very High]Form 4By Horizon Kinetics Asset Management LLC
2021-09-16Murray Stahl-Buy2Common Stock$1,242.59-$2,485.18  -1,135$1,410,339.65  1.46     [Low]Form 4By Horizon Common Inc.
2021-09-16Murray Stahl-Buy1Common Stock$1,242.59-$1,242.59  -1,406$1,747,081.54  1.81     [Low]Form 4By Horizon Credit Opportunity Fund
2021-09-16Murray Stahl-Buy2Common Stock$1,242.59-$2,485.18  -102,676$127,584,170.84  132.45   [Very High]Form 4By Horizon Kinetics Hard Assets, LLC
2021-09-16Murray Stahl-Buy2Common Stock$1,242.59-$2,485.18  -1,318$1,637,733.62  1.70     [Low]Form 4-
2021-09-16Murray Stahl-Buy1Common Stock$1,242.59-$1,242.59  -1,319$1,638,976.21  1.70     [Low]Form 4-
2021-09-16Murray Stahl-Buy1Common Stock$1,242.59-$1,242.59  -42,928$53,341,903.52  55.38    [High]Form 4By Polestar Offshore Fund
2021-09-16Murray Stahl-Buy12Common Stock$1,242.59-$14,911.08  0.02     [ Very Low ]229,067$284,636,363.53  295.49   [Very High]Form 4By Horizon Kinetics Asset Management LLC
2021-09-17Murray Stahl-Buy1Common Stock$1,300.40-$1,300.40  -42,929$55,824,871.60  55.38    [High]Form 4By Polestar Offshore Fund
2021-09-17Murray Stahl-Buy2Common Stock$1,300.40-$2,600.80  -102,678$133,522,471.20  132.45   [Very High]Form 4By Horizon Kinetics Hard Assets LLC
2021-09-17Murray Stahl-Buy1Common Stock$1,300.40-$1,300.40  -1,407$1,829,662.80  1.82     [Low]Form 4By Horizon Credit Opportunity Fund
2021-09-17Murray Stahl-Buy2Common Stock$1,300.40-$2,600.80  -1,137$1,478,554.80  1.47     [Low]Form 4By Horizon Common Inc
2021-09-17Murray Stahl-Buy2Common Stock$1,300.40-$2,600.80  -1,321$1,717,828.40  1.70     [Low]Form 4-
2021-09-17Murray Stahl-Buy1Common Stock$1,300.40-$1,300.40  -1,322$1,719,128.80  1.71     [Low]Form 4-
2021-09-17Murray Stahl-Buy12Common Stock$1,300.40-$15,604.80  0.02     [ Very Low ]229,079$297,894,331.60  295.51   [Very High]Form 4By Horizon Kinetics Asset Management LLC
2021-09-20Murray Stahl-Buy1Common Stock$1,243.06-$1,243.06  -42,930$53,364,565.80  55.38    [High]Form 4By Polestar Offshore Fund
2021-09-20Murray Stahl-Buy2Common Stock$1,243.06-$2,486.12  -102,680$127,637,400.80  132.46   [Very High]Form 4By Horizon Kinetics Hard Assets LLC
2021-09-20Murray Stahl-Buy1Common Stock$1,243.06-$1,243.06  -1,408$1,750,228.48  1.82     [Low]Form 4By Horizon Credit Opportunity Fund
2021-09-20Murray Stahl-Buy2Common Stock$1,243.06-$2,486.12  -1,139$1,415,845.34  1.47     [Low]Form 4By Horizon Common Inc
2021-09-20Murray Stahl-Buy2Common Stock$1,243.06-$2,486.12  -1,324$1,645,811.44  1.71     [Low]Form 4-
2021-09-20Murray Stahl-Buy1Common Stock$1,243.06-$1,243.06  -1,325$1,647,054.50  1.71     [Low]Form 4-
2021-09-20Murray Stahl-Buy12Common Stock$1,243.06-$14,916.72  0.02     [ Very Low ]229,091$284,773,858.46  295.53   [Very High]Form 4By Horizon Kinetics Asset Management LLC
2021-09-21Murray Stahl-Buy1Common Stock$1,250.88-$1,250.88  -42,931$53,701,529.28  55.38    [High]Form 4By Polestar Offshore Fund
2021-09-21Murray Stahl-Buy2Common Stock$1,250.88-$2,501.76  -102,682$128,442,860.16  132.46   [Very High]Form 4By Horizon Kinetics Hard Assets, LLC
2021-09-21Murray Stahl-Buy1Common Stock$1,250.88-$1,250.88  -1,409$1,762,489.92  1.82     [Low]Form 4By Horizon Credit Opportunity Fund
2021-09-21Murray Stahl-Buy2Common Stock$1,250.88-$2,501.76  -1,141$1,427,254.08  1.47     [Low]Form 4By Horizon Common Inc
2021-09-21Murray Stahl-Buy2Common Stock$1,250.88-$2,501.76  -1,327$1,659,917.76  1.71     [Low]Form 4-
2021-09-21Murray Stahl-Buy1Common Stock$1,250.88-$1,250.88  -1,328$1,661,168.64  1.71     [Low]Form 4-
2021-09-21Murray Stahl-Buy12Common Stock$1,250.88-$15,010.56  0.02     [ Very Low ]229,103$286,580,360.64  295.54   [Very High]Form 4By Horizon Kinetics Asset Management LLC
2021-09-22Murray Stahl-Buy1Common Stock$1,267.29-$1,267.29  -42,932$54,407,294.28  55.38    [High]Form 4By Polestar Offshore Fund
2021-09-22Murray Stahl-Buy2Common Stock$1,267.29-$2,534.58  -102,684$130,130,406.36  132.46   [Very High]Form 4By Horizon Kinetics Hard Assets LLC
2021-09-22Murray Stahl-Buy1Common Stock$1,267.29-$1,267.29  -1,410$1,786,878.90  1.82     [Low]Form 4By Horizon Credit Opportunity Fund
2021-09-22Murray Stahl-Buy2Common Stock$1,267.29-$2,534.58  -1,143$1,448,512.47  1.47     [Low]Form 4By Horizon Common Inc
2021-09-22Murray Stahl-Buy2Common Stock$1,267.29-$2,534.58  -1,330$1,685,495.70  1.72     [Low]Form 4-
2021-09-22Murray Stahl-Buy1Common Stock$1,267.29-$1,267.29  -1,331$1,686,762.99  1.72     [Low]Form 4-
2021-09-22Murray Stahl-Buy12Common Stock$1,267.29-$15,207.48  0.02     [ Very Low ]229,115$290,355,148.35  295.56   [Very High]Form 4By Horizon Kinetics Asset Management LLC
2021-09-23Murray Stahl-Buy1Common Stock$1,307.04-$1,307.04  -42,933$56,115,148.32  55.38    [High]Form 4By Polestar Offshore Fund
2021-09-23Murray Stahl-Buy2Common Stock$1,307.04-$2,614.08  -102,686$134,214,709.44  132.46   [Very High]Form 4By Horizon Kinetics Hard Assets, LLC
2021-09-23Murray Stahl-Buy1Common Stock$1,307.04-$1,307.04  -1,411$1,844,233.44  1.82     [Low]Form 4By Horizon Credit Opportunity Fund
2021-09-23Murray Stahl-Buy2Common Stock$1,307.04-$2,614.08  -1,145$1,496,560.80  1.48     [Low]Form 4By Horizon Common Inc
2021-09-23Murray Stahl-Buy2Common Stock$1,307.04-$2,614.08  -1,333$1,742,284.32  1.72     [Low]Form 4-
2021-09-23Murray Stahl-Buy1Common Stock$1,307.04-$1,307.04  -1,334$1,743,591.36  1.72     [Low]Form 4-
2021-09-23Murray Stahl-Buy12Common Stock$1,307.04-$15,684.48  0.02     [ Very Low ]229,127$299,478,154.08  295.57   [Very High]Form 4By Horizon Kinetics Asset Management LLC
2021-09-24Murray Stahl-Buy1Common Stock$1,301.52-$1,301.52  -42,934$55,879,459.68  55.38    [High]Form 4By Polestar Offshore Fund
2021-09-24Murray Stahl-Buy2Common Stock$1,301.52-$2,603.04  -102,688$133,650,485.76  132.47   [Very High]Form 4By Horizon Kinetics Hard Assets, LLC
2021-09-24Murray Stahl-Buy1Common Stock$1,301.52-$1,301.52  -1,412$1,837,746.24  1.82     [Low]Form 4By Horizon Credit Opportunity Fund
2021-09-24Murray Stahl-Buy2Common Stock$1,301.52-$2,603.04  -1,147$1,492,843.44  1.48     [Low]Form 4By Horizon Common Inc
2021-09-24Murray Stahl-Buy2Common Stock$1,301.52-$2,603.04  -1,336$1,738,830.72  1.72     [Low]Form 4-
2021-09-24Murray Stahl-Buy1Common Stock$1,301.52-$1,301.52  -1,337$1,740,132.24  1.72     [Low]Form 4-
2021-09-24Murray Stahl-Buy12Common Stock$1,301.52-$15,618.24  0.02     [ Very Low ]229,139$298,228,991.28  295.59   [Very High]Form 4By Horizon Kinetics Asset Management LLC
2021-09-27Murray Stahl-Buy1Common Stock$1,367.00-$1,367.00  -42,935$58,692,145.00  55.39    [High]Form 4By Polestar Offshore Fund
2021-09-27Murray Stahl-Buy2Common Stock$1,367.00-$2,734.00  -102,690$140,377,230.00  132.47   [Very High]Form 4By Horizon Kinetics Hard Assets, LLC
2021-09-27Murray Stahl-Buy1Common Stock$1,367.00-$1,367.00  -1,413$1,931,571.00  1.82     [Low]Form 4By Horizon Credit Opportunity Fund
2021-09-27Murray Stahl-Buy2Common Stock$1,367.00-$2,734.00  -1,149$1,570,683.00  1.48     [Low]Form 4By Horizon Common Inc
2021-09-27Murray Stahl-Buy2Common Stock$1,367.00-$2,734.00  -1,339$1,830,413.00  1.73     [Low]Form 4-
2021-09-27Murray Stahl-Buy1Common Stock$1,367.00-$1,367.00  -1,340$1,831,780.00  1.73     [Low]Form 4-
2021-09-27Murray Stahl-Buy12Common Stock$1,367.00-$16,404.00  0.02     [ Very Low ]229,151$313,249,417.00  295.60   [Very High]Form 4By Horizon Kinetics Asset Management LLC
2021-09-28Murray Stahl-Buy2Common Stock$1,336.40-$2,672.80  -1,151$1,538,196.40  1.48     [Low]Form 4By HORIZON COMMON INC
2021-09-28Murray Stahl-Buy1Common Stock$1,336.40-$1,336.40  -1,414$1,889,669.60  1.82     [Low]Form 4By HORIZON CREDIT OPPORTUNITY FUND
2021-09-28Murray Stahl-Buy2Common Stock$1,336.40-$2,672.80  -102,692$137,237,588.80  132.47   [Very High]Form 4By HORIZON KINETICS HARD ASSETS, LLC
2021-09-28Murray Stahl-Buy2Common Stock$1,336.40-$2,672.80  -1,342$1,793,448.80  1.73     [Low]Form 4-
2021-09-28Murray Stahl-Buy1Common Stock$1,336.40-$1,336.40  -1,343$1,794,785.20  1.73     [Low]Form 4-
2021-09-28Murray Stahl-Buy1Common Stock$1,336.40-$1,336.40  -42,936$57,379,670.40  55.39    [High]Form 4By POLESTAR OFFSHORE FUND
2021-09-28Murray Stahl-Buy12Common Stock$1,336.40-$16,036.80  0.02     [ Very Low ]229,163$306,253,433.20  295.62   [Very High]Form 4By Horizon Kinetics Asset Management LLC
2021-09-29Murray Stahl-Buy1Common Stock$1,240.60-$1,240.60  -42,937$53,267,642.20  55.39    [High]Form 4By POLESTAR OFFSHORE FUND
2021-09-29Murray Stahl-Buy2Common Stock$1,240.60-$2,481.20  -102,694$127,402,176.40  132.47   [Very High]Form 4By HORIZON KINETICS HARD ASSETS, LLC
2021-09-29Murray Stahl-Buy1Common Stock$1,240.60-$1,240.60  -1,415$1,755,449.00  1.83     [Low]Form 4By HORIZON CREDIT OPPORTUNITY FUND
2021-09-29Murray Stahl-Buy2Common Stock$1,240.60-$2,481.20  -1,153$1,430,411.80  1.49     [Low]Form 4By HORIZON COMMON INC
2021-09-29Murray Stahl-Buy2Common Stock$1,240.60-$2,481.20  -1,345$1,668,607.00  1.74     [Low]Form 4-
2021-09-29Murray Stahl-Buy1Common Stock$1,240.60-$1,240.60  -1,346$1,669,847.60  1.74     [Low]Form 4-
2021-09-29Murray Stahl-Buy12Common Stock$1,240.60-$14,887.20  0.02     [ Very Low ]229,175$284,314,505.00  295.63   [Very High]Form 4By Horizon Kinetics Asset Management LLC
2021-09-30Murray Stahl-Buy1Common Stock$1,209.36-$1,209.36  -42,938$51,927,499.68  55.39    [High]Form 4By Polestar Offshore Fund
2021-09-30Murray Stahl-Buy2Common Stock$1,209.36-$2,418.72  -102,696$124,196,434.56  132.48   [Very High]Form 4By Horizon Kinetics Hard Assets LLC
2021-09-30Murray Stahl-Buy1Common Stock$1,209.36-$1,209.36  -1,416$1,712,453.76  1.83     [Low]Form 4By Horizon Credit Opportunity Fund
2021-09-30Murray Stahl-Buy2Common Stock$1,209.36-$2,418.72  -1,155$1,396,810.80  1.49     [Low]Form 4By Horizon Common Inc.
2021-09-30Murray Stahl-Buy2Common Stock$1,209.36-$2,418.72  -1,348$1,630,217.28  1.74     [Low]Form 4-
2021-09-30Murray Stahl-Buy1Common Stock$1,209.36-$1,209.36  -1,349$1,631,426.64  1.74     [Low]Form 4-
2021-09-30Murray Stahl-Buy12Common Stock$1,209.36-$14,512.32  0.02     [ Very Low ]229,187$277,169,590.32  295.65   [Very High]Form 4By Horizon Kinetics Asset Management LLC
2021-10-01Murray Stahl-Buy1Common Stock$1,173.01-$1,173.01  -42,939$50,367,876.39  55.39    [High]Form 4By Polestar Offshore Fund
2021-10-01Murray Stahl-Buy2Common Stock$1,173.01-$2,346.02  -102,698$120,465,780.98  132.48   [Very High]Form 4By Horizon Kinetics Hard Assets LLC
2021-10-01Murray Stahl-Buy1Common Stock$1,173.01-$1,173.01  -1,417$1,662,155.17  1.83     [Low]Form 4By Horizon Credit Opportunity Fund
2021-10-01Murray Stahl-Buy2Common Stock$1,173.01-$2,346.02  -1,157$1,357,172.57  1.49     [Low]Form 4By Horizon Common Inc.
2021-10-01Murray Stahl-Buy2Common Stock$1,173.01-$2,346.02  -1,351$1,584,736.51  1.74     [Low]Form 4-
2021-10-01Murray Stahl-Buy1Common Stock$1,173.01-$1,173.01  -1,352$1,585,909.52  1.74     [Low]Form 4-
2021-10-01Murray Stahl-Buy12Common Stock$1,173.01-$14,076.12  0.02     [ Very Low ]229,199$268,852,718.99  295.66   [Very High]Form 4By Horizon Kinetics Asset Management LLC
2021-10-01Murray Stahl-Sell18Common Stock$1,209.36$21,768.48  0.02     [ Very Low ]1,139$1,377,461.04  1.47     [Low]Form 4By Horizon Common Inc.
2021-10-01Murray Stahl-Buy18Common Stock$1,209.36-$21,768.48  0.02     [ Very Low ]102,716$124,220,621.76  132.50   [Very High]Form 4By Horizon Kinetics Hard Assets LLC
2021-10-01Murray Stahl-Sell33Common Stock$1,209.36$39,908.88  0.04     [ Very Low ]1,319$1,595,145.84  1.70     [Low]Form 4-
2021-10-01Murray Stahl-Buy33Common Stock$1,209.36-$39,908.88  0.04     [ Very Low ]102,749$124,260,530.64  132.55   [Very High]Form 4By Horizon Kinetics Hard Assets LLC
2021-10-01Murray Stahl-Buy22Common Stock$1,209.36-$26,605.92  0.03     [ Very Low ]102,771$124,287,136.56  132.57   [Very High]Form 4By Horizon Kinetics Hard Assets LLC
2021-10-04Murray Stahl-Buy1Common Stock$1,151.79-$1,151.79  -42,940$49,457,862.60  55.39    [High]Form 4By Polestar Offshore Fund
2021-10-04Murray Stahl-Buy2Common Stock$1,151.79-$2,303.58  -102,773$118,372,913.67  132.58   [Very High]Form 4By Horizon Kinetics Hard Assets LLC
2021-10-04Murray Stahl-Buy1Common Stock$1,151.79-$1,151.79  -1,418$1,633,238.22  1.83     [Low]Form 4By Horizon Credit Opportunity Fund
2021-10-04Murray Stahl-Buy2Common Stock$1,151.79-$2,303.58  -1,141$1,314,192.39  1.47     [Low]Form 4By Horizon Common Inc.
2021-10-04Murray Stahl-Buy2Common Stock$1,151.79-$2,303.58  -1,321$1,521,514.59  1.70     [Low]Form 4-
2021-10-04Murray Stahl-Buy1Common Stock$1,151.79-$1,151.79  -1,322$1,522,666.38  1.71     [Low]Form 4-
2021-10-04Murray Stahl-Buy12Common Stock$1,151.79-$13,821.48  0.02     [ Very Low ]229,211$264,002,937.69  295.68   [Very High]Form 4By Horizon Kinetics Asset Management LLC
2021-10-05Murray Stahl-Buy1Common Stock$1,185.00-$1,185.00  -42,941$50,885,085.00  55.41    [High]Form 4By Polestar Offshore Fund
2021-10-05Murray Stahl-Buy2Common Stock$1,185.00-$2,370.00  -102,775$121,788,375.00  132.63   [Very High]Form 4By Horizon Kinetics Hard Assets LLC
2021-10-05Murray Stahl-Buy1Common Stock$1,185.00-$1,185.00  -1,419$1,681,515.00  1.83     [Low]Form 4By Horizon Credit Opportunity Fund
2021-10-05Murray Stahl-Buy2Common Stock$1,185.00-$2,370.00  -1,143$1,354,455.00  1.48     [Low]Form 4By Horizon Common Inc.
2021-10-05Murray Stahl-Buy2Common Stock$1,185.00-$2,370.00  -1,324$1,568,940.00  1.71     [Low]Form 4-
2021-10-05Murray Stahl-Buy1Common Stock$1,185.00-$1,185.00  -1,325$1,570,125.00  1.71     [Low]Form 4-
2021-10-05Murray Stahl-Buy12Common Stock$1,185.00-$14,220.00  0.02     [ Very Low ]229,223$271,629,255.00  295.81   [Very High]Form 4By Horizon Kinetics Asset Management LLC
2021-10-06Murray Stahl-Buy1Common Stock$1,162.33-$1,162.33  -42,942$49,912,774.86  55.42    [High]Form 4By Polestar Offshore Fund
2021-10-06Murray Stahl-Buy2Common Stock$1,162.33-$2,324.66  -102,777$119,460,790.41  132.63   [Very High]Form 4By Horizon Kinetics Hard Assets LLC
2021-10-06Murray Stahl-Buy1Common Stock$1,162.33-$1,162.33  -1,420$1,650,508.60  1.83     [Low]Form 4By Horizon Credit Opportunity Fund
2021-10-06Murray Stahl-Buy2Common Stock$1,162.33-$2,324.66  -1,145$1,330,867.85  1.48     [Low]Form 4By Horizon Common Inc.
2021-10-06Murray Stahl-Buy2Common Stock$1,162.33-$2,324.66  -1,327$1,542,411.91  1.71     [Low]Form 4-
2021-10-06Murray Stahl-Buy1Common Stock$1,162.33-$1,162.33  -1,328$1,543,574.24  1.71     [Low]Form 4-
2021-10-06Murray Stahl-Buy12Common Stock$1,162.33-$13,947.96  0.02     [ Very Low ]229,235$266,446,717.55  295.83   [Very High]Form 4By Horizon Kinetics Asset Management LLC
2021-10-07Murray Stahl-Buy1Common Stock$1,185.88-$1,185.88  -42,943$50,925,244.84  55.42    [High]Form 4By Polestar Offshore Fund
2021-10-07Murray Stahl-Buy2Common Stock$1,185.88-$2,371.76  -102,779$121,883,560.52  132.64   [Very High]Form 4By Horizon Kinetics Hard Assets LLC
2021-10-07Murray Stahl-Buy1Common Stock$1,185.88-$1,185.88  -1,421$1,685,135.48  1.83     [Low]Form 4By Horizon Credit Opportunity Fund
2021-10-07Murray Stahl-Buy2Common Stock$1,185.88-$2,371.76  -1,147$1,360,204.36  1.48     [Low]Form 4By Horizon Common Inc.
2021-10-07Murray Stahl-Buy2Common Stock$1,185.88-$2,371.76  -1,330$1,577,220.40  1.72     [Low]Form 4-
2021-10-07Murray Stahl-Buy1Common Stock$1,185.88-$1,185.88  -1,331$1,578,406.28  1.72     [Low]Form 4-
2021-10-07Murray Stahl-Buy12Common Stock$1,185.88-$14,230.56  0.02     [ Very Low ]229,247$271,859,432.36  295.84   [Very High]Form 4By Horizon Kinetics Asset Management LLC
2021-10-08Murray Stahl-Buy1Common Stock$1,213.44-$1,213.44  -2,462$2,987,489.28  3.18     [Low]Form 4By CDK Partners LP
2021-10-08Murray Stahl-Buy2Common Stock$1,213.44-$2,426.88  -1,149$1,394,242.56  1.48     [Low]Form 4By Horizon Common Inc
2021-10-08Murray Stahl-Buy1Common Stock$1,213.44-$1,213.44  -1,422$1,725,511.68  1.84     [Low]Form 4By Horizon Credit Opportunity Fund
2021-10-08Murray Stahl-Buy2Common Stock$1,213.44-$2,426.88  -102,781$124,718,576.64  132.64   [Very High]Form 4By Horizon Kinetics Hard Assets, LLC
2021-10-08Murray Stahl-Buy2Common Stock$1,213.44-$2,426.88  -1,333$1,617,515.52  1.72     [Low]Form 4-
2021-10-08Murray Stahl-Buy1Common Stock$1,213.44-$1,213.44  -1,334$1,618,728.96  1.72     [Low]Form 4-
2021-10-08Murray Stahl-Buy1Common Stock$1,213.44-$1,213.44  -42,944$52,109,967.36  55.42    [High]Form 4By Polestar Offshore Fund
2021-10-08Murray Stahl-Buy12Common Stock$1,213.44-$14,561.28  0.02     [ Very Low ]229,259$278,192,040.96  295.86   [Very High]Form 4By Horizon Kinetics Asset Management LLC
2021-10-11Murray Stahl-Buy1Common Stock$1,198.01-$1,198.01  -2,463$2,950,698.63  3.18     [Low]Form 4By CDK Partners LP
2021-10-11Murray Stahl-Buy2Common Stock$1,198.01-$2,396.02  -1,151$1,378,909.51  1.49     [Low]Form 4By Horizon Common Inc
2021-10-11Murray Stahl-Buy1Common Stock$1,198.01-$1,198.01  -1,423$1,704,768.23  1.84     [Low]Form 4By Horizon Credit Opportunity Fund
2021-10-11Murray Stahl-Buy2Common Stock$1,198.01-$2,396.02  -102,783$123,135,061.83  132.64   [Very High]Form 4By Horizon Kinetics Hard Assets, LLC
2021-10-11Murray Stahl-Buy2Common Stock$1,198.01-$2,396.02  -1,336$1,600,541.36  1.72     [Low]Form 4-
2021-10-11Murray Stahl-Buy1Common Stock$1,198.01-$1,198.01  -1,337$1,601,739.37  1.73     [Low]Form 4-
2021-10-11Murray Stahl-Buy1Common Stock$1,198.01-$1,198.01  -42,945$51,448,539.45  55.42    [High]Form 4By Polestar Offshore Fund
2021-10-11Murray Stahl-Buy12Common Stock$1,198.01-$14,376.12  0.02     [ Very Low ]229,271$274,668,950.71  295.87   [Very High]Form 4By Horizon Kinetics Asset Management LLC
2021-10-12Murray Stahl-Buy1Common Stock$1,179.81-$1,179.81  -42,946$50,668,120.26  55.42    [High]Form 4By Polestar Offshore Fund
2021-10-12Murray Stahl-Buy2Common Stock$1,179.81-$2,359.62  -102,785$121,266,770.85  132.64   [Very High]Form 4By Horizon Kinetics Hard Assets, LLC
2021-10-12Murray Stahl-Buy1Common Stock$1,179.81-$1,179.81  -2,464$2,907,051.84  3.18     [Low]Form 4By CDK Partners LP
2021-10-12Murray Stahl-Buy1Common Stock$1,179.81-$1,179.81  -1,424$1,680,049.44  1.84     [Low]Form 4By Horizon Credit Opportunity Fund
2021-10-12Murray Stahl-Buy2Common Stock$1,179.81-$2,359.62  -1,153$1,360,320.93  1.49     [Low]Form 4By Horizon Common Inc
2021-10-12Murray Stahl-Buy2Common Stock$1,179.81-$2,359.62  -1,339$1,579,765.59  1.73     [Low]Form 4-
2021-10-12Murray Stahl-Buy1Common Stock$1,179.81-$1,179.81  -1,340$1,580,945.40  1.73     [Low]Form 4-
2021-10-12Murray Stahl-Buy12Common Stock$1,179.81-$14,157.72  0.02     [ Very Low ]229,283$270,510,376.23  295.89   [Very High]Form 4By Horizon Kinetics Asset Management LLC
2021-10-13Murray Stahl-Buy1Common Stock$1,194.84-$1,194.84  -42,947$51,314,793.48  55.42    [High]Form 4By Polestar Offshore Fund
2021-10-13Murray Stahl-Buy2Common Stock$1,194.84-$2,389.68  -102,787$122,814,019.08  132.65   [Very High]Form 4By Horizon Kinetics Hard Assets LLC
2021-10-13Murray Stahl-Buy1Common Stock$1,194.84-$1,194.84  -2,465$2,945,280.60  3.18     [Low]Form 4By CDK Partners LP
2021-10-13Murray Stahl-Buy1Common Stock$1,194.84-$1,194.84  -1,425$1,702,647.00  1.84     [Low]Form 4By Horizon Credit Opportunity Fund
2021-10-13Murray Stahl-Buy2Common Stock$1,194.84-$2,389.68  -1,155$1,380,040.20  1.49     [Low]Form 4By Horizon Common Inc
2021-10-13Murray Stahl-Buy2Common Stock$1,194.84-$2,389.68  -1,342$1,603,475.28  1.73     [Low]Form 4-
2021-10-13Murray Stahl-Buy1Common Stock$1,194.84-$1,194.84  -1,343$1,604,670.12  1.73     [Low]Form 4-
2021-10-13Murray Stahl-Buy12Common Stock$1,194.84-$14,338.08  0.02     [ Very Low ]229,295$273,970,837.80  295.90   [Very High]Form 4By Horizon Kinetics Asset Management LLC
2021-10-14Murray Stahl-Buy1Common Stock$1,214.81-$1,214.81  -42,948$52,173,659.88  55.42    [High]Form 4By Polestar Offshore Fund
2021-10-14Murray Stahl-Buy2Common Stock$1,214.81-$2,429.62  -102,789$124,869,105.09  132.65   [Very High]Form 4By Horizon Kinetics Hard Assets LLC
2021-10-14Murray Stahl-Buy1Common Stock$1,214.81-$1,214.81  -2,466$2,995,721.46  3.18     [Low]Form 4By CDK Partners LP
2021-10-14Murray Stahl-Buy1Common Stock$1,214.81-$1,214.81  -1,426$1,732,319.06  1.84     [Low]Form 4By Horizon Credit Opportunity Fund
2021-10-14Murray Stahl-Buy2Common Stock$1,214.81-$2,429.62  -1,157$1,405,535.17  1.49     [Low]Form 4By Horizon Common Inc.
2021-10-14Murray Stahl-Buy2Common Stock$1,214.81-$2,429.62  -1,345$1,633,919.45  1.74     [Low]Form 4-
2021-10-14Murray Stahl-Buy1Common Stock$1,214.81-$1,214.81  -1,346$1,635,134.26  1.74     [Low]Form 4-
2021-10-14Murray Stahl-Buy12Common Stock$1,214.81-$14,577.72  0.02     [ Very Low ]229,307$278,564,436.67  295.92   [Very High]Form 4By Horizon Kinetics Asset Management LLC
2021-10-15Murray Stahl-Buy1Common Stock$1,222.36-$1,222.36  -42,949$52,499,139.64  55.43    [High]Form 4By Polestar Offshore Fund
2021-10-15Murray Stahl-Buy2Common Stock$1,222.36-$2,444.72  -102,791$125,647,606.76  132.65   [Very High]Form 4By Horizon Kinetics Hard Assets LLC
2021-10-15Murray Stahl-Buy1Common Stock$1,222.36-$1,222.36  -5,404$6,605,633.44  6.97     [Average]Form 4By CDK Fund Ltd
2021-10-15Murray Stahl-Buy1Common Stock$1,222.36-$1,222.36  -1,427$1,744,307.72  1.84     [Low]Form 4By Horizon Credit Opportunity Fund
2021-10-15Murray Stahl-Buy2Common Stock$1,222.36-$2,444.72  -1,159$1,416,715.24  1.50     [Low]Form 4By Horizon Common Inc.
2021-10-15Murray Stahl-Buy2Common Stock$1,222.36-$2,444.72  -1,348$1,647,741.28  1.74     [Low]Form 4-
2021-10-15Murray Stahl-Buy1Common Stock$1,222.36-$1,222.36  -1,349$1,648,963.64  1.74     [Low]Form 4-
2021-10-15Murray Stahl-Buy12Common Stock$1,222.36-$14,668.32  0.02     [ Very Low ]229,319$280,310,372.84  295.93   [Very High]Form 4By Horizon Kinetics Asset Management LLC
2021-10-18Murray Stahl-Buy1Common Stock$1,225.00-$1,225.00  -42,950$52,613,750.00  55.43    [High]Form 4By Polestar Offshore Fund
2021-10-18Murray Stahl-Buy2Common Stock$1,225.00-$2,450.00  -102,793$125,921,425.00  132.65   [Very High]Form 4By Horizon Kinetics Hard Assets LLC
2021-10-18Murray Stahl-Buy1Common Stock$1,225.00-$1,225.00  -5,405$6,621,125.00  6.98     [Average]Form 4By CDK Fund Ltd
2021-10-18Murray Stahl-Buy1Common Stock$1,225.00-$1,225.00  -1,428$1,749,300.00  1.84     [Low]Form 4By Horizon Credit Opportunity Fund
2021-10-18Murray Stahl-Buy2Common Stock$1,225.00-$2,450.00  -1,161$1,422,225.00  1.50     [Low]Form 4By Horizon Common Inc.
2021-10-18Murray Stahl-Buy2Common Stock$1,225.00-$2,450.00  -1,351$1,654,975.00  1.74     [Low]Form 4-
2021-10-18Murray Stahl-Buy1Common Stock$1,225.00-$1,225.00  -1,352$1,656,200.00  1.74     [Low]Form 4-
2021-10-18Murray Stahl-Buy12Common Stock$1,225.00-$14,700.00  0.02     [ Very Low ]229,331$280,930,475.00  295.95   [Very High]Form 4By Horizon Kinetics Asset Management LLC
2021-10-19Murray Stahl-Buy1Common Stock$1,252.37-$1,252.37  -42,951$53,790,543.87  55.43    [High]Form 4By Polestar Offshore Fund
2021-10-19Murray Stahl-Buy2Common Stock$1,252.37-$2,504.74  -102,795$128,737,374.15  132.66   [Very High]Form 4By Horizon Kinetics Hard Assets LLC
2021-10-19Murray Stahl-Buy1Common Stock$1,252.37-$1,252.37  -5,406$6,770,312.22  6.98     [Average]Form 4By CDK Fund Ltd
2021-10-19Murray Stahl-Buy1Common Stock$1,252.37-$1,252.37  -1,429$1,789,636.73  1.84     [Low]Form 4By Horizon Credit Opportunity Fund
2021-10-19Murray Stahl-Buy2Common Stock$1,252.37-$2,504.74  -1,163$1,456,506.31  1.50     [Low]Form 4By Horizon Common Inc.
2021-10-19Murray Stahl-Buy2Common Stock$1,252.37-$2,504.74  -1,354$1,695,708.98  1.75     [Low]Form 4-
2021-10-19Murray Stahl-Buy1Common Stock$1,252.37-$1,252.37  -1,355$1,696,961.35  1.75     [Low]Form 4-
2021-10-19Murray Stahl-Buy12Common Stock$1,252.37-$15,028.44  0.02     [ Very Low ]229,343$287,222,292.91  295.96   [Very High]Form 4By Horizon Kinetics Asset Management LLC
2021-10-20Murray Stahl-Buy1Common Stock$1,270.92-$1,270.92  -42,952$54,588,555.84  55.43    [High]Form 4By Polestar Offshore Fund
2021-10-20Murray Stahl-Buy2Common Stock$1,270.92-$2,541.84  -102,797$130,646,763.24  132.66   [Very High]Form 4By Horizon Kinetics Hard Assets LLC
2021-10-20Murray Stahl-Buy1Common Stock$1,270.92-$1,270.92  -5,407$6,871,864.44  6.98     [Average]Form 4By CDK Fund Ltd
2021-10-20Murray Stahl-Buy1Common Stock$1,270.92-$1,270.92  -1,430$1,817,415.60  1.85     [Low]Form 4By Horizon Credit Opportunity Fund
2021-10-20Murray Stahl-Buy2Common Stock$1,270.92-$2,541.84  -1,165$1,480,621.80  1.50     [Low]Form 4By Horizon Common Inc.
2021-10-20Murray Stahl-Buy2Common Stock$1,270.92-$2,541.84  -1,357$1,724,638.44  1.75     [Low]Form 4-
2021-10-20Murray Stahl-Buy1Common Stock$1,270.92-$1,270.92  -1,358$1,725,909.36  1.75     [Low]Form 4-
2021-10-20Murray Stahl-Buy12Common Stock$1,270.92-$15,251.04  0.02     [ Very Low ]229,355$291,491,856.60  295.98   [Very High]Form 4By Horizon Kinetics Asset Management LLC
2021-10-20Murray Stahl-Sell12,800Common Stock$0.00$0.00  -216,555$0.00  279.46   [Very High]Form 4By Horizon Kinetics Asset Management LLC
2021-10-21Murray Stahl-Buy2Common Stock$1,241.03-$2,482.06  -102,799$127,576,642.97  132.66   [Very High]Form 4By Horizon Kinetics Hard Assets LLC
2021-10-21Murray Stahl-Buy1Common Stock$1,241.03-$1,241.03  -5,408$6,711,490.24  6.98     [Average]Form 4By CDK Fund Ltd
2021-10-21Murray Stahl-Buy1Common Stock$1,241.03-$1,241.03  -1,431$1,775,913.93  1.85     [Low]Form 4By Horizon Credit Opportunity Fund
2021-10-21Murray Stahl-Buy2Common Stock$1,241.03-$2,482.06  -1,167$1,448,282.01  1.51     [Low]Form 4By Horizon Common Inc.
2021-10-21Murray Stahl-Buy1Common Stock$1,241.03-$1,241.03  -42,953$53,305,961.59  55.43    [High]Form 4By Polestar Offshore Fund
2021-10-21Murray Stahl-Buy2Common Stock$1,241.03-$2,482.06  -1,360$1,687,800.80  1.76     [Low]Form 4-
2021-10-21Murray Stahl-Buy1Common Stock$1,241.03-$1,241.03  -1,361$1,689,041.83  1.76     [Low]Form 4-
2021-10-21Murray Stahl-Buy12Common Stock$1,241.03-$14,892.36  0.02     [ Very Low ]216,567$268,766,144.01  279.48   [Very High]Form 4By Horizon Kinetics Asset Management LLC
2021-10-22Murray Stahl-Buy1Common Stock$1,265.98-$1,265.98  -42,954$54,378,904.92  55.43    [High]Form 4By Polestar Offshore Fund Ltd
2021-10-22Murray Stahl-Buy2Common Stock$1,265.98-$2,531.96  -102,801$130,144,009.98  132.66   [Very High]Form 4By Horizon Kinetics Hard Assets LLC
2021-10-22Murray Stahl-Buy1Common Stock$1,265.98-$1,265.98  -5,409$6,847,685.82  6.98     [Average]Form 4By CDK Fund Ltd
2021-10-22Murray Stahl-Buy1Common Stock$1,265.98-$1,265.98  -1,432$1,812,883.36  1.85     [Low]Form 4By Horizon Credit Opportunity Fund LP
2021-10-22Murray Stahl-Buy2Common Stock$1,265.98-$2,531.96  -1,169$1,479,930.62  1.51     [Low]Form 4By Horizon Common Inc
2021-10-22Murray Stahl-Buy2Common Stock$1,265.98-$2,531.96  -1,363$1,725,530.74  1.76     [Low]Form 4-
2021-10-22Murray Stahl-Buy1Common Stock$1,265.98-$1,265.98  -1,364$1,726,796.72  1.76     [Low]Form 4-
2021-10-22Murray Stahl-Buy12Common Stock$1,265.98-$15,191.76  0.02     [ Very Low ]216,579$274,184,682.42  279.49   [Very High]Form 4By Horizon Kinetics Asset Management LLC
2021-10-25Murray Stahl-Buy1Common Stock$1,293.77-$1,293.77  -42,955$55,573,890.35  55.43    [High]Form 4By Polestar Offshore Fund
2021-10-25Murray Stahl-Buy2Common Stock$1,293.77-$2,587.54  -102,803$133,003,437.31  132.67   [Very High]Form 4By Horizon Kinetics Hard Assets LLC
2021-10-25Murray Stahl-Buy1Common Stock$1,293.77-$1,293.77  -1,433$1,853,972.41  1.85     [Low]Form 4By Horizon Credit Opportunity Fund
2021-10-25Murray Stahl-Buy2Common Stock$1,293.77-$2,587.54  -1,171$1,515,004.67  1.51     [Low]Form 4By Horizon Common Inc
2021-10-25Murray Stahl-Buy2Common Stock$1,293.77-$2,587.54  -1,366$1,767,289.82  1.76     [Low]Form 4-
2021-10-25Murray Stahl-Buy1Common Stock$1,293.77-$1,293.77  -1,367$1,768,583.59  1.76     [Low]Form 4-
2021-10-25Murray Stahl-Buy13Common Stock$1,293.77-$16,819.01  0.02     [ Very Low ]216,592$280,220,231.84  279.51   [Very High]Form 4By Horizon Kinetics Asset Management LLC
2021-10-26Murray Stahl-Buy1Common Stock$1,301.49-$1,301.49  -42,956$55,906,804.44  55.43    [High]Form 4By Polestar Offshore Fund Ltd
2021-10-26Murray Stahl-Buy2Common Stock$1,301.49-$2,602.98  -102,805$133,799,679.45  132.67   [Very High]Form 4By Horizon Kinetics Hard Assets LLC
2021-10-26Murray Stahl-Buy1Common Stock$1,301.49-$1,301.49  -1,434$1,866,336.66  1.85     [Low]Form 4By Horizon Credit Opportunity Fund LP
2021-10-26Murray Stahl-Buy2Common Stock$1,301.49-$2,602.98  -1,173$1,526,647.77  1.51     [Low]Form 4By Horizon Common Inc
2021-10-26Murray Stahl-Buy2Common Stock$1,301.49-$2,602.98  -1,369$1,781,739.81  1.77     [Low]Form 4-
2021-10-26Murray Stahl-Buy1Common Stock$1,301.49-$1,301.49  -1,370$1,783,041.30  1.77     [Low]Form 4-
2021-10-26Murray Stahl-Buy13Common Stock$1,301.49-$16,919.37  0.02     [ Very Low ]216,605$281,909,241.45  279.53   [Very High]Form 4By Horizon Kinetics Asset Management LLC
2021-10-27Murray Stahl-Buy1Common Stock$1,242.90-$1,242.90  -42,957$53,391,255.30  55.44    [High]Form 4By Polestar Offshore Fund
2021-10-27Murray Stahl-Buy2Common Stock$1,242.90-$2,485.80  -102,807$127,778,820.30  132.67   [Very High]Form 4By Horizon Kinetics Hard Assets LLC
2021-10-27Murray Stahl-Buy1Common Stock$1,242.90-$1,242.90  -1,435$1,783,561.50  1.85     [Low]Form 4By Horizon Credit Opportunity Fund
2021-10-27Murray Stahl-Buy2Common Stock$1,242.90-$2,485.80  -1,175$1,460,407.50  1.52     [Low]Form 4By Horizon Common Inc
2021-10-27Murray Stahl-Buy2Common Stock$1,242.90-$2,485.80  -1,372$1,705,258.80  1.77     [Low]Form 4-
2021-10-27Murray Stahl-Buy1Common Stock$1,242.90-$1,242.90  -1,373$1,706,501.70  1.77     [Low]Form 4-
2021-10-27Murray Stahl-Buy13Common Stock$1,242.90-$16,157.70  0.02     [ Very Low ]216,618$269,234,512.20  279.54   [Very High]Form 4By Horizon Kinetics Asset Management LLC
2021-10-28Murray Stahl-Buy2Common Stock$1,262.59-$2,525.18  -1,177$1,486,068.43  1.52     [Low]Form 4By Horizon Common Inc
2021-10-28Murray Stahl-Buy1Common Stock$1,262.59-$1,262.59  -1,436$1,813,079.24  1.85     [Low]Form 4By Horizon Credit Opportunity Fund
2021-10-28Murray Stahl-Buy2Common Stock$1,262.59-$2,525.18  -102,809$129,805,615.31  132.67   [Very High]Form 4By Horizon Kinetics Hard Assets, LLC
2021-10-28Murray Stahl-Buy2Common Stock$1,262.59-$2,525.18  -1,375$1,736,061.25  1.77     [Low]Form 4-
2021-10-28Murray Stahl-Buy1Common Stock$1,262.59-$1,262.59  -1,376$1,737,323.84  1.78     [Low]Form 4-
2021-10-28Murray Stahl-Buy1Common Stock$1,262.59-$1,262.59  -42,958$54,238,341.22  55.44    [High]Form 4By Polestar Offshore Fund
2021-10-28Murray Stahl-Buy13Common Stock$1,262.59-$16,413.67  0.02     [ Very Low ]216,631$273,516,134.29  279.56   [Very High]Form 4By Horizon Kinetics Asset Management LLC
2021-11-01Murray Stahl-Buy2Common Stock$1,313.30-$2,626.60  -102,813$135,024,312.90  132.68   [Very High]Form 4By Horizon Kinetics Hard Assets LLC
2021-11-01Murray Stahl-Buy1Common Stock$1,313.30-$1,313.30  -1,438$1,888,525.40  1.86     [Low]Form 4By Horizon Credit Opportunity Fund
2021-11-01Murray Stahl-Buy2Common Stock$1,313.30-$2,626.60  -1,181$1,551,007.30  1.52     [Low]Form 4By Horizon Common Inc.
2021-11-01Murray Stahl-Buy1Common Stock$1,313.30-$1,313.30  -42,960$56,419,368.00  55.44    [High]Form 4By Polestar Offshore Fund
2021-11-01Murray Stahl-Buy2Common Stock$1,313.30-$2,626.60  -1,381$1,813,667.30  1.78     [Low]Form 4-
2021-11-01Murray Stahl-Buy1Common Stock$1,313.30-$1,313.30  -1,382$1,814,980.60  1.78     [Low]Form 4-
2021-11-01Murray Stahl-Buy13Common Stock$1,313.30-$17,072.90  0.02     [ Very Low ]216,657$284,535,638.10  279.59   [Very High]Form 4By Horizon Kinetics Asset Management LLC
2021-11-01Murray Stahl-Sell18Common Stock$1,273.67$22,926.06  0.02     [ Very Low ]1,163$1,481,278.21  1.50     [Low]Form 4By Horizon Common Inc.
2021-11-01Murray Stahl-Buy18Common Stock$1,273.67-$22,926.06  0.02     [ Very Low ]102,831$130,972,759.77  132.70   [Very High]Form 4By Horizon Kinetics Hard Assets LLC
2021-11-01Murray Stahl-Sell27Common Stock$1,273.67$34,389.09  0.03     [ Very Low ]1,355$1,725,822.85  1.75     [Low]Form 4-
2021-11-01Murray Stahl-Buy27Common Stock$1,273.67-$34,389.09  0.03     [ Very Low ]102,858$131,007,148.86  132.74   [Very High]Form 4By Horizon Kinetics Hard Assets LLC
2021-11-01Murray Stahl-Buy10Common Stock$1,273.67-$12,736.70  -102,868$131,019,885.56  132.75   [Very High]Form 4By Horizon Kinetics Hard Assets LLC
2021-11-02Murray Stahl-Buy1Common Stock$1,287.14-$1,287.14  -42,961$55,296,821.54  55.44    [High]Form 4By Polestar Offshore Fund
2021-11-02Murray Stahl-Buy2Common Stock$1,287.14-$2,574.28  -102,870$132,408,091.80  132.75   [Very High]Form 4By Horizon Kinetics Hard Assets LLC
2021-11-02Murray Stahl-Buy1Common Stock$1,287.14-$1,287.14  -1,439$1,852,194.46  1.86     [Low]Form 4By Horizon Credit Opportunity Fund
2021-11-02Murray Stahl-Buy2Common Stock$1,287.14-$2,574.28  -1,165$1,499,518.10  1.50     [Low]Form 4By Horizon Common Inc.
2021-11-02Murray Stahl-Buy2Common Stock$1,287.14-$2,574.28  -1,357$1,746,648.98  1.75     [Low]Form 4-
2021-11-02Murray Stahl-Buy1Common Stock$1,287.14-$1,287.14  -1,358$1,747,936.12  1.75     [Low]Form 4-
2021-11-02Murray Stahl-Buy13Common Stock$1,287.14-$16,732.82  0.02     [ Very Low ]216,670$278,884,623.80  279.61   [Very High]Form 4By Horizon Kinetics Asset Management LLC
2021-11-02Murray Stahl-Buy76Common Stock$1,273.67-$96,798.92  0.10     [ Low ]102,946$131,119,231.82  132.85   [Very High]Form 4By Horizon Kinetics Hard Assets LLC
2021-11-03Murray Stahl-Buy1Common Stock$1,274.00-$1,274.00  -42,962$54,733,588.00  55.44    [High]Form 4By Polestar Offshore Fund
2021-11-03Murray Stahl-Buy2Common Stock$1,274.00-$2,548.00  -102,948$131,155,752.00  132.85   [Very High]Form 4By Horizon Kinetics Hard Assets LLC
2021-11-03Murray Stahl-Buy1Common Stock$1,274.00-$1,274.00  -1,440$1,834,560.00  1.86     [Low]Form 4By Horizon Credit Opportunity Fund
2021-11-03Murray Stahl-Buy2Common Stock$1,274.00-$2,548.00  -1,167$1,486,758.00  1.51     [Low]Form 4By Horizon Common Inc.
2021-11-03Murray Stahl-Buy2Common Stock$1,274.00-$2,548.00  -1,360$1,732,640.00  1.76     [Low]Form 4-
2021-11-03Murray Stahl-Buy1Common Stock$1,274.00-$1,274.00  -1,361$1,733,914.00  1.76     [Low]Form 4-
2021-11-03Murray Stahl-Buy13Common Stock$1,274.00-$16,562.00  0.02     [ Very Low ]216,683$276,054,142.00  279.63   [Very High]Form 4By Horizon Kinetics Asset Management LLC
2021-11-04Murray Stahl-Buy2Common Stock$1,239.83-$2,479.66  -1,169$1,449,361.27  1.51     [Low]Form 4By Horizon Common Inc
2021-11-04Murray Stahl-Buy1Common Stock$1,239.83-$1,239.83  -1,441$1,786,595.03  1.86     [Low]Form 4By Horizon Credit Opportunity Fund
2021-11-04Murray Stahl-Buy2Common Stock$1,239.83-$2,479.66  -102,950$127,640,498.50  132.86   [Very High]Form 4By Horizon Kinetics Hard Assets LLC
2021-11-04Murray Stahl-Buy2Common Stock$1,239.83-$2,479.66  -1,363$1,689,888.29  1.76     [Low]Form 4-
2021-11-04Murray Stahl-Buy1Common Stock$1,239.83-$1,239.83  -1,364$1,691,128.12  1.76     [Low]Form 4-
2021-11-04Murray Stahl-Buy1Common Stock$1,239.83-$1,239.83  -42,963$53,266,816.29  55.44    [High]Form 4By Polestar Offshore Fund
2021-11-04Murray Stahl-Buy13Common Stock$1,239.83-$16,117.79  0.02     [ Very Low ]216,696$268,666,201.68  279.64   [Very High]Form 4By Horizon Kinetics Asset Management LLC
2021-11-05Murray Stahl-Buy1Common Stock$1,367.57-$1,367.57  -42,964$58,756,277.48  55.44    [High]Form 4By Polestar Offshore Fund
2021-11-05Murray Stahl-Buy2Common Stock$1,367.57-$2,735.14  -102,952$140,794,066.64  132.86   [Very High]Form 4By Horizon Kinetics Hard Assets LLC
2021-11-05Murray Stahl-Buy2Common Stock$1,367.57-$2,735.14  -1,171$1,601,424.47  1.51     [Low]Form 4By Horizon Common Inc
2021-11-05Murray Stahl-Buy2Common Stock$1,367.57-$2,735.14  -1,366$1,868,100.62  1.76     [Low]Form 4-
2021-11-05Murray Stahl-Buy1Common Stock$1,367.57-$1,367.57  -1,367$1,869,468.19  1.76     [Low]Form 4-
2021-11-05Murray Stahl-Buy12Common Stock$1,367.57-$16,410.84  0.02     [ Very Low ]216,708$296,363,359.56  279.66   [Very High]Form 4By Horizon Kinetics Asset Management LLC
2021-11-08Murray Stahl-Buy1Common Stock$1,385.42-$1,385.42  -42,965$59,524,570.30  55.45    [High]Form 4By Polestar Offshore Fund
2021-11-08Murray Stahl-Buy2Common Stock$1,385.42-$2,770.84  -102,954$142,634,530.68  132.86   [Very High]Form 4By Horizon Kinetics Hard Assets LLC
2021-11-08Murray Stahl-Buy2Common Stock$1,385.42-$2,770.84  -1,173$1,625,097.66  1.51     [Low]Form 4By Horizon Common Inc
2021-11-08Murray Stahl-Buy2Common Stock$1,385.42-$2,770.84  -1,369$1,896,639.98  1.77     [Low]Form 4-
2021-11-08Murray Stahl-Buy1Common Stock$1,385.42-$1,385.42  -1,370$1,898,025.40  1.77     [Low]Form 4-
2021-11-08Murray Stahl-Buy12Common Stock$1,385.42-$16,625.04  0.02     [ Very Low ]216,720$300,248,222.40  279.67   [Very High]Form 4By Horizon Kinetics Asset Management LLC
2021-11-09Murray Stahl-Buy1Common Stock$1,421.57-$1,421.57  -42,966$61,079,176.62  55.45    [High]Form 4By Polestar Offshore Fund Ltd
2021-11-09Murray Stahl-Buy2Common Stock$1,421.57-$2,843.14  -102,956$146,359,160.92  132.86   [Very High]Form 4By Horizon Kinetics Hard Assets LLC
2021-11-09Murray Stahl-Buy2Common Stock$1,421.57-$2,843.14  -1,175$1,670,344.75  1.52     [Low]Form 4By Horizon Common Inc
2021-11-09Murray Stahl-Buy2Common Stock$1,421.57-$2,843.14  -1,372$1,950,394.04  1.77     [Low]Form 4-
2021-11-09Murray Stahl-Buy1Common Stock$1,421.57-$1,421.57  -1,373$1,951,815.61  1.77     [Low]Form 4-
2021-11-09Murray Stahl-Buy11Common Stock$1,421.57-$15,637.27  -216,731$308,098,287.67  279.69   [Very High]Form 4By Horizon Kinetics Asset Management LLC
2021-11-10Murray Stahl-Buy1Common Stock$1,339.90-$1,339.90  -42,967$57,571,483.30  55.47    [High]Form 4By Polestar Offshore Fund
2021-11-10Murray Stahl-Buy2Common Stock$1,339.90-$2,679.80  -102,958$137,953,424.20  132.92   [Very High]Form 4By Horizon Kinetics Hard Assets LLC
2021-11-10Murray Stahl-Buy2Common Stock$1,339.90-$2,679.80  -1,177$1,577,062.30  1.52     [Low]Form 4By Horizon Common Inc
2021-11-10Murray Stahl-Buy2Common Stock$1,339.90-$2,679.80  -1,375$1,842,362.50  1.78     [Low]Form 4-
2021-11-10Murray Stahl-Buy1Common Stock$1,339.90-$1,339.90  -1,376$1,843,702.40  1.78     [Low]Form 4-
2021-11-10Murray Stahl-Buy11Common Stock$1,339.90-$14,738.90  -216,742$290,412,605.80  279.81   [Very High]Form 4By Horizon Kinetics Asset Management LLC
2021-11-11Murray Stahl-Buy1Common Stock$1,340.01-$1,340.01  -42,968$57,577,549.68  55.47    [High]Form 4By Polestar Offshore Fund
2021-11-11Murray Stahl-Buy2Common Stock$1,340.01-$2,680.02  -102,960$137,967,429.60  132.92   [Very High]Form 4By Horizon Kinetics Hard Assets LLC
2021-11-11Murray Stahl-Buy2Common Stock$1,340.01-$2,680.02  -1,378$1,846,533.78  1.78     [Low]Form 4-
2021-11-11Murray Stahl-Buy1Common Stock$1,340.01-$1,340.01  -1,379$1,847,873.79  1.78     [Low]Form 4-
2021-11-11Murray Stahl-Buy11Common Stock$1,340.01-$14,740.11  -216,753$290,451,187.53  279.83   [Very High]Form 4By Horizon Kinetics Asset Management LLC
2021-11-11Murray Stahl-Buy2Common Stock$1,340.01-$2,680.02  -1,179$1,579,871.79  1.52     [Low]Form 4By Horizon Common Inc
2021-11-12Murray Stahl-Buy1Common Stock$1,296.53-$1,296.53  -42,969$55,710,597.57  55.47    [High]Form 4By Polestar Offshore Fund
2021-11-12Murray Stahl-Buy2Common Stock$1,296.53-$2,593.06  -102,962$133,493,321.86  132.92   [Very High]Form 4By Horizon Kinetics Hard Assets LLC
2021-11-12Murray Stahl-Buy2Common Stock$1,296.53-$2,593.06  -1,181$1,531,201.93  1.52     [Low]Form 4By Horizon Common Inc
2021-11-12Murray Stahl-Buy2Common Stock$1,296.53-$2,593.06  -1,381$1,790,507.93  1.78     [Low]Form 4-
2021-11-12Murray Stahl-Buy1Common Stock$1,296.53-$1,296.53  -1,382$1,791,804.46  1.78     [Low]Form 4-
2021-11-12Murray Stahl-Buy11Common Stock$1,296.53-$14,261.83  -216,764$281,041,028.92  279.84   [Very High]Form 4By Horizon Kinetics Asset Management LLC
2021-11-15Murray Stahl-Buy1Common Stock$1,295.13-$1,295.13  -42,970$55,651,736.10  55.47    [High]Form 4By Polestar Offshore Fund
2021-11-15Murray Stahl-Buy2Common Stock$1,295.13-$2,590.26  -102,964$133,351,765.32  132.93   [Very High]Form 4By Horizon Kinetics Hard Assets LLC
2021-11-15Murray Stahl-Buy2Common Stock$1,295.13-$2,590.26  -1,183$1,532,138.79  1.53     [Low]Form 4By Horizon Common Inc.
2021-11-15Murray Stahl-Buy2Common Stock$1,295.13-$2,590.26  -1,384$1,792,459.92  1.79     [Low]Form 4-
2021-11-15Murray Stahl-Buy1Common Stock$1,295.13-$1,295.13  -1,385$1,793,755.05  1.79     [Low]Form 4-
2021-11-15Murray Stahl-Buy11Common Stock$1,295.13-$14,246.43  -216,775$280,751,805.75  279.85   [Very High]Form 4By Horizon Kinetics Asset Management LLC
2021-11-16Murray Stahl-Buy1Common Stock$1,296.34-$1,296.34  -42,971$55,705,026.14  55.48    [High]Form 4By Polestar Offshore Fund
2021-11-16Murray Stahl-Buy2Common Stock$1,296.34-$2,592.68  -102,966$133,478,944.44  132.93   [Very High]Form 4By Horizon Kinetics Hard Assets LLC
2021-11-16Murray Stahl-Buy2Common Stock$1,296.34-$2,592.68  -1,185$1,536,162.90  1.53     [Low]Form 4By Horizon Common Inc.
2021-11-16Murray Stahl-Buy2Common Stock$1,296.34-$2,592.68  -1,387$1,798,023.58  1.79     [Low]Form 4-
2021-11-16Murray Stahl-Buy1Common Stock$1,296.34-$1,296.34  -1,388$1,799,319.92  1.79     [Low]Form 4-
2021-11-16Murray Stahl-Buy11Common Stock$1,296.34-$14,259.74  -216,786$281,028,363.24  279.87   [Very High]Form 4By Horizon Kinetics Asset Management LLC
2021-11-17Murray Stahl-Buy1Common Stock$1,258.02-$1,258.02  -42,972$54,059,635.44  55.48    [High]Form 4By Polestar Offshore Fund
2021-11-17Murray Stahl-Buy2Common Stock$1,258.02-$2,516.04  -102,968$129,535,803.36  132.93   [Very High]Form 4By Horizon Kinetics Hard Assets LLC
2021-11-17Murray Stahl-Buy2Common Stock$1,258.02-$2,516.04  -1,187$1,493,269.74  1.53     [Low]Form 4By Horizon Common Inc.
2021-11-17Murray Stahl-Buy2Common Stock$1,258.02-$2,516.04  -1,390$1,748,647.80  1.79     [Low]Form 4-
2021-11-17Murray Stahl-Buy1Common Stock$1,258.02-$1,258.02  -1,391$1,749,905.82  1.80     [Low]Form 4-
2021-11-17Murray Stahl-Buy11Common Stock$1,258.02-$13,838.22  -216,797$272,734,961.94  279.88   [Very High]Form 4By Horizon Kinetics Asset Management LLC
2021-11-18Murray Stahl-Buy1Common Stock$1,280.43-$1,280.43  -42,973$55,023,918.39  55.48    [High]Form 4By Polestar Offshore Fund
2021-11-18Murray Stahl-Buy2Common Stock$1,280.43-$2,560.86  -102,970$131,845,877.10  132.93   [Very High]Form 4By Horizon Kinetics Hard Assets LLC
2021-11-18Murray Stahl-Buy2Common Stock$1,280.43-$2,560.86  -1,189$1,522,431.27  1.53     [Low]Form 4By Horizon Common Inc.
2021-11-18Murray Stahl-Buy2Common Stock$1,280.43-$2,560.86  -1,393$1,783,638.99  1.80     [Low]Form 4-
2021-11-18Murray Stahl-Buy1Common Stock$1,280.43-$1,280.43  -1,394$1,784,919.42  1.80     [Low]Form 4-
2021-11-18Murray Stahl-Buy11Common Stock$1,280.43-$14,084.73  -216,808$277,607,467.44  279.90   [Very High]Form 4By Horizon Kinetics Asset Management LLC
2021-11-19Murray Stahl-Buy1Common Stock$1,245.91-$1,245.91  -42,974$53,541,736.34  55.48    [High]Form 4By Polestar Offshore Fund
2021-11-19Murray Stahl-Buy2Common Stock$1,245.91-$2,491.82  -102,972$128,293,844.52  132.94   [Very High]Form 4By Horizon Kinetics Hard Assets, LLC
2021-11-19Murray Stahl-Buy2Common Stock$1,245.91-$2,491.82  -1,191$1,483,878.81  1.54     [Low]Form 4By Horizon Common Inc
2021-11-19Murray Stahl-Buy2Common Stock$1,245.91-$2,491.82  -1,396$1,739,290.36  1.80     [Low]Form 4-
2021-11-19Murray Stahl-Buy1Common Stock$1,245.91-$1,245.91  -1,397$1,740,536.27  1.80     [Low]Form 4-
2021-11-19Murray Stahl-Buy11Common Stock$1,245.91-$13,705.01  -216,819$270,136,960.29  279.91   [Very High]Form 4By Horizon Kinetics Asset Management LLC
2021-11-22Murray Stahl-Buy1Common Stock$1,253.80-$1,253.80  -42,975$53,882,055.00  55.48    [High]Form 4By Polestar Offshore Fund
2021-11-22Murray Stahl-Buy2Common Stock$1,253.80-$2,507.60  -102,974$129,108,801.20  132.94   [Very High]Form 4By Horizon Kinetics Hard Assets LLC
2021-11-22Murray Stahl-Buy2Common Stock$1,253.80-$2,507.60  -1,193$1,495,783.40  1.54     [Low]Form 4By Horizon Common Inc
2021-11-22Murray Stahl-Buy2Common Stock$1,253.80-$2,507.60  -1,399$1,754,066.20  1.81     [Low]Form 4-
2021-11-22Murray Stahl-Buy1Common Stock$1,253.80-$1,253.80  -1,400$1,755,320.00  1.81     [Low]Form 4-
2021-11-22Murray Stahl-Buy11Common Stock$1,253.80-$13,791.80  -216,830$271,861,454.00  279.93   [Very High]Form 4By Horizon Kinetics Asset Management LLC
2021-11-23Murray Stahl-Buy1Common Stock$1,297.94-$1,297.94  -42,976$55,780,269.44  55.48    [High]Form 4By Polestar Offshore Fund
2021-11-23Murray Stahl-Buy2Common Stock$1,297.94-$2,595.88  -102,976$133,656,669.44  132.94   [Very High]Form 4By Horizon Kinetics Hard Assets LLC
2021-11-23Murray Stahl-Buy2Common Stock$1,297.94-$2,595.88  -1,195$1,551,038.30  1.54     [Low]Form 4By Horizon Common Inc
2021-11-23Murray Stahl-Buy2Common Stock$1,297.94-$2,595.88  -1,402$1,819,711.88  1.81     [Low]Form 4-
2021-11-23Murray Stahl-Buy1Common Stock$1,297.94-$1,297.94  -1,403$1,821,009.82  1.81     [Low]Form 4-
2021-11-23Murray Stahl-Buy11Common Stock$1,297.94-$14,277.34  -216,841$281,446,607.54  279.94   [Very High]Form 4By Horizon Kinetics Asset Management LLC
2021-11-24Murray Stahl-Buy1Common Stock$1,307.48-$1,307.48  -42,977$56,191,567.96  55.48    [High]Form 4By Polestar Offshore Fund
2021-11-24Murray Stahl-Buy2Common Stock$1,307.48-$2,614.96  -102,978$134,641,675.44  132.94   [Very High]Form 4By Horizon Kinetics Hard Assets LLC
2021-11-24Murray Stahl-Buy2Common Stock$1,307.48-$2,614.96  -1,197$1,565,053.56  1.55     [Low]Form 4By Horizon Common Inc
2021-11-24Murray Stahl-Buy2Common Stock$1,307.48-$2,614.96  -1,405$1,837,009.40  1.81     [Low]Form 4-
2021-11-24Murray Stahl-Buy1Common Stock$1,307.48-$1,307.48  -1,406$1,838,316.88  1.82     [Low]Form 4-
2021-11-24Murray Stahl-Buy11Common Stock$1,307.48-$14,382.28  -216,852$283,529,652.96  279.95   [Very High]Form 4By Horizon Kinetics Asset Management LLC